<?xml version="1.0" encoding="UTF-8" standalone="no" ?>
<gpx xmlns="http://www.topografix.com/GPX/1/1" xmlns:xsi="http://www.w3.org/2001/XMLSchema-instance" xsi:schemaLocation="http://www.topografix.com/GPX/1/1 http://www.topografix.com/GPX/1/1/gpx.xsd" version="1.1" creator="VisuGPX - https://www.visugpx.com">
  <metadata>
    <name>2018-06-30 15:54:10</name>
    <desc><![CDATA[Chemin de Saint Guilhem sud Samedi 30 juin 2018 : de La-Vacquerie-et-Saint-Martin-de-Castrie à Saint-Guilhem-le-Desert


[url]http://jeudicrando.free.fr/index.php?post/2018/07/03/Chemin-de-Saint-Guilhem-sud-2018-Samedi-30-Juin-%3A-de-la-Vacquerie-Saint-Martin-de-Castries-%C3%A0-Saint-Guilhem-le-desert[/url]]]></desc>
  </metadata>
  <trk>
    <name><![CDATA[2018-06-30 15:54:10]]></name>
    <trkseg>
      <trkpt lat="43.78945" lon="3.46003">
        <ele>656.72</ele>
        <time>2018-06-30T06:09:05Z</time>
      </trkpt>
      <trkpt lat="43.78945" lon="3.46003">
        <ele>656.72</ele>
        <time>2018-06-30T06:09:06Z</time>
      </trkpt>
      <trkpt lat="43.78944" lon="3.46004">
        <ele>648.07</ele>
        <time>2018-06-30T06:09:11Z</time>
      </trkpt>
      <trkpt lat="43.78944" lon="3.46007">
        <ele>646.14</ele>
        <time>2018-06-30T06:09:30Z</time>
      </trkpt>
      <trkpt lat="43.7894" lon="3.46006">
        <ele>645.66</ele>
        <time>2018-06-30T06:09:51Z</time>
      </trkpt>
      <trkpt lat="43.78941" lon="3.46007">
        <ele>646.62</ele>
        <time>2018-06-30T06:09:57Z</time>
      </trkpt>
      <trkpt lat="43.7894" lon="3.46007">
        <ele>646.14</ele>
        <time>2018-06-30T06:10:21Z</time>
      </trkpt>
      <trkpt lat="43.78943" lon="3.46">
        <ele>645.66</ele>
        <time>2018-06-30T06:10:36Z</time>
      </trkpt>
      <trkpt lat="43.7895" lon="3.45997">
        <ele>645.18</ele>
        <time>2018-06-30T06:10:52Z</time>
      </trkpt>
      <trkpt lat="43.78951" lon="3.45997">
        <ele>645.18</ele>
        <time>2018-06-30T06:11:13Z</time>
      </trkpt>
      <trkpt lat="43.78948" lon="3.45994">
        <ele>645.18</ele>
        <time>2018-06-30T06:11:28Z</time>
      </trkpt>
      <trkpt lat="43.78945" lon="3.45997">
        <ele>645.18</ele>
        <time>2018-06-30T06:11:45Z</time>
      </trkpt>
      <trkpt lat="43.7894" lon="3.46006">
        <ele>645.18</ele>
        <time>2018-06-30T06:12:00Z</time>
      </trkpt>
      <trkpt lat="43.7894" lon="3.46007">
        <ele>645.18</ele>
        <time>2018-06-30T06:12:02Z</time>
      </trkpt>
      <trkpt lat="43.78931" lon="3.46013">
        <ele>645.18</ele>
        <time>2018-06-30T06:12:16Z</time>
      </trkpt>
      <trkpt lat="43.78929" lon="3.46015">
        <ele>644.7</ele>
        <time>2018-06-30T06:12:31Z</time>
      </trkpt>
      <trkpt lat="43.78919" lon="3.46023">
        <ele>644.7</ele>
        <time>2018-06-30T06:12:54Z</time>
      </trkpt>
      <trkpt lat="43.78906" lon="3.46029">
        <ele>646.62</ele>
        <time>2018-06-30T06:13:13Z</time>
      </trkpt>
      <trkpt lat="43.78896" lon="3.46036">
        <ele>646.14</ele>
        <time>2018-06-30T06:13:26Z</time>
      </trkpt>
      <trkpt lat="43.78894" lon="3.46036">
        <ele>646.14</ele>
        <time>2018-06-30T06:13:28Z</time>
      </trkpt>
      <trkpt lat="43.78883" lon="3.46026">
        <ele>645.66</ele>
        <time>2018-06-30T06:13:43Z</time>
      </trkpt>
      <trkpt lat="43.78875" lon="3.46019">
        <ele>647.59</ele>
        <time>2018-06-30T06:13:57Z</time>
      </trkpt>
      <trkpt lat="43.78868" lon="3.46017">
        <ele>649.03</ele>
        <time>2018-06-30T06:14:15Z</time>
      </trkpt>
      <trkpt lat="43.78858" lon="3.46011">
        <ele>650.95</ele>
        <time>2018-06-30T06:14:32Z</time>
      </trkpt>
      <trkpt lat="43.78845" lon="3.46008">
        <ele>652.87</ele>
        <time>2018-06-30T06:14:49Z</time>
      </trkpt>
      <trkpt lat="43.78834" lon="3.45997">
        <ele>653.35</ele>
        <time>2018-06-30T06:15:05Z</time>
      </trkpt>
      <trkpt lat="43.78821" lon="3.45992">
        <ele>653.83</ele>
        <time>2018-06-30T06:15:20Z</time>
      </trkpt>
      <trkpt lat="43.78816" lon="3.4599">
        <ele>654.31</ele>
        <time>2018-06-30T06:15:25Z</time>
      </trkpt>
      <trkpt lat="43.78805" lon="3.45986">
        <ele>655.28</ele>
        <time>2018-06-30T06:15:38Z</time>
      </trkpt>
      <trkpt lat="43.78792" lon="3.45983">
        <ele>656.72</ele>
        <time>2018-06-30T06:15:54Z</time>
      </trkpt>
      <trkpt lat="43.7878" lon="3.45969">
        <ele>658.16</ele>
        <time>2018-06-30T06:16:11Z</time>
      </trkpt>
      <trkpt lat="43.78777" lon="3.45956">
        <ele>658.16</ele>
        <time>2018-06-30T06:16:20Z</time>
      </trkpt>
      <trkpt lat="43.78773" lon="3.45935">
        <ele>658.64</ele>
        <time>2018-06-30T06:16:36Z</time>
      </trkpt>
      <trkpt lat="43.7877" lon="3.45925">
        <ele>659.12</ele>
        <time>2018-06-30T06:16:43Z</time>
      </trkpt>
      <trkpt lat="43.78762" lon="3.45908">
        <ele>659.12</ele>
        <time>2018-06-30T06:17:00Z</time>
      </trkpt>
      <trkpt lat="43.78752" lon="3.45892">
        <ele>660.08</ele>
        <time>2018-06-30T06:17:16Z</time>
      </trkpt>
      <trkpt lat="43.7875" lon="3.45873">
        <ele>661.04</ele>
        <time>2018-06-30T06:17:35Z</time>
      </trkpt>
      <trkpt lat="43.78746" lon="3.45855">
        <ele>662.01</ele>
        <time>2018-06-30T06:17:50Z</time>
      </trkpt>
      <trkpt lat="43.7874" lon="3.45836">
        <ele>663.45</ele>
        <time>2018-06-30T06:18:06Z</time>
      </trkpt>
      <trkpt lat="43.78733" lon="3.4582">
        <ele>663.93</ele>
        <time>2018-06-30T06:18:24Z</time>
      </trkpt>
      <trkpt lat="43.78725" lon="3.458">
        <ele>664.89</ele>
        <time>2018-06-30T06:18:42Z</time>
      </trkpt>
      <trkpt lat="43.78717" lon="3.45782">
        <ele>663.93</ele>
        <time>2018-06-30T06:18:56Z</time>
      </trkpt>
      <trkpt lat="43.78713" lon="3.45758">
        <ele>662.01</ele>
        <time>2018-06-30T06:19:14Z</time>
      </trkpt>
      <trkpt lat="43.78703" lon="3.45745">
        <ele>662.01</ele>
        <time>2018-06-30T06:19:28Z</time>
      </trkpt>
      <trkpt lat="43.78696" lon="3.45723">
        <ele>660.08</ele>
        <time>2018-06-30T06:19:48Z</time>
      </trkpt>
      <trkpt lat="43.787" lon="3.45711">
        <ele>659.6</ele>
        <time>2018-06-30T06:20:13Z</time>
      </trkpt>
      <trkpt lat="43.78701" lon="3.45703">
        <ele>659.6</ele>
        <time>2018-06-30T06:20:45Z</time>
      </trkpt>
      <trkpt lat="43.78697" lon="3.457">
        <ele>660.56</ele>
        <time>2018-06-30T06:21:10Z</time>
      </trkpt>
      <trkpt lat="43.78691" lon="3.45703">
        <ele>661.04</ele>
        <time>2018-06-30T06:21:25Z</time>
      </trkpt>
      <trkpt lat="43.78688" lon="3.45703">
        <ele>662.01</ele>
        <time>2018-06-30T06:21:28Z</time>
      </trkpt>
      <trkpt lat="43.78682" lon="3.45701">
        <ele>662.49</ele>
        <time>2018-06-30T06:21:32Z</time>
      </trkpt>
      <trkpt lat="43.78674" lon="3.45691">
        <ele>662.97</ele>
        <time>2018-06-30T06:21:46Z</time>
      </trkpt>
      <trkpt lat="43.7866" lon="3.45679">
        <ele>665.85</ele>
        <time>2018-06-30T06:22:05Z</time>
      </trkpt>
      <trkpt lat="43.7865" lon="3.45669">
        <ele>668.25</ele>
        <time>2018-06-30T06:22:22Z</time>
      </trkpt>
      <trkpt lat="43.78636" lon="3.45662">
        <ele>670.18</ele>
        <time>2018-06-30T06:22:38Z</time>
      </trkpt>
      <trkpt lat="43.78625" lon="3.45655">
        <ele>671.62</ele>
        <time>2018-06-30T06:22:52Z</time>
      </trkpt>
      <trkpt lat="43.78616" lon="3.45654">
        <ele>672.58</ele>
        <time>2018-06-30T06:23:07Z</time>
      </trkpt>
      <trkpt lat="43.78612" lon="3.4566">
        <ele>674.98</ele>
        <time>2018-06-30T06:23:24Z</time>
      </trkpt>
      <trkpt lat="43.78603" lon="3.45663">
        <ele>676.91</ele>
        <time>2018-06-30T06:23:40Z</time>
      </trkpt>
      <trkpt lat="43.78591" lon="3.45666">
        <ele>679.31</ele>
        <time>2018-06-30T06:24:00Z</time>
      </trkpt>
      <trkpt lat="43.78576" lon="3.4567">
        <ele>681.23</ele>
        <time>2018-06-30T06:24:15Z</time>
      </trkpt>
      <trkpt lat="43.78566" lon="3.45668">
        <ele>682.67</ele>
        <time>2018-06-30T06:24:33Z</time>
      </trkpt>
      <trkpt lat="43.78555" lon="3.45671">
        <ele>684.6</ele>
        <time>2018-06-30T06:24:52Z</time>
      </trkpt>
      <trkpt lat="43.78545" lon="3.45666">
        <ele>686.52</ele>
        <time>2018-06-30T06:25:08Z</time>
      </trkpt>
      <trkpt lat="43.7854" lon="3.45661">
        <ele>686.52</ele>
        <time>2018-06-30T06:25:26Z</time>
      </trkpt>
      <trkpt lat="43.78531" lon="3.45659">
        <ele>687.48</ele>
        <time>2018-06-30T06:25:39Z</time>
      </trkpt>
      <trkpt lat="43.78523" lon="3.45657">
        <ele>689.88</ele>
        <time>2018-06-30T06:25:58Z</time>
      </trkpt>
      <trkpt lat="43.78515" lon="3.45656">
        <ele>692.29</ele>
        <time>2018-06-30T06:26:16Z</time>
      </trkpt>
      <trkpt lat="43.78504" lon="3.45656">
        <ele>694.69</ele>
        <time>2018-06-30T06:26:37Z</time>
      </trkpt>
      <trkpt lat="43.7849" lon="3.4566">
        <ele>697.57</ele>
        <time>2018-06-30T06:26:53Z</time>
      </trkpt>
      <trkpt lat="43.78479" lon="3.45659">
        <ele>700.46</ele>
        <time>2018-06-30T06:27:11Z</time>
      </trkpt>
      <trkpt lat="43.7847" lon="3.45659">
        <ele>702.86</ele>
        <time>2018-06-30T06:27:30Z</time>
      </trkpt>
      <trkpt lat="43.78452" lon="3.45652">
        <ele>704.78</ele>
        <time>2018-06-30T06:27:49Z</time>
      </trkpt>
      <trkpt lat="43.78444" lon="3.45649">
        <ele>706.23</ele>
        <time>2018-06-30T06:28:04Z</time>
      </trkpt>
      <trkpt lat="43.78427" lon="3.45647">
        <ele>708.63</ele>
        <time>2018-06-30T06:28:23Z</time>
      </trkpt>
      <trkpt lat="43.78417" lon="3.45645">
        <ele>710.55</ele>
        <time>2018-06-30T06:28:40Z</time>
      </trkpt>
      <trkpt lat="43.78409" lon="3.45647">
        <ele>712.95</ele>
        <time>2018-06-30T06:28:59Z</time>
      </trkpt>
      <trkpt lat="43.78403" lon="3.45649">
        <ele>714.88</ele>
        <time>2018-06-30T06:29:17Z</time>
      </trkpt>
      <trkpt lat="43.78392" lon="3.45647">
        <ele>716.8</ele>
        <time>2018-06-30T06:29:38Z</time>
      </trkpt>
      <trkpt lat="43.78375" lon="3.45648">
        <ele>719.68</ele>
        <time>2018-06-30T06:30:00Z</time>
      </trkpt>
      <trkpt lat="43.78361" lon="3.45647">
        <ele>721.61</ele>
        <time>2018-06-30T06:30:15Z</time>
      </trkpt>
      <trkpt lat="43.78352" lon="3.45646">
        <ele>724.49</ele>
        <time>2018-06-30T06:30:32Z</time>
      </trkpt>
      <trkpt lat="43.78331" lon="3.45637">
        <ele>726.41</ele>
        <time>2018-06-30T06:30:50Z</time>
      </trkpt>
      <trkpt lat="43.78322" lon="3.45636">
        <ele>728.34</ele>
        <time>2018-06-30T06:31:05Z</time>
      </trkpt>
      <trkpt lat="43.78311" lon="3.45633">
        <ele>730.26</ele>
        <time>2018-06-30T06:31:21Z</time>
      </trkpt>
      <trkpt lat="43.783" lon="3.45631">
        <ele>732.66</ele>
        <time>2018-06-30T06:31:36Z</time>
      </trkpt>
      <trkpt lat="43.78288" lon="3.45627">
        <ele>734.1</ele>
        <time>2018-06-30T06:31:50Z</time>
      </trkpt>
      <trkpt lat="43.78282" lon="3.45624">
        <ele>735.55</ele>
        <time>2018-06-30T06:32:09Z</time>
      </trkpt>
      <trkpt lat="43.78277" lon="3.45619">
        <ele>736.03</ele>
        <time>2018-06-30T06:32:21Z</time>
      </trkpt>
      <trkpt lat="43.78272" lon="3.45617">
        <ele>736.03</ele>
        <time>2018-06-30T06:32:33Z</time>
      </trkpt>
      <trkpt lat="43.78267" lon="3.45616">
        <ele>736.51</ele>
        <time>2018-06-30T06:32:52Z</time>
      </trkpt>
      <trkpt lat="43.78255" lon="3.45612">
        <ele>738.91</ele>
        <time>2018-06-30T06:33:11Z</time>
      </trkpt>
      <trkpt lat="43.78248" lon="3.45611">
        <ele>741.31</ele>
        <time>2018-06-30T06:33:27Z</time>
      </trkpt>
      <trkpt lat="43.78242" lon="3.45612">
        <ele>743.24</ele>
        <time>2018-06-30T06:33:41Z</time>
      </trkpt>
      <trkpt lat="43.78235" lon="3.45608">
        <ele>746.6</ele>
        <time>2018-06-30T06:33:58Z</time>
      </trkpt>
      <trkpt lat="43.78221" lon="3.45596">
        <ele>749.49</ele>
        <time>2018-06-30T06:34:19Z</time>
      </trkpt>
      <trkpt lat="43.78214" lon="3.45593">
        <ele>752.37</ele>
        <time>2018-06-30T06:34:37Z</time>
      </trkpt>
      <trkpt lat="43.78205" lon="3.45586">
        <ele>755.25</ele>
        <time>2018-06-30T06:34:53Z</time>
      </trkpt>
      <trkpt lat="43.78192" lon="3.45578">
        <ele>757.18</ele>
        <time>2018-06-30T06:35:08Z</time>
      </trkpt>
      <trkpt lat="43.78188" lon="3.45569">
        <ele>757.66</ele>
        <time>2018-06-30T06:35:24Z</time>
      </trkpt>
      <trkpt lat="43.78186" lon="3.45569">
        <ele>757.66</ele>
        <time>2018-06-30T06:35:46Z</time>
      </trkpt>
      <trkpt lat="43.78181" lon="3.45564">
        <ele>758.62</ele>
        <time>2018-06-30T06:36:00Z</time>
      </trkpt>
      <trkpt lat="43.78173" lon="3.45552">
        <ele>759.1</ele>
        <time>2018-06-30T06:36:15Z</time>
      </trkpt>
      <trkpt lat="43.78162" lon="3.45538">
        <ele>760.06</ele>
        <time>2018-06-30T06:36:33Z</time>
      </trkpt>
      <trkpt lat="43.78151" lon="3.45534">
        <ele>761.5</ele>
        <time>2018-06-30T06:36:49Z</time>
      </trkpt>
      <trkpt lat="43.78142" lon="3.45535">
        <ele>762.46</ele>
        <time>2018-06-30T06:37:00Z</time>
      </trkpt>
      <trkpt lat="43.78131" lon="3.45535">
        <ele>763.42</ele>
        <time>2018-06-30T06:37:16Z</time>
      </trkpt>
      <trkpt lat="43.78125" lon="3.45533">
        <ele>764.39</ele>
        <time>2018-06-30T06:37:30Z</time>
      </trkpt>
      <trkpt lat="43.78125" lon="3.45528">
        <ele>764.39</ele>
        <time>2018-06-30T06:37:54Z</time>
      </trkpt>
      <trkpt lat="43.78117" lon="3.4553">
        <ele>764.87</ele>
        <time>2018-06-30T06:38:11Z</time>
      </trkpt>
      <trkpt lat="43.78101" lon="3.45529">
        <ele>765.35</ele>
        <time>2018-06-30T06:38:27Z</time>
      </trkpt>
      <trkpt lat="43.78097" lon="3.45527">
        <ele>765.35</ele>
        <time>2018-06-30T06:38:31Z</time>
      </trkpt>
      <trkpt lat="43.78084" lon="3.45519">
        <ele>766.31</ele>
        <time>2018-06-30T06:38:45Z</time>
      </trkpt>
      <trkpt lat="43.78076" lon="3.4551">
        <ele>768.23</ele>
        <time>2018-06-30T06:38:58Z</time>
      </trkpt>
      <trkpt lat="43.7806" lon="3.45503">
        <ele>768.23</ele>
        <time>2018-06-30T06:39:13Z</time>
      </trkpt>
      <trkpt lat="43.7805" lon="3.45494">
        <ele>769.67</ele>
        <time>2018-06-30T06:39:25Z</time>
      </trkpt>
      <trkpt lat="43.78035" lon="3.45485">
        <ele>771.11</ele>
        <time>2018-06-30T06:39:41Z</time>
      </trkpt>
      <trkpt lat="43.7802" lon="3.45486">
        <ele>771.6</ele>
        <time>2018-06-30T06:39:58Z</time>
      </trkpt>
      <trkpt lat="43.78009" lon="3.45487">
        <ele>774.48</ele>
        <time>2018-06-30T06:40:14Z</time>
      </trkpt>
      <trkpt lat="43.77997" lon="3.45497">
        <ele>775.92</ele>
        <time>2018-06-30T06:40:31Z</time>
      </trkpt>
      <trkpt lat="43.77984" lon="3.45502">
        <ele>777.36</ele>
        <time>2018-06-30T06:40:47Z</time>
      </trkpt>
      <trkpt lat="43.77973" lon="3.45511">
        <ele>779.29</ele>
        <time>2018-06-30T06:41:03Z</time>
      </trkpt>
      <trkpt lat="43.77956" lon="3.45524">
        <ele>781.21</ele>
        <time>2018-06-30T06:41:23Z</time>
      </trkpt>
      <trkpt lat="43.77943" lon="3.45529">
        <ele>783.13</ele>
        <time>2018-06-30T06:41:39Z</time>
      </trkpt>
      <trkpt lat="43.77928" lon="3.45538">
        <ele>785.05</ele>
        <time>2018-06-30T06:41:58Z</time>
      </trkpt>
      <trkpt lat="43.77914" lon="3.45546">
        <ele>787.94</ele>
        <time>2018-06-30T06:42:14Z</time>
      </trkpt>
      <trkpt lat="43.77903" lon="3.45559">
        <ele>790.82</ele>
        <time>2018-06-30T06:42:30Z</time>
      </trkpt>
      <trkpt lat="43.77894" lon="3.45563">
        <ele>791.78</ele>
        <time>2018-06-30T06:42:44Z</time>
      </trkpt>
      <trkpt lat="43.77892" lon="3.45563">
        <ele>791.78</ele>
        <time>2018-06-30T06:43:05Z</time>
      </trkpt>
      <trkpt lat="43.77891" lon="3.45564">
        <ele>791.78</ele>
        <time>2018-06-30T06:43:25Z</time>
      </trkpt>
      <trkpt lat="43.77891" lon="3.45564">
        <ele>791.78</ele>
        <time>2018-06-30T06:43:52Z</time>
      </trkpt>
      <trkpt lat="43.7789" lon="3.45562">
        <ele>792.74</ele>
        <time>2018-06-30T06:44:05Z</time>
      </trkpt>
      <trkpt lat="43.7789" lon="3.45558">
        <ele>792.74</ele>
        <time>2018-06-30T06:44:28Z</time>
      </trkpt>
      <trkpt lat="43.7789" lon="3.45553">
        <ele>792.74</ele>
        <time>2018-06-30T06:44:43Z</time>
      </trkpt>
      <trkpt lat="43.7789" lon="3.45551">
        <ele>792.74</ele>
        <time>2018-06-30T06:45:03Z</time>
      </trkpt>
      <trkpt lat="43.77892" lon="3.4555">
        <ele>792.74</ele>
        <time>2018-06-30T06:45:27Z</time>
      </trkpt>
      <trkpt lat="43.77892" lon="3.45549">
        <ele>792.74</ele>
        <time>2018-06-30T06:46:12Z</time>
      </trkpt>
      <trkpt lat="43.77891" lon="3.45551">
        <ele>793.22</ele>
        <time>2018-06-30T06:46:40Z</time>
      </trkpt>
      <trkpt lat="43.77891" lon="3.45551">
        <ele>793.22</ele>
        <time>2018-06-30T06:46:43Z</time>
      </trkpt>
      <trkpt lat="43.77884" lon="3.45527">
        <ele>793.22</ele>
        <time>2018-06-30T06:47:00Z</time>
      </trkpt>
      <trkpt lat="43.77887" lon="3.45502">
        <ele>794.19</ele>
        <time>2018-06-30T06:47:15Z</time>
      </trkpt>
      <trkpt lat="43.77893" lon="3.4548">
        <ele>794.67</ele>
        <time>2018-06-30T06:47:32Z</time>
      </trkpt>
      <trkpt lat="43.77894" lon="3.45479">
        <ele>794.67</ele>
        <time>2018-06-30T06:47:57Z</time>
      </trkpt>
      <trkpt lat="43.77895" lon="3.4548">
        <ele>794.67</ele>
        <time>2018-06-30T06:48:34Z</time>
      </trkpt>
      <trkpt lat="43.77894" lon="3.45482">
        <ele>795.63</ele>
        <time>2018-06-30T06:48:48Z</time>
      </trkpt>
      <trkpt lat="43.77895" lon="3.4548">
        <ele>794.67</ele>
        <time>2018-06-30T06:49:07Z</time>
      </trkpt>
      <trkpt lat="43.77899" lon="3.45465">
        <ele>794.67</ele>
        <time>2018-06-30T06:49:21Z</time>
      </trkpt>
      <trkpt lat="43.77907" lon="3.45446">
        <ele>794.67</ele>
        <time>2018-06-30T06:49:37Z</time>
      </trkpt>
      <trkpt lat="43.77919" lon="3.45425">
        <ele>794.67</ele>
        <time>2018-06-30T06:49:55Z</time>
      </trkpt>
      <trkpt lat="43.77935" lon="3.45405">
        <ele>793.71</ele>
        <time>2018-06-30T06:50:15Z</time>
      </trkpt>
      <trkpt lat="43.77952" lon="3.45387">
        <ele>793.71</ele>
        <time>2018-06-30T06:50:33Z</time>
      </trkpt>
      <trkpt lat="43.77965" lon="3.45368">
        <ele>792.74</ele>
        <time>2018-06-30T06:50:50Z</time>
      </trkpt>
      <trkpt lat="43.77973" lon="3.45354">
        <ele>792.74</ele>
        <time>2018-06-30T06:51:01Z</time>
      </trkpt>
      <trkpt lat="43.77977" lon="3.45346">
        <ele>792.74</ele>
        <time>2018-06-30T06:51:15Z</time>
      </trkpt>
      <trkpt lat="43.77977" lon="3.45347">
        <ele>794.19</ele>
        <time>2018-06-30T06:51:39Z</time>
      </trkpt>
      <trkpt lat="43.77978" lon="3.45348">
        <ele>794.19</ele>
        <time>2018-06-30T06:52:14Z</time>
      </trkpt>
      <trkpt lat="43.77977" lon="3.45347">
        <ele>794.19</ele>
        <time>2018-06-30T06:52:42Z</time>
      </trkpt>
      <trkpt lat="43.77977" lon="3.45347">
        <ele>794.19</ele>
        <time>2018-06-30T06:52:43Z</time>
      </trkpt>
      <trkpt lat="43.7798" lon="3.45336">
        <ele>794.19</ele>
        <time>2018-06-30T06:52:51Z</time>
      </trkpt>
      <trkpt lat="43.7799" lon="3.45304">
        <ele>791.3</ele>
        <time>2018-06-30T06:53:11Z</time>
      </trkpt>
      <trkpt lat="43.77989" lon="3.45298">
        <ele>790.82</ele>
        <time>2018-06-30T06:53:18Z</time>
      </trkpt>
      <trkpt lat="43.77983" lon="3.4529">
        <ele>791.3</ele>
        <time>2018-06-30T06:53:25Z</time>
      </trkpt>
      <trkpt lat="43.77979" lon="3.4528">
        <ele>788.9</ele>
        <time>2018-06-30T06:53:41Z</time>
      </trkpt>
      <trkpt lat="43.77979" lon="3.45279">
        <ele>788.9</ele>
        <time>2018-06-30T06:54:02Z</time>
      </trkpt>
      <trkpt lat="43.77976" lon="3.45278">
        <ele>788.9</ele>
        <time>2018-06-30T06:54:06Z</time>
      </trkpt>
      <trkpt lat="43.77973" lon="3.45274">
        <ele>787.94</ele>
        <time>2018-06-30T06:54:10Z</time>
      </trkpt>
      <trkpt lat="43.77967" lon="3.45269">
        <ele>786.5</ele>
        <time>2018-06-30T06:54:16Z</time>
      </trkpt>
      <trkpt lat="43.77962" lon="3.45261">
        <ele>786.02</ele>
        <time>2018-06-30T06:54:24Z</time>
      </trkpt>
      <trkpt lat="43.77944" lon="3.45246">
        <ele>783.13</ele>
        <time>2018-06-30T06:54:42Z</time>
      </trkpt>
      <trkpt lat="43.77927" lon="3.45238">
        <ele>781.21</ele>
        <time>2018-06-30T06:54:58Z</time>
      </trkpt>
      <trkpt lat="43.77912" lon="3.45229">
        <ele>780.73</ele>
        <time>2018-06-30T06:55:13Z</time>
      </trkpt>
      <trkpt lat="43.77899" lon="3.4522">
        <ele>779.29</ele>
        <time>2018-06-30T06:55:28Z</time>
      </trkpt>
      <trkpt lat="43.77886" lon="3.45214">
        <ele>777.84</ele>
        <time>2018-06-30T06:55:42Z</time>
      </trkpt>
      <trkpt lat="43.77878" lon="3.45203">
        <ele>776.4</ele>
        <time>2018-06-30T06:55:54Z</time>
      </trkpt>
      <trkpt lat="43.77873" lon="3.45198">
        <ele>776.4</ele>
        <time>2018-06-30T06:55:59Z</time>
      </trkpt>
      <trkpt lat="43.7787" lon="3.45189">
        <ele>776.4</ele>
        <time>2018-06-30T06:56:04Z</time>
      </trkpt>
      <trkpt lat="43.77859" lon="3.45168">
        <ele>776.4</ele>
        <time>2018-06-30T06:56:21Z</time>
      </trkpt>
      <trkpt lat="43.77859" lon="3.45166">
        <ele>776.4</ele>
        <time>2018-06-30T06:56:22Z</time>
      </trkpt>
      <trkpt lat="43.77858" lon="3.45162">
        <ele>776.4</ele>
        <time>2018-06-30T06:56:25Z</time>
      </trkpt>
      <trkpt lat="43.77849" lon="3.45152">
        <ele>775.92</ele>
        <time>2018-06-30T06:56:37Z</time>
      </trkpt>
      <trkpt lat="43.77839" lon="3.45133">
        <ele>775.44</ele>
        <time>2018-06-30T06:56:51Z</time>
      </trkpt>
      <trkpt lat="43.77833" lon="3.45123">
        <ele>774.96</ele>
        <time>2018-06-30T06:57:07Z</time>
      </trkpt>
      <trkpt lat="43.77816" lon="3.45111">
        <ele>774.48</ele>
        <time>2018-06-30T06:57:23Z</time>
      </trkpt>
      <trkpt lat="43.77816" lon="3.4511">
        <ele>774.48</ele>
        <time>2018-06-30T06:57:24Z</time>
      </trkpt>
      <trkpt lat="43.77811" lon="3.45098">
        <ele>775.92</ele>
        <time>2018-06-30T06:57:33Z</time>
      </trkpt>
      <trkpt lat="43.77793" lon="3.45091">
        <ele>778.81</ele>
        <time>2018-06-30T06:57:53Z</time>
      </trkpt>
      <trkpt lat="43.77792" lon="3.4509">
        <ele>779.29</ele>
        <time>2018-06-30T06:57:55Z</time>
      </trkpt>
      <trkpt lat="43.77786" lon="3.4508">
        <ele>779.77</ele>
        <time>2018-06-30T06:58:10Z</time>
      </trkpt>
      <trkpt lat="43.77782" lon="3.45078">
        <ele>780.25</ele>
        <time>2018-06-30T06:58:14Z</time>
      </trkpt>
      <trkpt lat="43.77778" lon="3.45071">
        <ele>781.21</ele>
        <time>2018-06-30T06:58:20Z</time>
      </trkpt>
      <trkpt lat="43.77759" lon="3.45065">
        <ele>783.13</ele>
        <time>2018-06-30T06:58:36Z</time>
      </trkpt>
      <trkpt lat="43.77736" lon="3.45045">
        <ele>783.61</ele>
        <time>2018-06-30T06:58:56Z</time>
      </trkpt>
      <trkpt lat="43.77733" lon="3.45039">
        <ele>783.61</ele>
        <time>2018-06-30T06:59:01Z</time>
      </trkpt>
      <trkpt lat="43.77729" lon="3.45032">
        <ele>782.17</ele>
        <time>2018-06-30T06:59:06Z</time>
      </trkpt>
      <trkpt lat="43.77724" lon="3.45014">
        <ele>781.69</ele>
        <time>2018-06-30T06:59:22Z</time>
      </trkpt>
      <trkpt lat="43.77726" lon="3.4501">
        <ele>781.69</ele>
        <time>2018-06-30T06:59:38Z</time>
      </trkpt>
      <trkpt lat="43.77727" lon="3.45009">
        <ele>781.69</ele>
        <time>2018-06-30T07:00:02Z</time>
      </trkpt>
      <trkpt lat="43.77727" lon="3.45008">
        <ele>781.69</ele>
        <time>2018-06-30T07:00:32Z</time>
      </trkpt>
      <trkpt lat="43.77724" lon="3.45011">
        <ele>781.69</ele>
        <time>2018-06-30T07:00:57Z</time>
      </trkpt>
      <trkpt lat="43.77723" lon="3.4501">
        <ele>781.69</ele>
        <time>2018-06-30T07:01:23Z</time>
      </trkpt>
      <trkpt lat="43.77722" lon="3.45011">
        <ele>781.69</ele>
        <time>2018-06-30T07:01:46Z</time>
      </trkpt>
      <trkpt lat="43.77724" lon="3.45009">
        <ele>781.69</ele>
        <time>2018-06-30T07:02:10Z</time>
      </trkpt>
      <trkpt lat="43.77729" lon="3.45006">
        <ele>781.69</ele>
        <time>2018-06-30T07:02:31Z</time>
      </trkpt>
      <trkpt lat="43.77731" lon="3.44997">
        <ele>781.69</ele>
        <time>2018-06-30T07:02:50Z</time>
      </trkpt>
      <trkpt lat="43.77733" lon="3.44991">
        <ele>783.13</ele>
        <time>2018-06-30T07:02:57Z</time>
      </trkpt>
      <trkpt lat="43.77738" lon="3.44976">
        <ele>784.57</ele>
        <time>2018-06-30T07:03:13Z</time>
      </trkpt>
      <trkpt lat="43.77732" lon="3.44967">
        <ele>784.09</ele>
        <time>2018-06-30T07:03:28Z</time>
      </trkpt>
      <trkpt lat="43.7772" lon="3.44946">
        <ele>784.57</ele>
        <time>2018-06-30T07:03:47Z</time>
      </trkpt>
      <trkpt lat="43.77713" lon="3.4493">
        <ele>784.57</ele>
        <time>2018-06-30T07:04:01Z</time>
      </trkpt>
      <trkpt lat="43.77708" lon="3.44908">
        <ele>785.53</ele>
        <time>2018-06-30T07:04:18Z</time>
      </trkpt>
      <trkpt lat="43.77707" lon="3.44897">
        <ele>786.02</ele>
        <time>2018-06-30T07:04:33Z</time>
      </trkpt>
      <trkpt lat="43.77702" lon="3.44884">
        <ele>787.46</ele>
        <time>2018-06-30T07:04:46Z</time>
      </trkpt>
      <trkpt lat="43.77695" lon="3.44876">
        <ele>787.46</ele>
        <time>2018-06-30T07:04:59Z</time>
      </trkpt>
      <trkpt lat="43.77686" lon="3.44868">
        <ele>786.02</ele>
        <time>2018-06-30T07:05:14Z</time>
      </trkpt>
      <trkpt lat="43.77673" lon="3.44852">
        <ele>785.05</ele>
        <time>2018-06-30T07:05:30Z</time>
      </trkpt>
      <trkpt lat="43.77665" lon="3.44842">
        <ele>784.09</ele>
        <time>2018-06-30T07:05:44Z</time>
      </trkpt>
      <trkpt lat="43.77662" lon="3.44821">
        <ele>783.61</ele>
        <time>2018-06-30T07:06:01Z</time>
      </trkpt>
      <trkpt lat="43.77659" lon="3.44799">
        <ele>782.17</ele>
        <time>2018-06-30T07:06:17Z</time>
      </trkpt>
      <trkpt lat="43.77657" lon="3.44783">
        <ele>780.25</ele>
        <time>2018-06-30T07:06:32Z</time>
      </trkpt>
      <trkpt lat="43.77656" lon="3.4476">
        <ele>778.32</ele>
        <time>2018-06-30T07:06:51Z</time>
      </trkpt>
      <trkpt lat="43.77647" lon="3.4475">
        <ele>775.92</ele>
        <time>2018-06-30T07:07:10Z</time>
      </trkpt>
      <trkpt lat="43.77639" lon="3.44743">
        <ele>775.92</ele>
        <time>2018-06-30T07:07:28Z</time>
      </trkpt>
      <trkpt lat="43.7763" lon="3.44734">
        <ele>775.92</ele>
        <time>2018-06-30T07:07:36Z</time>
      </trkpt>
      <trkpt lat="43.77617" lon="3.44723">
        <ele>777.36</ele>
        <time>2018-06-30T07:07:51Z</time>
      </trkpt>
      <trkpt lat="43.77604" lon="3.44702">
        <ele>777.84</ele>
        <time>2018-06-30T07:08:05Z</time>
      </trkpt>
      <trkpt lat="43.77593" lon="3.44677">
        <ele>778.81</ele>
        <time>2018-06-30T07:08:20Z</time>
      </trkpt>
      <trkpt lat="43.77586" lon="3.44641">
        <ele>779.29</ele>
        <time>2018-06-30T07:08:41Z</time>
      </trkpt>
      <trkpt lat="43.77584" lon="3.44617">
        <ele>779.29</ele>
        <time>2018-06-30T07:08:57Z</time>
      </trkpt>
      <trkpt lat="43.77584" lon="3.44583">
        <ele>780.25</ele>
        <time>2018-06-30T07:09:17Z</time>
      </trkpt>
      <trkpt lat="43.77585" lon="3.44554">
        <ele>780.73</ele>
        <time>2018-06-30T07:09:36Z</time>
      </trkpt>
      <trkpt lat="43.77585" lon="3.44538">
        <ele>780.73</ele>
        <time>2018-06-30T07:09:51Z</time>
      </trkpt>
      <trkpt lat="43.77587" lon="3.4451">
        <ele>781.69</ele>
        <time>2018-06-30T07:10:09Z</time>
      </trkpt>
      <trkpt lat="43.77588" lon="3.44481">
        <ele>782.17</ele>
        <time>2018-06-30T07:10:29Z</time>
      </trkpt>
      <trkpt lat="43.77588" lon="3.44457">
        <ele>782.17</ele>
        <time>2018-06-30T07:10:45Z</time>
      </trkpt>
      <trkpt lat="43.77592" lon="3.44421">
        <ele>782.65</ele>
        <time>2018-06-30T07:11:07Z</time>
      </trkpt>
      <trkpt lat="43.77591" lon="3.44396">
        <ele>780.73</ele>
        <time>2018-06-30T07:11:25Z</time>
      </trkpt>
      <trkpt lat="43.77588" lon="3.4439">
        <ele>780.25</ele>
        <time>2018-06-30T07:11:31Z</time>
      </trkpt>
      <trkpt lat="43.7759" lon="3.44362">
        <ele>779.29</ele>
        <time>2018-06-30T07:11:49Z</time>
      </trkpt>
      <trkpt lat="43.77587" lon="3.4433">
        <ele>777.36</ele>
        <time>2018-06-30T07:12:09Z</time>
      </trkpt>
      <trkpt lat="43.77583" lon="3.44317">
        <ele>777.36</ele>
        <time>2018-06-30T07:12:19Z</time>
      </trkpt>
      <trkpt lat="43.77587" lon="3.44291">
        <ele>776.4</ele>
        <time>2018-06-30T07:12:36Z</time>
      </trkpt>
      <trkpt lat="43.77584" lon="3.44268">
        <ele>775.92</ele>
        <time>2018-06-30T07:12:52Z</time>
      </trkpt>
      <trkpt lat="43.77579" lon="3.44248">
        <ele>774.48</ele>
        <time>2018-06-30T07:13:06Z</time>
      </trkpt>
      <trkpt lat="43.77573" lon="3.44235">
        <ele>773.52</ele>
        <time>2018-06-30T07:13:20Z</time>
      </trkpt>
      <trkpt lat="43.7757" lon="3.44228">
        <ele>772.56</ele>
        <time>2018-06-30T07:13:33Z</time>
      </trkpt>
      <trkpt lat="43.77569" lon="3.44226">
        <ele>772.56</ele>
        <time>2018-06-30T07:14:00Z</time>
      </trkpt>
      <trkpt lat="43.77569" lon="3.44226">
        <ele>774</ele>
        <time>2018-06-30T07:14:02Z</time>
      </trkpt>
      <trkpt lat="43.77571" lon="3.44226">
        <ele>773.04</ele>
        <time>2018-06-30T07:14:20Z</time>
      </trkpt>
      <trkpt lat="43.77571" lon="3.44224">
        <ele>773.04</ele>
        <time>2018-06-30T07:14:42Z</time>
      </trkpt>
      <trkpt lat="43.7757" lon="3.44223">
        <ele>773.04</ele>
        <time>2018-06-30T07:15:15Z</time>
      </trkpt>
      <trkpt lat="43.7757" lon="3.44227">
        <ele>773.04</ele>
        <time>2018-06-30T07:15:37Z</time>
      </trkpt>
      <trkpt lat="43.77571" lon="3.44226">
        <ele>773.04</ele>
        <time>2018-06-30T07:16:02Z</time>
      </trkpt>
      <trkpt lat="43.7757" lon="3.44229">
        <ele>773.04</ele>
        <time>2018-06-30T07:16:22Z</time>
      </trkpt>
      <trkpt lat="43.7757" lon="3.44234">
        <ele>773.04</ele>
        <time>2018-06-30T07:16:39Z</time>
      </trkpt>
      <trkpt lat="43.77568" lon="3.44237">
        <ele>774.48</ele>
        <time>2018-06-30T07:16:54Z</time>
      </trkpt>
      <trkpt lat="43.77568" lon="3.44238">
        <ele>774.48</ele>
        <time>2018-06-30T07:16:55Z</time>
      </trkpt>
      <trkpt lat="43.77564" lon="3.44259">
        <ele>773.52</ele>
        <time>2018-06-30T07:17:12Z</time>
      </trkpt>
      <trkpt lat="43.77564" lon="3.44279">
        <ele>774.96</ele>
        <time>2018-06-30T07:17:26Z</time>
      </trkpt>
      <trkpt lat="43.77564" lon="3.44305">
        <ele>776.4</ele>
        <time>2018-06-30T07:17:44Z</time>
      </trkpt>
      <trkpt lat="43.77564" lon="3.44333">
        <ele>776.4</ele>
        <time>2018-06-30T07:18:02Z</time>
      </trkpt>
      <trkpt lat="43.77563" lon="3.44343">
        <ele>776.4</ele>
        <time>2018-06-30T07:18:09Z</time>
      </trkpt>
      <trkpt lat="43.77552" lon="3.44366">
        <ele>776.4</ele>
        <time>2018-06-30T07:18:24Z</time>
      </trkpt>
      <trkpt lat="43.77544" lon="3.44388">
        <ele>776.4</ele>
        <time>2018-06-30T07:18:40Z</time>
      </trkpt>
      <trkpt lat="43.7754" lon="3.44408">
        <ele>776.88</ele>
        <time>2018-06-30T07:18:55Z</time>
      </trkpt>
      <trkpt lat="43.77532" lon="3.44423">
        <ele>776.88</ele>
        <time>2018-06-30T07:19:11Z</time>
      </trkpt>
      <trkpt lat="43.77526" lon="3.4444">
        <ele>774.96</ele>
        <time>2018-06-30T07:19:28Z</time>
      </trkpt>
      <trkpt lat="43.77523" lon="3.4445">
        <ele>775.44</ele>
        <time>2018-06-30T07:19:36Z</time>
      </trkpt>
      <trkpt lat="43.77527" lon="3.44477">
        <ele>775.44</ele>
        <time>2018-06-30T07:19:55Z</time>
      </trkpt>
      <trkpt lat="43.77522" lon="3.44487">
        <ele>774.48</ele>
        <time>2018-06-30T07:20:08Z</time>
      </trkpt>
      <trkpt lat="43.77525" lon="3.4451">
        <ele>774.48</ele>
        <time>2018-06-30T07:20:26Z</time>
      </trkpt>
      <trkpt lat="43.77523" lon="3.44534">
        <ele>774</ele>
        <time>2018-06-30T07:20:41Z</time>
      </trkpt>
      <trkpt lat="43.77516" lon="3.44558">
        <ele>773.04</ele>
        <time>2018-06-30T07:20:57Z</time>
      </trkpt>
      <trkpt lat="43.77515" lon="3.44584">
        <ele>773.04</ele>
        <time>2018-06-30T07:21:14Z</time>
      </trkpt>
      <trkpt lat="43.77519" lon="3.44611">
        <ele>773.04</ele>
        <time>2018-06-30T07:21:32Z</time>
      </trkpt>
      <trkpt lat="43.7752" lon="3.44624">
        <ele>774.48</ele>
        <time>2018-06-30T07:21:40Z</time>
      </trkpt>
      <trkpt lat="43.77515" lon="3.44649">
        <ele>775.92</ele>
        <time>2018-06-30T07:21:55Z</time>
      </trkpt>
      <trkpt lat="43.77502" lon="3.4467">
        <ele>775.92</ele>
        <time>2018-06-30T07:22:09Z</time>
      </trkpt>
      <trkpt lat="43.77494" lon="3.44689">
        <ele>776.4</ele>
        <time>2018-06-30T07:22:23Z</time>
      </trkpt>
      <trkpt lat="43.77489" lon="3.4471">
        <ele>776.4</ele>
        <time>2018-06-30T07:22:39Z</time>
      </trkpt>
      <trkpt lat="43.77483" lon="3.44735">
        <ele>776.4</ele>
        <time>2018-06-30T07:22:55Z</time>
      </trkpt>
      <trkpt lat="43.77473" lon="3.44759">
        <ele>776.88</ele>
        <time>2018-06-30T07:23:12Z</time>
      </trkpt>
      <trkpt lat="43.77472" lon="3.44762">
        <ele>776.4</ele>
        <time>2018-06-30T07:23:14Z</time>
      </trkpt>
      <trkpt lat="43.77467" lon="3.44775">
        <ele>775.44</ele>
        <time>2018-06-30T07:23:25Z</time>
      </trkpt>
      <trkpt lat="43.77462" lon="3.44801">
        <ele>774.48</ele>
        <time>2018-06-30T07:23:43Z</time>
      </trkpt>
      <trkpt lat="43.77462" lon="3.44805">
        <ele>774.48</ele>
        <time>2018-06-30T07:23:45Z</time>
      </trkpt>
      <trkpt lat="43.77463" lon="3.44819">
        <ele>774.48</ele>
        <time>2018-06-30T07:23:54Z</time>
      </trkpt>
      <trkpt lat="43.77468" lon="3.44844">
        <ele>774</ele>
        <time>2018-06-30T07:24:11Z</time>
      </trkpt>
      <trkpt lat="43.77477" lon="3.44866">
        <ele>772.56</ele>
        <time>2018-06-30T07:24:28Z</time>
      </trkpt>
      <trkpt lat="43.77479" lon="3.44881">
        <ele>771.6</ele>
        <time>2018-06-30T07:24:38Z</time>
      </trkpt>
      <trkpt lat="43.77476" lon="3.44893">
        <ele>770.63</ele>
        <time>2018-06-30T07:24:46Z</time>
      </trkpt>
      <trkpt lat="43.77476" lon="3.44901">
        <ele>769.67</ele>
        <time>2018-06-30T07:24:53Z</time>
      </trkpt>
      <trkpt lat="43.77475" lon="3.44901">
        <ele>768.71</ele>
        <time>2018-06-30T07:25:06Z</time>
      </trkpt>
      <trkpt lat="43.77476" lon="3.44895">
        <ele>770.63</ele>
        <time>2018-06-30T07:25:13Z</time>
      </trkpt>
      <trkpt lat="43.77474" lon="3.44888">
        <ele>771.11</ele>
        <time>2018-06-30T07:25:29Z</time>
      </trkpt>
      <trkpt lat="43.77473" lon="3.44888">
        <ele>771.11</ele>
        <time>2018-06-30T07:25:54Z</time>
      </trkpt>
      <trkpt lat="43.77474" lon="3.44896">
        <ele>770.15</ele>
        <time>2018-06-30T07:26:00Z</time>
      </trkpt>
      <trkpt lat="43.77472" lon="3.44908">
        <ele>769.19</ele>
        <time>2018-06-30T07:26:08Z</time>
      </trkpt>
      <trkpt lat="43.77472" lon="3.44911">
        <ele>768.71</ele>
        <time>2018-06-30T07:26:10Z</time>
      </trkpt>
      <trkpt lat="43.77468" lon="3.44926">
        <ele>767.27</ele>
        <time>2018-06-30T07:26:22Z</time>
      </trkpt>
      <trkpt lat="43.77468" lon="3.44938">
        <ele>766.31</ele>
        <time>2018-06-30T07:26:30Z</time>
      </trkpt>
      <trkpt lat="43.77462" lon="3.44957">
        <ele>764.87</ele>
        <time>2018-06-30T07:26:45Z</time>
      </trkpt>
      <trkpt lat="43.77461" lon="3.44964">
        <ele>764.39</ele>
        <time>2018-06-30T07:26:51Z</time>
      </trkpt>
      <trkpt lat="43.7746" lon="3.44972">
        <ele>763.42</ele>
        <time>2018-06-30T07:26:57Z</time>
      </trkpt>
      <trkpt lat="43.77459" lon="3.44975">
        <ele>762.94</ele>
        <time>2018-06-30T07:26:59Z</time>
      </trkpt>
      <trkpt lat="43.77453" lon="3.44993">
        <ele>761.02</ele>
        <time>2018-06-30T07:27:13Z</time>
      </trkpt>
      <trkpt lat="43.7745" lon="3.45002">
        <ele>760.54</ele>
        <time>2018-06-30T07:27:19Z</time>
      </trkpt>
      <trkpt lat="43.77447" lon="3.45022">
        <ele>758.62</ele>
        <time>2018-06-30T07:27:31Z</time>
      </trkpt>
      <trkpt lat="43.77439" lon="3.45052">
        <ele>757.66</ele>
        <time>2018-06-30T07:27:48Z</time>
      </trkpt>
      <trkpt lat="43.77429" lon="3.45075">
        <ele>759.58</ele>
        <time>2018-06-30T07:28:06Z</time>
      </trkpt>
      <trkpt lat="43.77419" lon="3.45099">
        <ele>759.58</ele>
        <time>2018-06-30T07:28:24Z</time>
      </trkpt>
      <trkpt lat="43.77416" lon="3.45118">
        <ele>760.54</ele>
        <time>2018-06-30T07:28:36Z</time>
      </trkpt>
      <trkpt lat="43.7741" lon="3.45145">
        <ele>761.02</ele>
        <time>2018-06-30T07:28:54Z</time>
      </trkpt>
      <trkpt lat="43.774" lon="3.45168">
        <ele>758.62</ele>
        <time>2018-06-30T07:29:11Z</time>
      </trkpt>
      <trkpt lat="43.77393" lon="3.45188">
        <ele>759.1</ele>
        <time>2018-06-30T07:29:26Z</time>
      </trkpt>
      <trkpt lat="43.77393" lon="3.4519">
        <ele>760.06</ele>
        <time>2018-06-30T07:29:28Z</time>
      </trkpt>
      <trkpt lat="43.77397" lon="3.45211">
        <ele>761.5</ele>
        <time>2018-06-30T07:29:43Z</time>
      </trkpt>
      <trkpt lat="43.77397" lon="3.45215">
        <ele>761.5</ele>
        <time>2018-06-30T07:29:46Z</time>
      </trkpt>
      <trkpt lat="43.77398" lon="3.45228">
        <ele>762.94</ele>
        <time>2018-06-30T07:29:56Z</time>
      </trkpt>
      <trkpt lat="43.77401" lon="3.45253">
        <ele>764.87</ele>
        <time>2018-06-30T07:30:14Z</time>
      </trkpt>
      <trkpt lat="43.77399" lon="3.4526">
        <ele>765.35</ele>
        <time>2018-06-30T07:30:18Z</time>
      </trkpt>
      <trkpt lat="43.77398" lon="3.45264">
        <ele>765.35</ele>
        <time>2018-06-30T07:30:20Z</time>
      </trkpt>
      <trkpt lat="43.77392" lon="3.45278">
        <ele>766.31</ele>
        <time>2018-06-30T07:30:30Z</time>
      </trkpt>
      <trkpt lat="43.77379" lon="3.45293">
        <ele>766.79</ele>
        <time>2018-06-30T07:30:45Z</time>
      </trkpt>
      <trkpt lat="43.77377" lon="3.45296">
        <ele>765.35</ele>
        <time>2018-06-30T07:30:47Z</time>
      </trkpt>
      <trkpt lat="43.7738" lon="3.4532">
        <ele>764.39</ele>
        <time>2018-06-30T07:31:05Z</time>
      </trkpt>
      <trkpt lat="43.7737" lon="3.45335">
        <ele>763.9</ele>
        <time>2018-06-30T07:31:19Z</time>
      </trkpt>
      <trkpt lat="43.77361" lon="3.45345">
        <ele>765.35</ele>
        <time>2018-06-30T07:31:29Z</time>
      </trkpt>
      <trkpt lat="43.77351" lon="3.45362">
        <ele>765.83</ele>
        <time>2018-06-30T07:31:47Z</time>
      </trkpt>
      <trkpt lat="43.77342" lon="3.45383">
        <ele>767.75</ele>
        <time>2018-06-30T07:32:05Z</time>
      </trkpt>
      <trkpt lat="43.77333" lon="3.45403">
        <ele>768.71</ele>
        <time>2018-06-30T07:32:22Z</time>
      </trkpt>
      <trkpt lat="43.7733" lon="3.45408">
        <ele>767.27</ele>
        <time>2018-06-30T07:32:26Z</time>
      </trkpt>
      <trkpt lat="43.77325" lon="3.45422">
        <ele>765.83</ele>
        <time>2018-06-30T07:32:37Z</time>
      </trkpt>
      <trkpt lat="43.77313" lon="3.45438">
        <ele>764.87</ele>
        <time>2018-06-30T07:32:51Z</time>
      </trkpt>
      <trkpt lat="43.77301" lon="3.45451">
        <ele>763.9</ele>
        <time>2018-06-30T07:33:08Z</time>
      </trkpt>
      <trkpt lat="43.77286" lon="3.45459">
        <ele>761.98</ele>
        <time>2018-06-30T07:33:24Z</time>
      </trkpt>
      <trkpt lat="43.7728" lon="3.4546">
        <ele>761.5</ele>
        <time>2018-06-30T07:33:30Z</time>
      </trkpt>
      <trkpt lat="43.77273" lon="3.45472">
        <ele>760.06</ele>
        <time>2018-06-30T07:33:43Z</time>
      </trkpt>
      <trkpt lat="43.77272" lon="3.45474">
        <ele>759.58</ele>
        <time>2018-06-30T07:33:46Z</time>
      </trkpt>
      <trkpt lat="43.7727" lon="3.4548">
        <ele>759.58</ele>
        <time>2018-06-30T07:33:51Z</time>
      </trkpt>
      <trkpt lat="43.77256" lon="3.45493">
        <ele>757.66</ele>
        <time>2018-06-30T07:34:08Z</time>
      </trkpt>
      <trkpt lat="43.77255" lon="3.45494">
        <ele>757.66</ele>
        <time>2018-06-30T07:34:09Z</time>
      </trkpt>
      <trkpt lat="43.77237" lon="3.45507">
        <ele>757.18</ele>
        <time>2018-06-30T07:34:28Z</time>
      </trkpt>
      <trkpt lat="43.7722" lon="3.45522">
        <ele>756.69</ele>
        <time>2018-06-30T07:34:46Z</time>
      </trkpt>
      <trkpt lat="43.77208" lon="3.45538">
        <ele>755.25</ele>
        <time>2018-06-30T07:35:01Z</time>
      </trkpt>
      <trkpt lat="43.77199" lon="3.45556">
        <ele>753.33</ele>
        <time>2018-06-30T07:35:17Z</time>
      </trkpt>
      <trkpt lat="43.77188" lon="3.45575">
        <ele>751.41</ele>
        <time>2018-06-30T07:35:34Z</time>
      </trkpt>
      <trkpt lat="43.77187" lon="3.45575">
        <ele>750.93</ele>
        <time>2018-06-30T07:35:35Z</time>
      </trkpt>
      <trkpt lat="43.77175" lon="3.45584">
        <ele>749.49</ele>
        <time>2018-06-30T07:35:47Z</time>
      </trkpt>
      <trkpt lat="43.77162" lon="3.45587">
        <ele>748.52</ele>
        <time>2018-06-30T07:36:03Z</time>
      </trkpt>
      <trkpt lat="43.77162" lon="3.45588">
        <ele>748.04</ele>
        <time>2018-06-30T07:36:20Z</time>
      </trkpt>
      <trkpt lat="43.77159" lon="3.45589">
        <ele>748.04</ele>
        <time>2018-06-30T07:36:40Z</time>
      </trkpt>
      <trkpt lat="43.77156" lon="3.45592">
        <ele>748.04</ele>
        <time>2018-06-30T07:37:04Z</time>
      </trkpt>
      <trkpt lat="43.77156" lon="3.4559">
        <ele>747.56</ele>
        <time>2018-06-30T07:37:31Z</time>
      </trkpt>
      <trkpt lat="43.77156" lon="3.45591">
        <ele>747.56</ele>
        <time>2018-06-30T07:37:52Z</time>
      </trkpt>
      <trkpt lat="43.77149" lon="3.45592">
        <ele>747.08</ele>
        <time>2018-06-30T07:38:09Z</time>
      </trkpt>
      <trkpt lat="43.77141" lon="3.45593">
        <ele>746.12</ele>
        <time>2018-06-30T07:38:18Z</time>
      </trkpt>
      <trkpt lat="43.77118" lon="3.45591">
        <ele>743.24</ele>
        <time>2018-06-30T07:38:39Z</time>
      </trkpt>
      <trkpt lat="43.77103" lon="3.45592">
        <ele>741.79</ele>
        <time>2018-06-30T07:38:53Z</time>
      </trkpt>
      <trkpt lat="43.77094" lon="3.45593">
        <ele>740.83</ele>
        <time>2018-06-30T07:39:02Z</time>
      </trkpt>
      <trkpt lat="43.7708" lon="3.45598">
        <ele>738.91</ele>
        <time>2018-06-30T07:39:18Z</time>
      </trkpt>
      <trkpt lat="43.77069" lon="3.45608">
        <ele>736.03</ele>
        <time>2018-06-30T07:39:34Z</time>
      </trkpt>
      <trkpt lat="43.7707" lon="3.45612">
        <ele>735.55</ele>
        <time>2018-06-30T07:39:37Z</time>
      </trkpt>
      <trkpt lat="43.77069" lon="3.45615">
        <ele>735.07</ele>
        <time>2018-06-30T07:39:41Z</time>
      </trkpt>
      <trkpt lat="43.77066" lon="3.45619">
        <ele>735.07</ele>
        <time>2018-06-30T07:39:45Z</time>
      </trkpt>
      <trkpt lat="43.77056" lon="3.45639">
        <ele>733.62</ele>
        <time>2018-06-30T07:40:00Z</time>
      </trkpt>
      <trkpt lat="43.77044" lon="3.45657">
        <ele>732.66</ele>
        <time>2018-06-30T07:40:16Z</time>
      </trkpt>
      <trkpt lat="43.77031" lon="3.45664">
        <ele>732.18</ele>
        <time>2018-06-30T07:40:28Z</time>
      </trkpt>
      <trkpt lat="43.77017" lon="3.45669">
        <ele>731.7</ele>
        <time>2018-06-30T07:40:44Z</time>
      </trkpt>
      <trkpt lat="43.77002" lon="3.45676">
        <ele>730.74</ele>
        <time>2018-06-30T07:40:56Z</time>
      </trkpt>
      <trkpt lat="43.76997" lon="3.45681">
        <ele>730.74</ele>
        <time>2018-06-30T07:41:00Z</time>
      </trkpt>
      <trkpt lat="43.7696" lon="3.45682">
        <ele>736.03</ele>
        <time>2018-06-30T07:41:37Z</time>
      </trkpt>
      <trkpt lat="43.76946" lon="3.45687">
        <ele>733.14</ele>
        <time>2018-06-30T07:41:58Z</time>
      </trkpt>
      <trkpt lat="43.76947" lon="3.45682">
        <ele>734.1</ele>
        <time>2018-06-30T07:42:25Z</time>
      </trkpt>
      <trkpt lat="43.76941" lon="3.45684">
        <ele>734.1</ele>
        <time>2018-06-30T07:42:42Z</time>
      </trkpt>
      <trkpt lat="43.76935" lon="3.45688">
        <ele>734.1</ele>
        <time>2018-06-30T07:42:57Z</time>
      </trkpt>
      <trkpt lat="43.7694" lon="3.45683">
        <ele>734.1</ele>
        <time>2018-06-30T07:43:10Z</time>
      </trkpt>
      <trkpt lat="43.76942" lon="3.45681">
        <ele>734.1</ele>
        <time>2018-06-30T07:43:13Z</time>
      </trkpt>
      <trkpt lat="43.76964" lon="3.45677">
        <ele>734.1</ele>
        <time>2018-06-30T07:43:31Z</time>
      </trkpt>
      <trkpt lat="43.76971" lon="3.45676">
        <ele>734.1</ele>
        <time>2018-06-30T07:43:37Z</time>
      </trkpt>
      <trkpt lat="43.76975" lon="3.45668">
        <ele>734.1</ele>
        <time>2018-06-30T07:43:43Z</time>
      </trkpt>
      <trkpt lat="43.76971" lon="3.45658">
        <ele>734.1</ele>
        <time>2018-06-30T07:43:52Z</time>
      </trkpt>
      <trkpt lat="43.76968" lon="3.45658">
        <ele>734.1</ele>
        <time>2018-06-30T07:44:09Z</time>
      </trkpt>
      <trkpt lat="43.76969" lon="3.45659">
        <ele>734.1</ele>
        <time>2018-06-30T07:44:16Z</time>
      </trkpt>
      <trkpt lat="43.76973" lon="3.45667">
        <ele>734.1</ele>
        <time>2018-06-30T07:44:23Z</time>
      </trkpt>
      <trkpt lat="43.76973" lon="3.45674">
        <ele>734.1</ele>
        <time>2018-06-30T07:44:27Z</time>
      </trkpt>
      <trkpt lat="43.76954" lon="3.45682">
        <ele>734.1</ele>
        <time>2018-06-30T07:44:45Z</time>
      </trkpt>
      <trkpt lat="43.7694" lon="3.45686">
        <ele>734.1</ele>
        <time>2018-06-30T07:45:01Z</time>
      </trkpt>
      <trkpt lat="43.76931" lon="3.45688">
        <ele>734.1</ele>
        <time>2018-06-30T07:45:17Z</time>
      </trkpt>
      <trkpt lat="43.7691" lon="3.45704">
        <ele>734.1</ele>
        <time>2018-06-30T07:45:35Z</time>
      </trkpt>
      <trkpt lat="43.76895" lon="3.45721">
        <ele>734.1</ele>
        <time>2018-06-30T07:45:51Z</time>
      </trkpt>
      <trkpt lat="43.76885" lon="3.45739">
        <ele>734.1</ele>
        <time>2018-06-30T07:46:09Z</time>
      </trkpt>
      <trkpt lat="43.76884" lon="3.45746">
        <ele>734.1</ele>
        <time>2018-06-30T07:46:18Z</time>
      </trkpt>
      <trkpt lat="43.76882" lon="3.45743">
        <ele>734.1</ele>
        <time>2018-06-30T07:46:21Z</time>
      </trkpt>
      <trkpt lat="43.76877" lon="3.45743">
        <ele>734.1</ele>
        <time>2018-06-30T07:46:26Z</time>
      </trkpt>
      <trkpt lat="43.76868" lon="3.45751">
        <ele>734.1</ele>
        <time>2018-06-30T07:46:40Z</time>
      </trkpt>
      <trkpt lat="43.76866" lon="3.45756">
        <ele>734.1</ele>
        <time>2018-06-30T07:46:45Z</time>
      </trkpt>
      <trkpt lat="43.76862" lon="3.45761">
        <ele>732.66</ele>
        <time>2018-06-30T07:46:50Z</time>
      </trkpt>
      <trkpt lat="43.76861" lon="3.45765">
        <ele>732.18</ele>
        <time>2018-06-30T07:46:54Z</time>
      </trkpt>
      <trkpt lat="43.7686" lon="3.45773">
        <ele>731.22</ele>
        <time>2018-06-30T07:47:00Z</time>
      </trkpt>
      <trkpt lat="43.7686" lon="3.45796">
        <ele>730.74</ele>
        <time>2018-06-30T07:47:16Z</time>
      </trkpt>
      <trkpt lat="43.76867" lon="3.45818">
        <ele>728.82</ele>
        <time>2018-06-30T07:47:32Z</time>
      </trkpt>
      <trkpt lat="43.76883" lon="3.45826">
        <ele>728.82</ele>
        <time>2018-06-30T07:47:48Z</time>
      </trkpt>
      <trkpt lat="43.76887" lon="3.45847">
        <ele>728.34</ele>
        <time>2018-06-30T07:48:04Z</time>
      </trkpt>
      <trkpt lat="43.76881" lon="3.4586">
        <ele>728.34</ele>
        <time>2018-06-30T07:48:21Z</time>
      </trkpt>
      <trkpt lat="43.76875" lon="3.45876">
        <ele>727.37</ele>
        <time>2018-06-30T07:48:34Z</time>
      </trkpt>
      <trkpt lat="43.76874" lon="3.45889">
        <ele>726.41</ele>
        <time>2018-06-30T07:48:44Z</time>
      </trkpt>
      <trkpt lat="43.76885" lon="3.45898">
        <ele>724.01</ele>
        <time>2018-06-30T07:49:01Z</time>
      </trkpt>
      <trkpt lat="43.76891" lon="3.459">
        <ele>723.05</ele>
        <time>2018-06-30T07:49:07Z</time>
      </trkpt>
      <trkpt lat="43.76895" lon="3.45904">
        <ele>721.61</ele>
        <time>2018-06-30T07:49:11Z</time>
      </trkpt>
      <trkpt lat="43.76906" lon="3.45914">
        <ele>718.72</ele>
        <time>2018-06-30T07:49:25Z</time>
      </trkpt>
      <trkpt lat="43.76917" lon="3.45937">
        <ele>716.32</ele>
        <time>2018-06-30T07:49:41Z</time>
      </trkpt>
      <trkpt lat="43.76928" lon="3.45945">
        <ele>715.36</ele>
        <time>2018-06-30T07:49:54Z</time>
      </trkpt>
      <trkpt lat="43.76931" lon="3.45946">
        <ele>716.8</ele>
        <time>2018-06-30T07:49:57Z</time>
      </trkpt>
      <trkpt lat="43.76936" lon="3.45953">
        <ele>717.28</ele>
        <time>2018-06-30T07:50:03Z</time>
      </trkpt>
      <trkpt lat="43.76934" lon="3.45969">
        <ele>715.84</ele>
        <time>2018-06-30T07:50:12Z</time>
      </trkpt>
      <trkpt lat="43.76926" lon="3.45975">
        <ele>713.92</ele>
        <time>2018-06-30T07:50:22Z</time>
      </trkpt>
      <trkpt lat="43.7692" lon="3.45993">
        <ele>712.47</ele>
        <time>2018-06-30T07:50:34Z</time>
      </trkpt>
      <trkpt lat="43.76911" lon="3.46021">
        <ele>711.51</ele>
        <time>2018-06-30T07:50:52Z</time>
      </trkpt>
      <trkpt lat="43.76909" lon="3.46045">
        <ele>711.03</ele>
        <time>2018-06-30T07:51:10Z</time>
      </trkpt>
      <trkpt lat="43.76919" lon="3.46061">
        <ele>711.03</ele>
        <time>2018-06-30T07:51:25Z</time>
      </trkpt>
      <trkpt lat="43.76927" lon="3.46066">
        <ele>711.99</ele>
        <time>2018-06-30T07:51:34Z</time>
      </trkpt>
      <trkpt lat="43.76946" lon="3.4609">
        <ele>711.99</ele>
        <time>2018-06-30T07:51:55Z</time>
      </trkpt>
      <trkpt lat="43.76956" lon="3.4611">
        <ele>712.95</ele>
        <time>2018-06-30T07:52:10Z</time>
      </trkpt>
      <trkpt lat="43.76974" lon="3.46127">
        <ele>711.51</ele>
        <time>2018-06-30T07:52:27Z</time>
      </trkpt>
      <trkpt lat="43.76975" lon="3.46129">
        <ele>711.51</ele>
        <time>2018-06-30T07:52:28Z</time>
      </trkpt>
      <trkpt lat="43.76987" lon="3.46145">
        <ele>711.51</ele>
        <time>2018-06-30T07:52:44Z</time>
      </trkpt>
      <trkpt lat="43.76999" lon="3.46172">
        <ele>709.11</ele>
        <time>2018-06-30T07:53:02Z</time>
      </trkpt>
      <trkpt lat="43.77014" lon="3.4619">
        <ele>707.67</ele>
        <time>2018-06-30T07:53:19Z</time>
      </trkpt>
      <trkpt lat="43.77019" lon="3.46201">
        <ele>706.71</ele>
        <time>2018-06-30T07:53:27Z</time>
      </trkpt>
      <trkpt lat="43.7701" lon="3.4622">
        <ele>704.78</ele>
        <time>2018-06-30T07:53:42Z</time>
      </trkpt>
      <trkpt lat="43.77007" lon="3.46226">
        <ele>703.82</ele>
        <time>2018-06-30T07:53:47Z</time>
      </trkpt>
      <trkpt lat="43.77003" lon="3.46244">
        <ele>701.9</ele>
        <time>2018-06-30T07:54:01Z</time>
      </trkpt>
      <trkpt lat="43.76992" lon="3.46264">
        <ele>699.98</ele>
        <time>2018-06-30T07:54:17Z</time>
      </trkpt>
      <trkpt lat="43.76991" lon="3.46265">
        <ele>699.98</ele>
        <time>2018-06-30T07:54:18Z</time>
      </trkpt>
      <trkpt lat="43.76975" lon="3.46257">
        <ele>699.98</ele>
        <time>2018-06-30T07:54:37Z</time>
      </trkpt>
      <trkpt lat="43.76971" lon="3.46256">
        <ele>699.98</ele>
        <time>2018-06-30T07:54:45Z</time>
      </trkpt>
      <trkpt lat="43.76966" lon="3.46258">
        <ele>701.42</ele>
        <time>2018-06-30T07:54:49Z</time>
      </trkpt>
      <trkpt lat="43.76958" lon="3.46252">
        <ele>700.46</ele>
        <time>2018-06-30T07:54:58Z</time>
      </trkpt>
      <trkpt lat="43.76957" lon="3.4625">
        <ele>700.46</ele>
        <time>2018-06-30T07:55:00Z</time>
      </trkpt>
      <trkpt lat="43.76952" lon="3.46246">
        <ele>700.46</ele>
        <time>2018-06-30T07:55:05Z</time>
      </trkpt>
      <trkpt lat="43.76934" lon="3.46228">
        <ele>702.38</ele>
        <time>2018-06-30T07:55:25Z</time>
      </trkpt>
      <trkpt lat="43.76934" lon="3.46225">
        <ele>702.38</ele>
        <time>2018-06-30T07:55:27Z</time>
      </trkpt>
      <trkpt lat="43.76925" lon="3.4622">
        <ele>702.38</ele>
        <time>2018-06-30T07:55:36Z</time>
      </trkpt>
      <trkpt lat="43.76918" lon="3.46223">
        <ele>700.94</ele>
        <time>2018-06-30T07:55:43Z</time>
      </trkpt>
      <trkpt lat="43.76905" lon="3.46228">
        <ele>698.05</ele>
        <time>2018-06-30T07:55:57Z</time>
      </trkpt>
      <trkpt lat="43.76888" lon="3.46236">
        <ele>697.09</ele>
        <time>2018-06-30T07:56:12Z</time>
      </trkpt>
      <trkpt lat="43.76871" lon="3.46238">
        <ele>696.61</ele>
        <time>2018-06-30T07:56:29Z</time>
      </trkpt>
      <trkpt lat="43.76854" lon="3.46242">
        <ele>695.17</ele>
        <time>2018-06-30T07:56:44Z</time>
      </trkpt>
      <trkpt lat="43.76845" lon="3.46256">
        <ele>694.21</ele>
        <time>2018-06-30T07:56:57Z</time>
      </trkpt>
      <trkpt lat="43.7684" lon="3.4626">
        <ele>694.21</ele>
        <time>2018-06-30T07:57:02Z</time>
      </trkpt>
      <trkpt lat="43.76824" lon="3.46265">
        <ele>693.73</ele>
        <time>2018-06-30T07:57:17Z</time>
      </trkpt>
      <trkpt lat="43.76825" lon="3.46288">
        <ele>693.73</ele>
        <time>2018-06-30T07:57:33Z</time>
      </trkpt>
      <trkpt lat="43.76828" lon="3.46297">
        <ele>693.25</ele>
        <time>2018-06-30T07:57:39Z</time>
      </trkpt>
      <trkpt lat="43.76844" lon="3.46318">
        <ele>692.29</ele>
        <time>2018-06-30T07:57:59Z</time>
      </trkpt>
      <trkpt lat="43.76858" lon="3.4633">
        <ele>692.29</ele>
        <time>2018-06-30T07:58:14Z</time>
      </trkpt>
      <trkpt lat="43.76866" lon="3.46339">
        <ele>692.29</ele>
        <time>2018-06-30T07:58:22Z</time>
      </trkpt>
      <trkpt lat="43.76873" lon="3.4636">
        <ele>690.84</ele>
        <time>2018-06-30T07:58:38Z</time>
      </trkpt>
      <trkpt lat="43.76876" lon="3.46396">
        <ele>689.4</ele>
        <time>2018-06-30T07:58:58Z</time>
      </trkpt>
      <trkpt lat="43.76884" lon="3.46423">
        <ele>688.44</ele>
        <time>2018-06-30T07:59:16Z</time>
      </trkpt>
      <trkpt lat="43.76893" lon="3.46447">
        <ele>687.96</ele>
        <time>2018-06-30T07:59:33Z</time>
      </trkpt>
      <trkpt lat="43.76897" lon="3.4648">
        <ele>687.96</ele>
        <time>2018-06-30T07:59:53Z</time>
      </trkpt>
      <trkpt lat="43.76889" lon="3.46499">
        <ele>688.92</ele>
        <time>2018-06-30T08:00:07Z</time>
      </trkpt>
      <trkpt lat="43.76865" lon="3.46498">
        <ele>688.92</ele>
        <time>2018-06-30T08:00:27Z</time>
      </trkpt>
      <trkpt lat="43.76849" lon="3.46497">
        <ele>689.4</ele>
        <time>2018-06-30T08:00:42Z</time>
      </trkpt>
      <trkpt lat="43.76844" lon="3.46497">
        <ele>690.84</ele>
        <time>2018-06-30T08:00:49Z</time>
      </trkpt>
      <trkpt lat="43.76822" lon="3.46494">
        <ele>690.84</ele>
        <time>2018-06-30T08:01:08Z</time>
      </trkpt>
      <trkpt lat="43.76819" lon="3.46493">
        <ele>689.88</ele>
        <time>2018-06-30T08:01:16Z</time>
      </trkpt>
      <trkpt lat="43.76819" lon="3.46492">
        <ele>690.84</ele>
        <time>2018-06-30T08:01:42Z</time>
      </trkpt>
      <trkpt lat="43.76817" lon="3.46491">
        <ele>689.4</ele>
        <time>2018-06-30T08:01:55Z</time>
      </trkpt>
      <trkpt lat="43.76818" lon="3.4649">
        <ele>689.4</ele>
        <time>2018-06-30T08:02:11Z</time>
      </trkpt>
      <trkpt lat="43.76818" lon="3.46491">
        <ele>689.4</ele>
        <time>2018-06-30T08:02:43Z</time>
      </trkpt>
      <trkpt lat="43.7682" lon="3.46492">
        <ele>689.4</ele>
        <time>2018-06-30T08:03:15Z</time>
      </trkpt>
      <trkpt lat="43.76817" lon="3.46492">
        <ele>689.4</ele>
        <time>2018-06-30T08:03:52Z</time>
      </trkpt>
      <trkpt lat="43.76817" lon="3.46492">
        <ele>690.84</ele>
        <time>2018-06-30T08:04:21Z</time>
      </trkpt>
      <trkpt lat="43.76818" lon="3.4649">
        <ele>690.84</ele>
        <time>2018-06-30T08:04:42Z</time>
      </trkpt>
      <trkpt lat="43.76805" lon="3.46498">
        <ele>690.84</ele>
        <time>2018-06-30T08:05:00Z</time>
      </trkpt>
      <trkpt lat="43.76785" lon="3.46506">
        <ele>690.84</ele>
        <time>2018-06-30T08:05:18Z</time>
      </trkpt>
      <trkpt lat="43.76785" lon="3.46533">
        <ele>692.77</ele>
        <time>2018-06-30T08:05:37Z</time>
      </trkpt>
      <trkpt lat="43.76785" lon="3.4656">
        <ele>693.73</ele>
        <time>2018-06-30T08:05:54Z</time>
      </trkpt>
      <trkpt lat="43.76775" lon="3.46579">
        <ele>696.61</ele>
        <time>2018-06-30T08:06:09Z</time>
      </trkpt>
      <trkpt lat="43.76771" lon="3.46585">
        <ele>696.13</ele>
        <time>2018-06-30T08:06:14Z</time>
      </trkpt>
      <trkpt lat="43.7677" lon="3.46603">
        <ele>697.57</ele>
        <time>2018-06-30T08:06:29Z</time>
      </trkpt>
      <trkpt lat="43.76764" lon="3.46614">
        <ele>699.02</ele>
        <time>2018-06-30T08:06:43Z</time>
      </trkpt>
      <trkpt lat="43.76764" lon="3.46613">
        <ele>699.02</ele>
        <time>2018-06-30T08:07:02Z</time>
      </trkpt>
      <trkpt lat="43.76764" lon="3.46611">
        <ele>699.02</ele>
        <time>2018-06-30T08:07:12Z</time>
      </trkpt>
      <trkpt lat="43.76749" lon="3.46625">
        <ele>699.98</ele>
        <time>2018-06-30T08:07:29Z</time>
      </trkpt>
      <trkpt lat="43.76729" lon="3.4663">
        <ele>700.46</ele>
        <time>2018-06-30T08:07:47Z</time>
      </trkpt>
      <trkpt lat="43.76709" lon="3.46635">
        <ele>701.42</ele>
        <time>2018-06-30T08:08:04Z</time>
      </trkpt>
      <trkpt lat="43.7669" lon="3.4664">
        <ele>702.38</ele>
        <time>2018-06-30T08:08:22Z</time>
      </trkpt>
      <trkpt lat="43.7668" lon="3.46644">
        <ele>703.34</ele>
        <time>2018-06-30T08:08:37Z</time>
      </trkpt>
      <trkpt lat="43.7666" lon="3.46648">
        <ele>704.3</ele>
        <time>2018-06-30T08:08:55Z</time>
      </trkpt>
      <trkpt lat="43.76655" lon="3.46647">
        <ele>704.78</ele>
        <time>2018-06-30T08:09:09Z</time>
      </trkpt>
      <trkpt lat="43.76648" lon="3.46648">
        <ele>704.78</ele>
        <time>2018-06-30T08:09:33Z</time>
      </trkpt>
      <trkpt lat="43.76627" lon="3.46649">
        <ele>705.26</ele>
        <time>2018-06-30T08:09:51Z</time>
      </trkpt>
      <trkpt lat="43.76606" lon="3.46653">
        <ele>705.26</ele>
        <time>2018-06-30T08:10:09Z</time>
      </trkpt>
      <trkpt lat="43.76585" lon="3.46659">
        <ele>705.75</ele>
        <time>2018-06-30T08:10:27Z</time>
      </trkpt>
      <trkpt lat="43.76558" lon="3.4667">
        <ele>706.23</ele>
        <time>2018-06-30T08:10:52Z</time>
      </trkpt>
      <trkpt lat="43.76539" lon="3.46677">
        <ele>704.78</ele>
        <time>2018-06-30T08:11:10Z</time>
      </trkpt>
      <trkpt lat="43.76537" lon="3.4668">
        <ele>704.3</ele>
        <time>2018-06-30T08:11:14Z</time>
      </trkpt>
      <trkpt lat="43.76522" lon="3.46688">
        <ele>704.3</ele>
        <time>2018-06-30T08:11:28Z</time>
      </trkpt>
      <trkpt lat="43.76507" lon="3.46693">
        <ele>702.86</ele>
        <time>2018-06-30T08:11:46Z</time>
      </trkpt>
      <trkpt lat="43.76492" lon="3.467">
        <ele>702.38</ele>
        <time>2018-06-30T08:12:01Z</time>
      </trkpt>
      <trkpt lat="43.76471" lon="3.46704">
        <ele>700.94</ele>
        <time>2018-06-30T08:12:21Z</time>
      </trkpt>
      <trkpt lat="43.76462" lon="3.467">
        <ele>700.94</ele>
        <time>2018-06-30T08:12:30Z</time>
      </trkpt>
      <trkpt lat="43.76457" lon="3.46703">
        <ele>700.94</ele>
        <time>2018-06-30T08:12:36Z</time>
      </trkpt>
      <trkpt lat="43.76442" lon="3.46718">
        <ele>699.98</ele>
        <time>2018-06-30T08:12:54Z</time>
      </trkpt>
      <trkpt lat="43.76423" lon="3.46726">
        <ele>698.53</ele>
        <time>2018-06-30T08:13:11Z</time>
      </trkpt>
      <trkpt lat="43.76399" lon="3.46728">
        <ele>698.05</ele>
        <time>2018-06-30T08:13:31Z</time>
      </trkpt>
      <trkpt lat="43.76378" lon="3.46733">
        <ele>698.05</ele>
        <time>2018-06-30T08:13:50Z</time>
      </trkpt>
      <trkpt lat="43.76355" lon="3.4674">
        <ele>697.57</ele>
        <time>2018-06-30T08:14:10Z</time>
      </trkpt>
      <trkpt lat="43.76334" lon="3.46744">
        <ele>696.61</ele>
        <time>2018-06-30T08:14:28Z</time>
      </trkpt>
      <trkpt lat="43.76317" lon="3.4675">
        <ele>696.61</ele>
        <time>2018-06-30T08:14:43Z</time>
      </trkpt>
      <trkpt lat="43.76293" lon="3.46757">
        <ele>696.61</ele>
        <time>2018-06-30T08:15:03Z</time>
      </trkpt>
      <trkpt lat="43.76271" lon="3.46764">
        <ele>696.13</ele>
        <time>2018-06-30T08:15:21Z</time>
      </trkpt>
      <trkpt lat="43.76251" lon="3.46763">
        <ele>696.13</ele>
        <time>2018-06-30T08:15:38Z</time>
      </trkpt>
      <trkpt lat="43.76246" lon="3.46762">
        <ele>695.17</ele>
        <time>2018-06-30T08:15:43Z</time>
      </trkpt>
      <trkpt lat="43.76231" lon="3.46766">
        <ele>696.13</ele>
        <time>2018-06-30T08:16:01Z</time>
      </trkpt>
      <trkpt lat="43.76224" lon="3.46768">
        <ele>697.57</ele>
        <time>2018-06-30T08:16:08Z</time>
      </trkpt>
      <trkpt lat="43.76205" lon="3.46762">
        <ele>698.53</ele>
        <time>2018-06-30T08:16:26Z</time>
      </trkpt>
      <trkpt lat="43.76188" lon="3.46757">
        <ele>698.53</ele>
        <time>2018-06-30T08:16:41Z</time>
      </trkpt>
      <trkpt lat="43.76167" lon="3.46751">
        <ele>699.02</ele>
        <time>2018-06-30T08:16:59Z</time>
      </trkpt>
      <trkpt lat="43.76158" lon="3.46749">
        <ele>697.57</ele>
        <time>2018-06-30T08:17:07Z</time>
      </trkpt>
      <trkpt lat="43.7614" lon="3.46743">
        <ele>696.13</ele>
        <time>2018-06-30T08:17:23Z</time>
      </trkpt>
      <trkpt lat="43.76124" lon="3.46735">
        <ele>696.13</ele>
        <time>2018-06-30T08:17:37Z</time>
      </trkpt>
      <trkpt lat="43.76113" lon="3.46733">
        <ele>696.13</ele>
        <time>2018-06-30T08:17:48Z</time>
      </trkpt>
      <trkpt lat="43.76109" lon="3.46731">
        <ele>696.13</ele>
        <time>2018-06-30T08:17:52Z</time>
      </trkpt>
      <trkpt lat="43.76103" lon="3.46727">
        <ele>695.17</ele>
        <time>2018-06-30T08:17:58Z</time>
      </trkpt>
      <trkpt lat="43.76083" lon="3.46718">
        <ele>694.21</ele>
        <time>2018-06-30T08:18:17Z</time>
      </trkpt>
      <trkpt lat="43.76069" lon="3.46712">
        <ele>692.77</ele>
        <time>2018-06-30T08:18:33Z</time>
      </trkpt>
      <trkpt lat="43.76066" lon="3.46711">
        <ele>692.77</ele>
        <time>2018-06-30T08:18:36Z</time>
      </trkpt>
      <trkpt lat="43.76063" lon="3.4671">
        <ele>692.77</ele>
        <time>2018-06-30T08:18:39Z</time>
      </trkpt>
      <trkpt lat="43.76044" lon="3.46706">
        <ele>692.77</ele>
        <time>2018-06-30T08:18:56Z</time>
      </trkpt>
      <trkpt lat="43.76025" lon="3.46699">
        <ele>692.29</ele>
        <time>2018-06-30T08:19:11Z</time>
      </trkpt>
      <trkpt lat="43.76002" lon="3.46688">
        <ele>691.81</ele>
        <time>2018-06-30T08:19:29Z</time>
      </trkpt>
      <trkpt lat="43.75981" lon="3.46681">
        <ele>691.81</ele>
        <time>2018-06-30T08:19:47Z</time>
      </trkpt>
      <trkpt lat="43.75969" lon="3.46676">
        <ele>693.25</ele>
        <time>2018-06-30T08:19:57Z</time>
      </trkpt>
      <trkpt lat="43.75967" lon="3.46673">
        <ele>691.81</ele>
        <time>2018-06-30T08:19:59Z</time>
      </trkpt>
      <trkpt lat="43.75944" lon="3.46661">
        <ele>692.77</ele>
        <time>2018-06-30T08:20:19Z</time>
      </trkpt>
      <trkpt lat="43.75943" lon="3.46661">
        <ele>692.77</ele>
        <time>2018-06-30T08:20:20Z</time>
      </trkpt>
      <trkpt lat="43.75937" lon="3.4666">
        <ele>692.77</ele>
        <time>2018-06-30T08:20:25Z</time>
      </trkpt>
      <trkpt lat="43.75921" lon="3.46655">
        <ele>691.81</ele>
        <time>2018-06-30T08:20:38Z</time>
      </trkpt>
      <trkpt lat="43.75898" lon="3.46646">
        <ele>691.33</ele>
        <time>2018-06-30T08:20:57Z</time>
      </trkpt>
      <trkpt lat="43.75881" lon="3.46635">
        <ele>691.33</ele>
        <time>2018-06-30T08:21:14Z</time>
      </trkpt>
      <trkpt lat="43.75869" lon="3.46634">
        <ele>691.33</ele>
        <time>2018-06-30T08:21:28Z</time>
      </trkpt>
      <trkpt lat="43.75856" lon="3.46634">
        <ele>692.29</ele>
        <time>2018-06-30T08:21:43Z</time>
      </trkpt>
      <trkpt lat="43.7585" lon="3.46635">
        <ele>690.84</ele>
        <time>2018-06-30T08:21:48Z</time>
      </trkpt>
      <trkpt lat="43.75836" lon="3.46635">
        <ele>690.36</ele>
        <time>2018-06-30T08:22:02Z</time>
      </trkpt>
      <trkpt lat="43.75817" lon="3.46638">
        <ele>689.88</ele>
        <time>2018-06-30T08:22:19Z</time>
      </trkpt>
      <trkpt lat="43.75818" lon="3.46639">
        <ele>689.88</ele>
        <time>2018-06-30T08:22:20Z</time>
      </trkpt>
      <trkpt lat="43.75817" lon="3.46643">
        <ele>689.88</ele>
        <time>2018-06-30T08:22:39Z</time>
      </trkpt>
      <trkpt lat="43.75816" lon="3.46644">
        <ele>691.33</ele>
        <time>2018-06-30T08:22:48Z</time>
      </trkpt>
      <trkpt lat="43.75812" lon="3.46638">
        <ele>691.33</ele>
        <time>2018-06-30T08:23:12Z</time>
      </trkpt>
      <trkpt lat="43.75816" lon="3.46637">
        <ele>691.33</ele>
        <time>2018-06-30T08:23:36Z</time>
      </trkpt>
      <trkpt lat="43.75817" lon="3.46635">
        <ele>691.33</ele>
        <time>2018-06-30T08:23:54Z</time>
      </trkpt>
      <trkpt lat="43.75816" lon="3.46635">
        <ele>691.33</ele>
        <time>2018-06-30T08:24:23Z</time>
      </trkpt>
      <trkpt lat="43.75816" lon="3.46634">
        <ele>691.33</ele>
        <time>2018-06-30T08:24:48Z</time>
      </trkpt>
      <trkpt lat="43.75814" lon="3.46633">
        <ele>691.33</ele>
        <time>2018-06-30T08:25:20Z</time>
      </trkpt>
      <trkpt lat="43.75814" lon="3.46631">
        <ele>691.33</ele>
        <time>2018-06-30T08:25:49Z</time>
      </trkpt>
      <trkpt lat="43.75814" lon="3.46631">
        <ele>691.33</ele>
        <time>2018-06-30T08:26:18Z</time>
      </trkpt>
      <trkpt lat="43.75812" lon="3.46641">
        <ele>691.33</ele>
        <time>2018-06-30T08:26:32Z</time>
      </trkpt>
      <trkpt lat="43.75796" lon="3.46648">
        <ele>691.33</ele>
        <time>2018-06-30T08:26:47Z</time>
      </trkpt>
      <trkpt lat="43.7579" lon="3.46647">
        <ele>689.88</ele>
        <time>2018-06-30T08:26:52Z</time>
      </trkpt>
      <trkpt lat="43.75775" lon="3.46643">
        <ele>689.88</ele>
        <time>2018-06-30T08:27:09Z</time>
      </trkpt>
      <trkpt lat="43.75759" lon="3.46644">
        <ele>691.33</ele>
        <time>2018-06-30T08:27:23Z</time>
      </trkpt>
      <trkpt lat="43.75743" lon="3.46638">
        <ele>691.81</ele>
        <time>2018-06-30T08:27:37Z</time>
      </trkpt>
      <trkpt lat="43.75724" lon="3.46634">
        <ele>692.29</ele>
        <time>2018-06-30T08:27:55Z</time>
      </trkpt>
      <trkpt lat="43.75709" lon="3.46628">
        <ele>693.25</ele>
        <time>2018-06-30T08:28:10Z</time>
      </trkpt>
      <trkpt lat="43.757" lon="3.46618">
        <ele>693.25</ele>
        <time>2018-06-30T08:28:21Z</time>
      </trkpt>
      <trkpt lat="43.75697" lon="3.46609">
        <ele>693.25</ele>
        <time>2018-06-30T08:28:29Z</time>
      </trkpt>
      <trkpt lat="43.75679" lon="3.466">
        <ele>691.81</ele>
        <time>2018-06-30T08:28:47Z</time>
      </trkpt>
      <trkpt lat="43.75662" lon="3.4659">
        <ele>691.81</ele>
        <time>2018-06-30T08:29:04Z</time>
      </trkpt>
      <trkpt lat="43.75645" lon="3.46585">
        <ele>691.81</ele>
        <time>2018-06-30T08:29:20Z</time>
      </trkpt>
      <trkpt lat="43.75629" lon="3.46579">
        <ele>693.73</ele>
        <time>2018-06-30T08:29:35Z</time>
      </trkpt>
      <trkpt lat="43.75625" lon="3.46577">
        <ele>693.73</ele>
        <time>2018-06-30T08:29:39Z</time>
      </trkpt>
      <trkpt lat="43.75608" lon="3.46574">
        <ele>693.73</ele>
        <time>2018-06-30T08:29:56Z</time>
      </trkpt>
      <trkpt lat="43.75598" lon="3.46569">
        <ele>693.73</ele>
        <time>2018-06-30T08:30:09Z</time>
      </trkpt>
      <trkpt lat="43.7558" lon="3.46571">
        <ele>693.73</ele>
        <time>2018-06-30T08:30:26Z</time>
      </trkpt>
      <trkpt lat="43.75562" lon="3.46573">
        <ele>693.73</ele>
        <time>2018-06-30T08:30:44Z</time>
      </trkpt>
      <trkpt lat="43.75548" lon="3.46572">
        <ele>693.73</ele>
        <time>2018-06-30T08:30:58Z</time>
      </trkpt>
      <trkpt lat="43.75533" lon="3.46574">
        <ele>694.69</ele>
        <time>2018-06-30T08:31:14Z</time>
      </trkpt>
      <trkpt lat="43.75519" lon="3.4658">
        <ele>694.69</ele>
        <time>2018-06-30T08:31:24Z</time>
      </trkpt>
      <trkpt lat="43.75504" lon="3.46597">
        <ele>695.65</ele>
        <time>2018-06-30T08:31:42Z</time>
      </trkpt>
      <trkpt lat="43.75489" lon="3.46611">
        <ele>696.13</ele>
        <time>2018-06-30T08:31:58Z</time>
      </trkpt>
      <trkpt lat="43.75473" lon="3.46627">
        <ele>697.09</ele>
        <time>2018-06-30T08:32:14Z</time>
      </trkpt>
      <trkpt lat="43.75472" lon="3.46628">
        <ele>697.09</ele>
        <time>2018-06-30T08:32:15Z</time>
      </trkpt>
      <trkpt lat="43.75456" lon="3.46653">
        <ele>697.09</ele>
        <time>2018-06-30T08:32:35Z</time>
      </trkpt>
      <trkpt lat="43.75453" lon="3.46683">
        <ele>696.61</ele>
        <time>2018-06-30T08:32:54Z</time>
      </trkpt>
      <trkpt lat="43.75453" lon="3.46686">
        <ele>696.61</ele>
        <time>2018-06-30T08:32:57Z</time>
      </trkpt>
      <trkpt lat="43.75461" lon="3.467">
        <ele>696.61</ele>
        <time>2018-06-30T08:33:09Z</time>
      </trkpt>
      <trkpt lat="43.75458" lon="3.46709">
        <ele>695.17</ele>
        <time>2018-06-30T08:33:14Z</time>
      </trkpt>
      <trkpt lat="43.7545" lon="3.46718">
        <ele>694.21</ele>
        <time>2018-06-30T08:33:23Z</time>
      </trkpt>
      <trkpt lat="43.75446" lon="3.46722">
        <ele>694.21</ele>
        <time>2018-06-30T08:33:27Z</time>
      </trkpt>
      <trkpt lat="43.75426" lon="3.46737">
        <ele>694.21</ele>
        <time>2018-06-30T08:33:47Z</time>
      </trkpt>
      <trkpt lat="43.75425" lon="3.46739">
        <ele>694.21</ele>
        <time>2018-06-30T08:33:49Z</time>
      </trkpt>
      <trkpt lat="43.75419" lon="3.46767">
        <ele>692.77</ele>
        <time>2018-06-30T08:34:09Z</time>
      </trkpt>
      <trkpt lat="43.75405" lon="3.46795">
        <ele>691.33</ele>
        <time>2018-06-30T08:34:28Z</time>
      </trkpt>
      <trkpt lat="43.75389" lon="3.46812">
        <ele>690.36</ele>
        <time>2018-06-30T08:34:45Z</time>
      </trkpt>
      <trkpt lat="43.7537" lon="3.4683">
        <ele>689.4</ele>
        <time>2018-06-30T08:35:05Z</time>
      </trkpt>
      <trkpt lat="43.75365" lon="3.46838">
        <ele>689.4</ele>
        <time>2018-06-30T08:35:12Z</time>
      </trkpt>
      <trkpt lat="43.75356" lon="3.46865">
        <ele>688.44</ele>
        <time>2018-06-30T08:35:31Z</time>
      </trkpt>
      <trkpt lat="43.75343" lon="3.4689">
        <ele>687.96</ele>
        <time>2018-06-30T08:35:48Z</time>
      </trkpt>
      <trkpt lat="43.75329" lon="3.46917">
        <ele>687.96</ele>
        <time>2018-06-30T08:36:08Z</time>
      </trkpt>
      <trkpt lat="43.75316" lon="3.46941">
        <ele>687.96</ele>
        <time>2018-06-30T08:36:27Z</time>
      </trkpt>
      <trkpt lat="43.75308" lon="3.46955">
        <ele>689.4</ele>
        <time>2018-06-30T08:36:42Z</time>
      </trkpt>
      <trkpt lat="43.75304" lon="3.46962">
        <ele>687.96</ele>
        <time>2018-06-30T08:36:57Z</time>
      </trkpt>
      <trkpt lat="43.75301" lon="3.46968">
        <ele>687.96</ele>
        <time>2018-06-30T08:37:05Z</time>
      </trkpt>
      <trkpt lat="43.753" lon="3.4698">
        <ele>687.96</ele>
        <time>2018-06-30T08:37:21Z</time>
      </trkpt>
      <trkpt lat="43.753" lon="3.46989">
        <ele>687.96</ele>
        <time>2018-06-30T08:37:45Z</time>
      </trkpt>
      <trkpt lat="43.753" lon="3.4699">
        <ele>687.96</ele>
        <time>2018-06-30T08:37:46Z</time>
      </trkpt>
      <trkpt lat="43.75293" lon="3.47016">
        <ele>687.48</ele>
        <time>2018-06-30T08:38:05Z</time>
      </trkpt>
      <trkpt lat="43.75287" lon="3.47044">
        <ele>686.52</ele>
        <time>2018-06-30T08:38:24Z</time>
      </trkpt>
      <trkpt lat="43.75283" lon="3.47068">
        <ele>686.52</ele>
        <time>2018-06-30T08:38:40Z</time>
      </trkpt>
      <trkpt lat="43.7528" lon="3.47084">
        <ele>686.04</ele>
        <time>2018-06-30T08:38:52Z</time>
      </trkpt>
      <trkpt lat="43.75277" lon="3.47091">
        <ele>686.04</ele>
        <time>2018-06-30T08:38:57Z</time>
      </trkpt>
      <trkpt lat="43.75274" lon="3.47115">
        <ele>686.04</ele>
        <time>2018-06-30T08:39:14Z</time>
      </trkpt>
      <trkpt lat="43.75272" lon="3.47121">
        <ele>685.08</ele>
        <time>2018-06-30T08:39:21Z</time>
      </trkpt>
      <trkpt lat="43.75271" lon="3.47147">
        <ele>685.08</ele>
        <time>2018-06-30T08:39:38Z</time>
      </trkpt>
      <trkpt lat="43.75268" lon="3.47178">
        <ele>684.12</ele>
        <time>2018-06-30T08:39:58Z</time>
      </trkpt>
      <trkpt lat="43.75265" lon="3.47208">
        <ele>683.15</ele>
        <time>2018-06-30T08:40:17Z</time>
      </trkpt>
      <trkpt lat="43.75264" lon="3.47233">
        <ele>683.15</ele>
        <time>2018-06-30T08:40:34Z</time>
      </trkpt>
      <trkpt lat="43.75263" lon="3.47261">
        <ele>682.67</ele>
        <time>2018-06-30T08:40:52Z</time>
      </trkpt>
      <trkpt lat="43.75265" lon="3.47287">
        <ele>682.67</ele>
        <time>2018-06-30T08:41:09Z</time>
      </trkpt>
      <trkpt lat="43.75266" lon="3.47314">
        <ele>682.19</ele>
        <time>2018-06-30T08:41:26Z</time>
      </trkpt>
      <trkpt lat="43.75264" lon="3.47341">
        <ele>682.19</ele>
        <time>2018-06-30T08:41:43Z</time>
      </trkpt>
      <trkpt lat="43.75262" lon="3.47368">
        <ele>682.19</ele>
        <time>2018-06-30T08:42:01Z</time>
      </trkpt>
      <trkpt lat="43.75263" lon="3.47399">
        <ele>681.23</ele>
        <time>2018-06-30T08:42:20Z</time>
      </trkpt>
      <trkpt lat="43.75265" lon="3.47431">
        <ele>680.75</ele>
        <time>2018-06-30T08:42:40Z</time>
      </trkpt>
      <trkpt lat="43.75266" lon="3.47462">
        <ele>680.75</ele>
        <time>2018-06-30T08:43:00Z</time>
      </trkpt>
      <trkpt lat="43.75267" lon="3.47493">
        <ele>679.79</ele>
        <time>2018-06-30T08:43:19Z</time>
      </trkpt>
      <trkpt lat="43.7527" lon="3.47515">
        <ele>679.31</ele>
        <time>2018-06-30T08:43:34Z</time>
      </trkpt>
      <trkpt lat="43.75273" lon="3.47529">
        <ele>679.31</ele>
        <time>2018-06-30T08:43:45Z</time>
      </trkpt>
      <trkpt lat="43.75274" lon="3.47556">
        <ele>678.35</ele>
        <time>2018-06-30T08:44:04Z</time>
      </trkpt>
      <trkpt lat="43.75273" lon="3.47578">
        <ele>677.39</ele>
        <time>2018-06-30T08:44:20Z</time>
      </trkpt>
      <trkpt lat="43.75271" lon="3.47611">
        <ele>676.91</ele>
        <time>2018-06-30T08:44:40Z</time>
      </trkpt>
      <trkpt lat="43.75272" lon="3.47641">
        <ele>676.91</ele>
        <time>2018-06-30T08:45:00Z</time>
      </trkpt>
      <trkpt lat="43.75275" lon="3.47666">
        <ele>678.35</ele>
        <time>2018-06-30T08:45:18Z</time>
      </trkpt>
      <trkpt lat="43.75276" lon="3.47674">
        <ele>678.35</ele>
        <time>2018-06-30T08:45:23Z</time>
      </trkpt>
      <trkpt lat="43.75281" lon="3.47702">
        <ele>678.35</ele>
        <time>2018-06-30T08:45:43Z</time>
      </trkpt>
      <trkpt lat="43.75282" lon="3.47715">
        <ele>678.35</ele>
        <time>2018-06-30T08:45:54Z</time>
      </trkpt>
      <trkpt lat="43.75283" lon="3.47742">
        <ele>678.35</ele>
        <time>2018-06-30T08:46:11Z</time>
      </trkpt>
      <trkpt lat="43.75286" lon="3.4776">
        <ele>676.42</ele>
        <time>2018-06-30T08:46:23Z</time>
      </trkpt>
      <trkpt lat="43.7529" lon="3.47784">
        <ele>676.42</ele>
        <time>2018-06-30T08:46:38Z</time>
      </trkpt>
      <trkpt lat="43.75295" lon="3.47811">
        <ele>675.46</ele>
        <time>2018-06-30T08:46:55Z</time>
      </trkpt>
      <trkpt lat="43.75301" lon="3.47839">
        <ele>675.46</ele>
        <time>2018-06-30T08:47:13Z</time>
      </trkpt>
      <trkpt lat="43.753" lon="3.47859">
        <ele>674.98</ele>
        <time>2018-06-30T08:47:30Z</time>
      </trkpt>
      <trkpt lat="43.75296" lon="3.47876">
        <ele>674.98</ele>
        <time>2018-06-30T08:47:45Z</time>
      </trkpt>
      <trkpt lat="43.75294" lon="3.47889">
        <ele>676.42</ele>
        <time>2018-06-30T08:47:58Z</time>
      </trkpt>
      <trkpt lat="43.75299" lon="3.47899">
        <ele>676.91</ele>
        <time>2018-06-30T08:48:11Z</time>
      </trkpt>
      <trkpt lat="43.75311" lon="3.47915">
        <ele>677.87</ele>
        <time>2018-06-30T08:48:28Z</time>
      </trkpt>
      <trkpt lat="43.75315" lon="3.47922">
        <ele>679.31</ele>
        <time>2018-06-30T08:48:35Z</time>
      </trkpt>
      <trkpt lat="43.75317" lon="3.47928">
        <ele>679.31</ele>
        <time>2018-06-30T08:48:40Z</time>
      </trkpt>
      <trkpt lat="43.75309" lon="3.4795">
        <ele>680.75</ele>
        <time>2018-06-30T08:48:58Z</time>
      </trkpt>
      <trkpt lat="43.75306" lon="3.47951">
        <ele>680.75</ele>
        <time>2018-06-30T08:49:01Z</time>
      </trkpt>
      <trkpt lat="43.75302" lon="3.47956">
        <ele>680.75</ele>
        <time>2018-06-30T08:49:06Z</time>
      </trkpt>
      <trkpt lat="43.75285" lon="3.47969">
        <ele>682.19</ele>
        <time>2018-06-30T08:49:24Z</time>
      </trkpt>
      <trkpt lat="43.75278" lon="3.47977">
        <ele>682.67</ele>
        <time>2018-06-30T08:49:37Z</time>
      </trkpt>
      <trkpt lat="43.75268" lon="3.47987">
        <ele>684.12</ele>
        <time>2018-06-30T08:49:52Z</time>
      </trkpt>
      <trkpt lat="43.75264" lon="3.47989">
        <ele>684.12</ele>
        <time>2018-06-30T08:49:57Z</time>
      </trkpt>
      <trkpt lat="43.75249" lon="3.47989">
        <ele>685.08</ele>
        <time>2018-06-30T08:50:12Z</time>
      </trkpt>
      <trkpt lat="43.75238" lon="3.47988">
        <ele>685.08</ele>
        <time>2018-06-30T08:50:23Z</time>
      </trkpt>
      <trkpt lat="43.75222" lon="3.47993">
        <ele>686.52</ele>
        <time>2018-06-30T08:50:39Z</time>
      </trkpt>
      <trkpt lat="43.75213" lon="3.47999">
        <ele>687</ele>
        <time>2018-06-30T08:50:52Z</time>
      </trkpt>
      <trkpt lat="43.75203" lon="3.48007">
        <ele>687.48</ele>
        <time>2018-06-30T08:51:03Z</time>
      </trkpt>
      <trkpt lat="43.75189" lon="3.48021">
        <ele>687.96</ele>
        <time>2018-06-30T08:51:21Z</time>
      </trkpt>
      <trkpt lat="43.75174" lon="3.48035">
        <ele>688.44</ele>
        <time>2018-06-30T08:51:39Z</time>
      </trkpt>
      <trkpt lat="43.75167" lon="3.48038">
        <ele>688.44</ele>
        <time>2018-06-30T08:51:51Z</time>
      </trkpt>
      <trkpt lat="43.75166" lon="3.48039">
        <ele>688.44</ele>
        <time>2018-06-30T08:52:18Z</time>
      </trkpt>
      <trkpt lat="43.75167" lon="3.48039">
        <ele>688.44</ele>
        <time>2018-06-30T08:52:44Z</time>
      </trkpt>
      <trkpt lat="43.75167" lon="3.48039">
        <ele>688.92</ele>
        <time>2018-06-30T08:53:17Z</time>
      </trkpt>
      <trkpt lat="43.75167" lon="3.48038">
        <ele>688.92</ele>
        <time>2018-06-30T08:53:47Z</time>
      </trkpt>
      <trkpt lat="43.75167" lon="3.48039">
        <ele>688.92</ele>
        <time>2018-06-30T08:54:14Z</time>
      </trkpt>
      <trkpt lat="43.75167" lon="3.48038">
        <ele>688.92</ele>
        <time>2018-06-30T08:54:55Z</time>
      </trkpt>
      <trkpt lat="43.75168" lon="3.48041">
        <ele>688.92</ele>
        <time>2018-06-30T08:55:38Z</time>
      </trkpt>
      <trkpt lat="43.75168" lon="3.4804">
        <ele>688.92</ele>
        <time>2018-06-30T08:56:09Z</time>
      </trkpt>
      <trkpt lat="43.75168" lon="3.48041">
        <ele>688.92</ele>
        <time>2018-06-30T08:56:39Z</time>
      </trkpt>
      <trkpt lat="43.75168" lon="3.4804">
        <ele>688.92</ele>
        <time>2018-06-30T08:57:04Z</time>
      </trkpt>
      <trkpt lat="43.75168" lon="3.48038">
        <ele>688.92</ele>
        <time>2018-06-30T08:57:32Z</time>
      </trkpt>
      <trkpt lat="43.75168" lon="3.48037">
        <ele>688.92</ele>
        <time>2018-06-30T08:57:58Z</time>
      </trkpt>
      <trkpt lat="43.75169" lon="3.48037">
        <ele>688.92</ele>
        <time>2018-06-30T08:58:25Z</time>
      </trkpt>
      <trkpt lat="43.7517" lon="3.48038">
        <ele>688.92</ele>
        <time>2018-06-30T08:58:48Z</time>
      </trkpt>
      <trkpt lat="43.75169" lon="3.48039">
        <ele>688.92</ele>
        <time>2018-06-30T08:59:12Z</time>
      </trkpt>
      <trkpt lat="43.75168" lon="3.48039">
        <ele>688.92</ele>
        <time>2018-06-30T08:59:36Z</time>
      </trkpt>
      <trkpt lat="43.75168" lon="3.48038">
        <ele>688.92</ele>
        <time>2018-06-30T08:59:57Z</time>
      </trkpt>
      <trkpt lat="43.75166" lon="3.48039">
        <ele>688.92</ele>
        <time>2018-06-30T09:00:20Z</time>
      </trkpt>
      <trkpt lat="43.75163" lon="3.4804">
        <ele>687.96</ele>
        <time>2018-06-30T09:00:26Z</time>
      </trkpt>
      <trkpt lat="43.75154" lon="3.48039">
        <ele>687.96</ele>
        <time>2018-06-30T09:00:34Z</time>
      </trkpt>
      <trkpt lat="43.75136" lon="3.48036">
        <ele>687.96</ele>
        <time>2018-06-30T09:00:51Z</time>
      </trkpt>
      <trkpt lat="43.75125" lon="3.48048">
        <ele>687.96</ele>
        <time>2018-06-30T09:01:06Z</time>
      </trkpt>
      <trkpt lat="43.75113" lon="3.48064">
        <ele>687.96</ele>
        <time>2018-06-30T09:01:23Z</time>
      </trkpt>
      <trkpt lat="43.75106" lon="3.48075">
        <ele>688.92</ele>
        <time>2018-06-30T09:01:35Z</time>
      </trkpt>
      <trkpt lat="43.75098" lon="3.48092">
        <ele>689.4</ele>
        <time>2018-06-30T09:01:51Z</time>
      </trkpt>
      <trkpt lat="43.75091" lon="3.48103">
        <ele>689.88</ele>
        <time>2018-06-30T09:02:01Z</time>
      </trkpt>
      <trkpt lat="43.75078" lon="3.48118">
        <ele>689.88</ele>
        <time>2018-06-30T09:02:18Z</time>
      </trkpt>
      <trkpt lat="43.75066" lon="3.48135">
        <ele>690.84</ele>
        <time>2018-06-30T09:02:37Z</time>
      </trkpt>
      <trkpt lat="43.75054" lon="3.48149">
        <ele>690.84</ele>
        <time>2018-06-30T09:02:52Z</time>
      </trkpt>
      <trkpt lat="43.75043" lon="3.48162">
        <ele>691.81</ele>
        <time>2018-06-30T09:03:07Z</time>
      </trkpt>
      <trkpt lat="43.75032" lon="3.48175">
        <ele>693.25</ele>
        <time>2018-06-30T09:03:23Z</time>
      </trkpt>
      <trkpt lat="43.75019" lon="3.48183">
        <ele>693.73</ele>
        <time>2018-06-30T09:03:38Z</time>
      </trkpt>
      <trkpt lat="43.75006" lon="3.48195">
        <ele>694.69</ele>
        <time>2018-06-30T09:03:53Z</time>
      </trkpt>
      <trkpt lat="43.74995" lon="3.48206">
        <ele>695.65</ele>
        <time>2018-06-30T09:04:07Z</time>
      </trkpt>
      <trkpt lat="43.74981" lon="3.48223">
        <ele>698.05</ele>
        <time>2018-06-30T09:04:27Z</time>
      </trkpt>
      <trkpt lat="43.74973" lon="3.48239">
        <ele>699.02</ele>
        <time>2018-06-30T09:04:41Z</time>
      </trkpt>
      <trkpt lat="43.7496" lon="3.48255">
        <ele>700.94</ele>
        <time>2018-06-30T09:04:58Z</time>
      </trkpt>
      <trkpt lat="43.7495" lon="3.48271">
        <ele>702.38</ele>
        <time>2018-06-30T09:05:14Z</time>
      </trkpt>
      <trkpt lat="43.74937" lon="3.48289">
        <ele>704.3</ele>
        <time>2018-06-30T09:05:33Z</time>
      </trkpt>
      <trkpt lat="43.74922" lon="3.48304">
        <ele>706.71</ele>
        <time>2018-06-30T09:05:51Z</time>
      </trkpt>
      <trkpt lat="43.74904" lon="3.48319">
        <ele>708.63</ele>
        <time>2018-06-30T09:06:10Z</time>
      </trkpt>
      <trkpt lat="43.749" lon="3.48324">
        <ele>708.63</ele>
        <time>2018-06-30T09:06:15Z</time>
      </trkpt>
      <trkpt lat="43.74894" lon="3.48331">
        <ele>711.03</ele>
        <time>2018-06-30T09:06:23Z</time>
      </trkpt>
      <trkpt lat="43.74883" lon="3.48342">
        <ele>712.95</ele>
        <time>2018-06-30T09:06:39Z</time>
      </trkpt>
      <trkpt lat="43.74872" lon="3.4835">
        <ele>714.88</ele>
        <time>2018-06-30T09:06:55Z</time>
      </trkpt>
      <trkpt lat="43.74864" lon="3.48361">
        <ele>716.8</ele>
        <time>2018-06-30T09:07:10Z</time>
      </trkpt>
      <trkpt lat="43.74853" lon="3.48379">
        <ele>719.68</ele>
        <time>2018-06-30T09:07:29Z</time>
      </trkpt>
      <trkpt lat="43.74842" lon="3.48389">
        <ele>722.57</ele>
        <time>2018-06-30T09:07:46Z</time>
      </trkpt>
      <trkpt lat="43.74833" lon="3.4839">
        <ele>724.01</ele>
        <time>2018-06-30T09:08:01Z</time>
      </trkpt>
      <trkpt lat="43.74822" lon="3.48398">
        <ele>726.89</ele>
        <time>2018-06-30T09:08:20Z</time>
      </trkpt>
      <trkpt lat="43.74815" lon="3.48406">
        <ele>729.3</ele>
        <time>2018-06-30T09:08:33Z</time>
      </trkpt>
      <trkpt lat="43.74806" lon="3.48412">
        <ele>732.18</ele>
        <time>2018-06-30T09:08:49Z</time>
      </trkpt>
      <trkpt lat="43.74792" lon="3.48415">
        <ele>734.58</ele>
        <time>2018-06-30T09:09:04Z</time>
      </trkpt>
      <trkpt lat="43.74779" lon="3.48414">
        <ele>737.47</ele>
        <time>2018-06-30T09:09:18Z</time>
      </trkpt>
      <trkpt lat="43.74768" lon="3.48416">
        <ele>739.39</ele>
        <time>2018-06-30T09:09:33Z</time>
      </trkpt>
      <trkpt lat="43.74755" lon="3.48418">
        <ele>741.79</ele>
        <time>2018-06-30T09:09:49Z</time>
      </trkpt>
      <trkpt lat="43.74741" lon="3.48414">
        <ele>742.28</ele>
        <time>2018-06-30T09:10:03Z</time>
      </trkpt>
      <trkpt lat="43.74731" lon="3.4842">
        <ele>744.68</ele>
        <time>2018-06-30T09:10:16Z</time>
      </trkpt>
      <trkpt lat="43.74724" lon="3.48428">
        <ele>746.12</ele>
        <time>2018-06-30T09:10:32Z</time>
      </trkpt>
      <trkpt lat="43.74715" lon="3.48433">
        <ele>748.52</ele>
        <time>2018-06-30T09:10:48Z</time>
      </trkpt>
      <trkpt lat="43.7471" lon="3.48439">
        <ele>749.97</ele>
        <time>2018-06-30T09:11:02Z</time>
      </trkpt>
      <trkpt lat="43.74708" lon="3.48438">
        <ele>749.97</ele>
        <time>2018-06-30T09:11:21Z</time>
      </trkpt>
      <trkpt lat="43.74707" lon="3.48437">
        <ele>749.97</ele>
        <time>2018-06-30T09:11:42Z</time>
      </trkpt>
      <trkpt lat="43.74708" lon="3.48437">
        <ele>750.93</ele>
        <time>2018-06-30T09:12:02Z</time>
      </trkpt>
      <trkpt lat="43.74701" lon="3.48441">
        <ele>751.89</ele>
        <time>2018-06-30T09:12:15Z</time>
      </trkpt>
      <trkpt lat="43.74694" lon="3.48452">
        <ele>754.77</ele>
        <time>2018-06-30T09:12:32Z</time>
      </trkpt>
      <trkpt lat="43.7469" lon="3.4846">
        <ele>757.18</ele>
        <time>2018-06-30T09:12:47Z</time>
      </trkpt>
      <trkpt lat="43.74684" lon="3.48466">
        <ele>759.58</ele>
        <time>2018-06-30T09:13:02Z</time>
      </trkpt>
      <trkpt lat="43.74674" lon="3.48465">
        <ele>761.5</ele>
        <time>2018-06-30T09:13:16Z</time>
      </trkpt>
      <trkpt lat="43.74663" lon="3.48466">
        <ele>762.94</ele>
        <time>2018-06-30T09:13:29Z</time>
      </trkpt>
      <trkpt lat="43.74667" lon="3.48479">
        <ele>765.35</ele>
        <time>2018-06-30T09:13:45Z</time>
      </trkpt>
      <trkpt lat="43.7467" lon="3.48489">
        <ele>767.75</ele>
        <time>2018-06-30T09:13:59Z</time>
      </trkpt>
      <trkpt lat="43.7467" lon="3.48504">
        <ele>770.15</ele>
        <time>2018-06-30T09:14:14Z</time>
      </trkpt>
      <trkpt lat="43.74661" lon="3.48507">
        <ele>773.04</ele>
        <time>2018-06-30T09:14:30Z</time>
      </trkpt>
      <trkpt lat="43.7465" lon="3.48508">
        <ele>774.96</ele>
        <time>2018-06-30T09:14:47Z</time>
      </trkpt>
      <trkpt lat="43.74644" lon="3.48509">
        <ele>776.4</ele>
        <time>2018-06-30T09:15:04Z</time>
      </trkpt>
      <trkpt lat="43.74645" lon="3.48513">
        <ele>776.88</ele>
        <time>2018-06-30T09:15:17Z</time>
      </trkpt>
      <trkpt lat="43.74646" lon="3.48514">
        <ele>777.36</ele>
        <time>2018-06-30T09:15:40Z</time>
      </trkpt>
      <trkpt lat="43.74646" lon="3.48518">
        <ele>777.84</ele>
        <time>2018-06-30T09:15:55Z</time>
      </trkpt>
      <trkpt lat="43.74647" lon="3.48521">
        <ele>778.32</ele>
        <time>2018-06-30T09:16:04Z</time>
      </trkpt>
      <trkpt lat="43.7465" lon="3.48526">
        <ele>778.81</ele>
        <time>2018-06-30T09:16:09Z</time>
      </trkpt>
      <trkpt lat="43.74657" lon="3.48539">
        <ele>780.25</ele>
        <time>2018-06-30T09:16:18Z</time>
      </trkpt>
      <trkpt lat="43.74651" lon="3.48547">
        <ele>783.13</ele>
        <time>2018-06-30T09:16:30Z</time>
      </trkpt>
      <trkpt lat="43.74635" lon="3.48545">
        <ele>785.05</ele>
        <time>2018-06-30T09:16:48Z</time>
      </trkpt>
      <trkpt lat="43.74626" lon="3.48545">
        <ele>786.5</ele>
        <time>2018-06-30T09:17:03Z</time>
      </trkpt>
      <trkpt lat="43.7461" lon="3.48541">
        <ele>789.38</ele>
        <time>2018-06-30T09:17:18Z</time>
      </trkpt>
      <trkpt lat="43.74597" lon="3.48536">
        <ele>790.82</ele>
        <time>2018-06-30T09:17:29Z</time>
      </trkpt>
      <trkpt lat="43.74585" lon="3.48528">
        <ele>792.74</ele>
        <time>2018-06-30T09:17:43Z</time>
      </trkpt>
      <trkpt lat="43.74579" lon="3.48525">
        <ele>794.19</ele>
        <time>2018-06-30T09:17:51Z</time>
      </trkpt>
      <trkpt lat="43.74563" lon="3.48526">
        <ele>797.07</ele>
        <time>2018-06-30T09:18:07Z</time>
      </trkpt>
      <trkpt lat="43.74551" lon="3.48529">
        <ele>799.47</ele>
        <time>2018-06-30T09:18:23Z</time>
      </trkpt>
      <trkpt lat="43.7455" lon="3.48535">
        <ele>800.92</ele>
        <time>2018-06-30T09:18:31Z</time>
      </trkpt>
      <trkpt lat="43.74558" lon="3.48548">
        <ele>801.88</ele>
        <time>2018-06-30T09:18:43Z</time>
      </trkpt>
      <trkpt lat="43.74562" lon="3.48561">
        <ele>802.84</ele>
        <time>2018-06-30T09:18:53Z</time>
      </trkpt>
      <trkpt lat="43.74542" lon="3.48558">
        <ele>804.76</ele>
        <time>2018-06-30T09:19:11Z</time>
      </trkpt>
      <trkpt lat="43.74524" lon="3.48548">
        <ele>807.64</ele>
        <time>2018-06-30T09:19:29Z</time>
      </trkpt>
      <trkpt lat="43.74509" lon="3.48538">
        <ele>809.57</ele>
        <time>2018-06-30T09:19:46Z</time>
      </trkpt>
      <trkpt lat="43.74492" lon="3.48527">
        <ele>811.01</ele>
        <time>2018-06-30T09:20:03Z</time>
      </trkpt>
      <trkpt lat="43.74475" lon="3.48528">
        <ele>812.93</ele>
        <time>2018-06-30T09:20:20Z</time>
      </trkpt>
      <trkpt lat="43.74462" lon="3.48542">
        <ele>814.37</ele>
        <time>2018-06-30T09:20:36Z</time>
      </trkpt>
      <trkpt lat="43.74453" lon="3.48562">
        <ele>815.82</ele>
        <time>2018-06-30T09:20:52Z</time>
      </trkpt>
      <trkpt lat="43.74442" lon="3.48577">
        <ele>816.3</ele>
        <time>2018-06-30T09:21:08Z</time>
      </trkpt>
      <trkpt lat="43.74441" lon="3.48577">
        <ele>816.3</ele>
        <time>2018-06-30T09:21:09Z</time>
      </trkpt>
      <trkpt lat="43.74427" lon="3.48577">
        <ele>818.22</ele>
        <time>2018-06-30T09:21:23Z</time>
      </trkpt>
      <trkpt lat="43.74411" lon="3.48575">
        <ele>819.66</ele>
        <time>2018-06-30T09:21:40Z</time>
      </trkpt>
      <trkpt lat="43.74395" lon="3.48573">
        <ele>823.51</ele>
        <time>2018-06-30T09:21:57Z</time>
      </trkpt>
      <trkpt lat="43.74382" lon="3.48576">
        <ele>824.95</ele>
        <time>2018-06-30T09:22:12Z</time>
      </trkpt>
      <trkpt lat="43.74367" lon="3.4859">
        <ele>827.35</ele>
        <time>2018-06-30T09:22:31Z</time>
      </trkpt>
      <trkpt lat="43.74366" lon="3.4859">
        <ele>827.35</ele>
        <time>2018-06-30T09:22:32Z</time>
      </trkpt>
      <trkpt lat="43.74352" lon="3.48598">
        <ele>829.76</ele>
        <time>2018-06-30T09:22:50Z</time>
      </trkpt>
      <trkpt lat="43.74347" lon="3.48598">
        <ele>829.76</ele>
        <time>2018-06-30T09:23:14Z</time>
      </trkpt>
      <trkpt lat="43.7434" lon="3.48598">
        <ele>829.76</ele>
        <time>2018-06-30T09:23:27Z</time>
      </trkpt>
      <trkpt lat="43.74338" lon="3.48598">
        <ele>830.72</ele>
        <time>2018-06-30T09:23:30Z</time>
      </trkpt>
      <trkpt lat="43.74334" lon="3.48599">
        <ele>831.68</ele>
        <time>2018-06-30T09:23:42Z</time>
      </trkpt>
      <trkpt lat="43.74325" lon="3.48602">
        <ele>833.6</ele>
        <time>2018-06-30T09:24:00Z</time>
      </trkpt>
      <trkpt lat="43.74322" lon="3.48605">
        <ele>833.6</ele>
        <time>2018-06-30T09:24:04Z</time>
      </trkpt>
      <trkpt lat="43.74311" lon="3.48614">
        <ele>835.52</ele>
        <time>2018-06-30T09:24:17Z</time>
      </trkpt>
      <trkpt lat="43.74298" lon="3.48622">
        <ele>836.96</ele>
        <time>2018-06-30T09:24:33Z</time>
      </trkpt>
      <trkpt lat="43.74296" lon="3.48628">
        <ele>837.45</ele>
        <time>2018-06-30T09:24:48Z</time>
      </trkpt>
      <trkpt lat="43.74295" lon="3.48629">
        <ele>838.41</ele>
        <time>2018-06-30T09:25:23Z</time>
      </trkpt>
      <trkpt lat="43.74297" lon="3.48629">
        <ele>839.37</ele>
        <time>2018-06-30T09:25:48Z</time>
      </trkpt>
      <trkpt lat="43.74297" lon="3.48628">
        <ele>837.93</ele>
        <time>2018-06-30T09:25:53Z</time>
      </trkpt>
      <trkpt lat="43.74296" lon="3.48628">
        <ele>837.45</ele>
        <time>2018-06-30T09:26:29Z</time>
      </trkpt>
      <trkpt lat="43.74292" lon="3.48628">
        <ele>837.45</ele>
        <time>2018-06-30T09:26:57Z</time>
      </trkpt>
      <trkpt lat="43.74289" lon="3.48629">
        <ele>837.45</ele>
        <time>2018-06-30T09:27:03Z</time>
      </trkpt>
      <trkpt lat="43.74269" lon="3.48617">
        <ele>836.48</ele>
        <time>2018-06-30T09:27:22Z</time>
      </trkpt>
      <trkpt lat="43.74259" lon="3.4861">
        <ele>837.93</ele>
        <time>2018-06-30T09:27:34Z</time>
      </trkpt>
      <trkpt lat="43.74244" lon="3.486">
        <ele>839.85</ele>
        <time>2018-06-30T09:27:50Z</time>
      </trkpt>
      <trkpt lat="43.74229" lon="3.4859">
        <ele>840.81</ele>
        <time>2018-06-30T09:28:08Z</time>
      </trkpt>
      <trkpt lat="43.74227" lon="3.48579">
        <ele>842.73</ele>
        <time>2018-06-30T09:28:22Z</time>
      </trkpt>
      <trkpt lat="43.74228" lon="3.48579">
        <ele>843.69</ele>
        <time>2018-06-30T09:28:48Z</time>
      </trkpt>
      <trkpt lat="43.74228" lon="3.4858">
        <ele>842.25</ele>
        <time>2018-06-30T09:28:54Z</time>
      </trkpt>
      <trkpt lat="43.74228" lon="3.48585">
        <ele>843.69</ele>
        <time>2018-06-30T09:29:12Z</time>
      </trkpt>
      <trkpt lat="43.74227" lon="3.4858">
        <ele>843.69</ele>
        <time>2018-06-30T09:29:34Z</time>
      </trkpt>
      <trkpt lat="43.7423" lon="3.48579">
        <ele>843.69</ele>
        <time>2018-06-30T09:29:59Z</time>
      </trkpt>
      <trkpt lat="43.74228" lon="3.48579">
        <ele>842.25</ele>
        <time>2018-06-30T09:30:28Z</time>
      </trkpt>
      <trkpt lat="43.74226" lon="3.48579">
        <ele>842.73</ele>
        <time>2018-06-30T09:30:54Z</time>
      </trkpt>
      <trkpt lat="43.74227" lon="3.48581">
        <ele>842.73</ele>
        <time>2018-06-30T09:31:22Z</time>
      </trkpt>
      <trkpt lat="43.74226" lon="3.4858">
        <ele>840.81</ele>
        <time>2018-06-30T09:31:48Z</time>
      </trkpt>
      <trkpt lat="43.74224" lon="3.48579">
        <ele>842.25</ele>
        <time>2018-06-30T09:32:05Z</time>
      </trkpt>
      <trkpt lat="43.74225" lon="3.48582">
        <ele>842.25</ele>
        <time>2018-06-30T09:32:25Z</time>
      </trkpt>
      <trkpt lat="43.74226" lon="3.48582">
        <ele>842.25</ele>
        <time>2018-06-30T09:32:52Z</time>
      </trkpt>
      <trkpt lat="43.74227" lon="3.48581">
        <ele>841.77</ele>
        <time>2018-06-30T09:33:10Z</time>
      </trkpt>
      <trkpt lat="43.74229" lon="3.48579">
        <ele>841.77</ele>
        <time>2018-06-30T09:33:36Z</time>
      </trkpt>
      <trkpt lat="43.74226" lon="3.48577">
        <ele>843.21</ele>
        <time>2018-06-30T09:34:04Z</time>
      </trkpt>
      <trkpt lat="43.74228" lon="3.48582">
        <ele>843.21</ele>
        <time>2018-06-30T09:34:26Z</time>
      </trkpt>
      <trkpt lat="43.74231" lon="3.4859">
        <ele>841.77</ele>
        <time>2018-06-30T09:34:43Z</time>
      </trkpt>
      <trkpt lat="43.7423" lon="3.48595">
        <ele>841.29</ele>
        <time>2018-06-30T09:34:57Z</time>
      </trkpt>
      <trkpt lat="43.7423" lon="3.48594">
        <ele>841.29</ele>
        <time>2018-06-30T09:35:17Z</time>
      </trkpt>
      <trkpt lat="43.74229" lon="3.48594">
        <ele>840.81</ele>
        <time>2018-06-30T09:35:41Z</time>
      </trkpt>
      <trkpt lat="43.7423" lon="3.48595">
        <ele>842.25</ele>
        <time>2018-06-30T09:36:14Z</time>
      </trkpt>
      <trkpt lat="43.74229" lon="3.48596">
        <ele>842.25</ele>
        <time>2018-06-30T09:36:49Z</time>
      </trkpt>
      <trkpt lat="43.74228" lon="3.48595">
        <ele>842.25</ele>
        <time>2018-06-30T09:37:22Z</time>
      </trkpt>
      <trkpt lat="43.74229" lon="3.48595">
        <ele>842.25</ele>
        <time>2018-06-30T09:37:51Z</time>
      </trkpt>
      <trkpt lat="43.74231" lon="3.48595">
        <ele>842.73</ele>
        <time>2018-06-30T09:38:15Z</time>
      </trkpt>
      <trkpt lat="43.7423" lon="3.48597">
        <ele>841.29</ele>
        <time>2018-06-30T09:38:50Z</time>
      </trkpt>
      <trkpt lat="43.74231" lon="3.48596">
        <ele>841.77</ele>
        <time>2018-06-30T09:39:27Z</time>
      </trkpt>
      <trkpt lat="43.7423" lon="3.48597">
        <ele>841.77</ele>
        <time>2018-06-30T09:40:00Z</time>
      </trkpt>
      <trkpt lat="43.74227" lon="3.48593">
        <ele>841.77</ele>
        <time>2018-06-30T09:40:29Z</time>
      </trkpt>
      <trkpt lat="43.74227" lon="3.48593">
        <ele>843.69</ele>
        <time>2018-06-30T09:41:01Z</time>
      </trkpt>
      <trkpt lat="43.74229" lon="3.48593">
        <ele>842.73</ele>
        <time>2018-06-30T09:41:25Z</time>
      </trkpt>
      <trkpt lat="43.74227" lon="3.48593">
        <ele>843.69</ele>
        <time>2018-06-30T09:41:45Z</time>
      </trkpt>
      <trkpt lat="43.74227" lon="3.48593">
        <ele>842.25</ele>
        <time>2018-06-30T09:41:58Z</time>
      </trkpt>
      <trkpt lat="43.74226" lon="3.48591">
        <ele>841.77</ele>
        <time>2018-06-30T09:42:15Z</time>
      </trkpt>
      <trkpt lat="43.74228" lon="3.4859">
        <ele>842.25</ele>
        <time>2018-06-30T09:42:28Z</time>
      </trkpt>
      <trkpt lat="43.74235" lon="3.48592">
        <ele>841.77</ele>
        <time>2018-06-30T09:42:41Z</time>
      </trkpt>
      <trkpt lat="43.74247" lon="3.48598">
        <ele>840.81</ele>
        <time>2018-06-30T09:42:58Z</time>
      </trkpt>
      <trkpt lat="43.7426" lon="3.48605">
        <ele>837.93</ele>
        <time>2018-06-30T09:43:15Z</time>
      </trkpt>
      <trkpt lat="43.7428" lon="3.4861">
        <ele>836.96</ele>
        <time>2018-06-30T09:43:35Z</time>
      </trkpt>
      <trkpt lat="43.74287" lon="3.48615">
        <ele>838.41</ele>
        <time>2018-06-30T09:43:44Z</time>
      </trkpt>
      <trkpt lat="43.74292" lon="3.48615">
        <ele>839.37</ele>
        <time>2018-06-30T09:43:56Z</time>
      </trkpt>
      <trkpt lat="43.74305" lon="3.48606">
        <ele>836.96</ele>
        <time>2018-06-30T09:44:12Z</time>
      </trkpt>
      <trkpt lat="43.74318" lon="3.48595">
        <ele>835.52</ele>
        <time>2018-06-30T09:44:26Z</time>
      </trkpt>
      <trkpt lat="43.74343" lon="3.48591">
        <ele>832.64</ele>
        <time>2018-06-30T09:44:47Z</time>
      </trkpt>
      <trkpt lat="43.74343" lon="3.48587">
        <ele>830.72</ele>
        <time>2018-06-30T09:45:02Z</time>
      </trkpt>
      <trkpt lat="43.74339" lon="3.4858">
        <ele>828.31</ele>
        <time>2018-06-30T09:45:14Z</time>
      </trkpt>
      <trkpt lat="43.74333" lon="3.48574">
        <ele>826.39</ele>
        <time>2018-06-30T09:45:21Z</time>
      </trkpt>
      <trkpt lat="43.74324" lon="3.48568">
        <ele>825.91</ele>
        <time>2018-06-30T09:45:34Z</time>
      </trkpt>
      <trkpt lat="43.74305" lon="3.48556">
        <ele>823.99</ele>
        <time>2018-06-30T09:45:54Z</time>
      </trkpt>
      <trkpt lat="43.74302" lon="3.48552">
        <ele>823.03</ele>
        <time>2018-06-30T09:45:59Z</time>
      </trkpt>
      <trkpt lat="43.74289" lon="3.48546">
        <ele>823.03</ele>
        <time>2018-06-30T09:46:13Z</time>
      </trkpt>
      <trkpt lat="43.74276" lon="3.4854">
        <ele>823.03</ele>
        <time>2018-06-30T09:46:25Z</time>
      </trkpt>
      <trkpt lat="43.74265" lon="3.48528">
        <ele>822.06</ele>
        <time>2018-06-30T09:46:38Z</time>
      </trkpt>
      <trkpt lat="43.74258" lon="3.48516">
        <ele>822.06</ele>
        <time>2018-06-30T09:46:47Z</time>
      </trkpt>
      <trkpt lat="43.74252" lon="3.48489">
        <ele>820.62</ele>
        <time>2018-06-30T09:47:04Z</time>
      </trkpt>
      <trkpt lat="43.7425" lon="3.48475">
        <ele>817.74</ele>
        <time>2018-06-30T09:47:18Z</time>
      </trkpt>
      <trkpt lat="43.74242" lon="3.48458">
        <ele>816.78</ele>
        <time>2018-06-30T09:47:34Z</time>
      </trkpt>
      <trkpt lat="43.74237" lon="3.48448">
        <ele>815.82</ele>
        <time>2018-06-30T09:47:47Z</time>
      </trkpt>
      <trkpt lat="43.74237" lon="3.48447">
        <ele>814.85</ele>
        <time>2018-06-30T09:47:48Z</time>
      </trkpt>
      <trkpt lat="43.74233" lon="3.48447">
        <ele>814.37</ele>
        <time>2018-06-30T09:47:56Z</time>
      </trkpt>
      <trkpt lat="43.74216" lon="3.48449">
        <ele>817.26</ele>
        <time>2018-06-30T09:48:13Z</time>
      </trkpt>
      <trkpt lat="43.74201" lon="3.48454">
        <ele>819.18</ele>
        <time>2018-06-30T09:48:29Z</time>
      </trkpt>
      <trkpt lat="43.74195" lon="3.48453">
        <ele>819.18</ele>
        <time>2018-06-30T09:48:35Z</time>
      </trkpt>
      <trkpt lat="43.74189" lon="3.48445">
        <ele>818.22</ele>
        <time>2018-06-30T09:48:44Z</time>
      </trkpt>
      <trkpt lat="43.74187" lon="3.48437">
        <ele>815.82</ele>
        <time>2018-06-30T09:48:56Z</time>
      </trkpt>
      <trkpt lat="43.74185" lon="3.48435">
        <ele>814.85</ele>
        <time>2018-06-30T09:48:59Z</time>
      </trkpt>
      <trkpt lat="43.74175" lon="3.48427">
        <ele>812.93</ele>
        <time>2018-06-30T09:49:13Z</time>
      </trkpt>
      <trkpt lat="43.74171" lon="3.48421">
        <ele>811.49</ele>
        <time>2018-06-30T09:49:24Z</time>
      </trkpt>
      <trkpt lat="43.74166" lon="3.48417">
        <ele>809.09</ele>
        <time>2018-06-30T09:49:36Z</time>
      </trkpt>
      <trkpt lat="43.74159" lon="3.48414">
        <ele>806.68</ele>
        <time>2018-06-30T09:49:48Z</time>
      </trkpt>
      <trkpt lat="43.74156" lon="3.48409">
        <ele>806.2</ele>
        <time>2018-06-30T09:49:55Z</time>
      </trkpt>
      <trkpt lat="43.7415" lon="3.48404">
        <ele>803.32</ele>
        <time>2018-06-30T09:50:07Z</time>
      </trkpt>
      <trkpt lat="43.74146" lon="3.48397">
        <ele>801.4</ele>
        <time>2018-06-30T09:50:21Z</time>
      </trkpt>
      <trkpt lat="43.74143" lon="3.4839">
        <ele>798.99</ele>
        <time>2018-06-30T09:50:33Z</time>
      </trkpt>
      <trkpt lat="43.74137" lon="3.48385">
        <ele>796.59</ele>
        <time>2018-06-30T09:50:47Z</time>
      </trkpt>
      <trkpt lat="43.74128" lon="3.48378">
        <ele>794.19</ele>
        <time>2018-06-30T09:51:01Z</time>
      </trkpt>
      <trkpt lat="43.74123" lon="3.48374">
        <ele>792.74</ele>
        <time>2018-06-30T09:51:11Z</time>
      </trkpt>
      <trkpt lat="43.74116" lon="3.48376">
        <ele>792.26</ele>
        <time>2018-06-30T09:51:27Z</time>
      </trkpt>
      <trkpt lat="43.74115" lon="3.48373">
        <ele>792.26</ele>
        <time>2018-06-30T09:51:56Z</time>
      </trkpt>
      <trkpt lat="43.74115" lon="3.48373">
        <ele>792.74</ele>
        <time>2018-06-30T09:52:30Z</time>
      </trkpt>
      <trkpt lat="43.74117" lon="3.48371">
        <ele>792.74</ele>
        <time>2018-06-30T09:52:51Z</time>
      </trkpt>
      <trkpt lat="43.74118" lon="3.48369">
        <ele>792.26</ele>
        <time>2018-06-30T09:53:26Z</time>
      </trkpt>
      <trkpt lat="43.74116" lon="3.48371">
        <ele>791.78</ele>
        <time>2018-06-30T09:53:45Z</time>
      </trkpt>
      <trkpt lat="43.74115" lon="3.48369">
        <ele>790.82</ele>
        <time>2018-06-30T09:53:48Z</time>
      </trkpt>
      <trkpt lat="43.74113" lon="3.48366">
        <ele>790.82</ele>
        <time>2018-06-30T09:53:52Z</time>
      </trkpt>
      <trkpt lat="43.74109" lon="3.4836">
        <ele>788.42</ele>
        <time>2018-06-30T09:54:05Z</time>
      </trkpt>
      <trkpt lat="43.74105" lon="3.48355">
        <ele>786.02</ele>
        <time>2018-06-30T09:54:17Z</time>
      </trkpt>
      <trkpt lat="43.74099" lon="3.48354">
        <ele>785.53</ele>
        <time>2018-06-30T09:54:31Z</time>
      </trkpt>
      <trkpt lat="43.74098" lon="3.48346">
        <ele>783.13</ele>
        <time>2018-06-30T09:54:43Z</time>
      </trkpt>
      <trkpt lat="43.74091" lon="3.48342">
        <ele>780.73</ele>
        <time>2018-06-30T09:54:54Z</time>
      </trkpt>
      <trkpt lat="43.74086" lon="3.48341">
        <ele>779.77</ele>
        <time>2018-06-30T09:55:10Z</time>
      </trkpt>
      <trkpt lat="43.74083" lon="3.48335">
        <ele>779.29</ele>
        <time>2018-06-30T09:55:25Z</time>
      </trkpt>
      <trkpt lat="43.74084" lon="3.48332">
        <ele>778.81</ele>
        <time>2018-06-30T09:55:38Z</time>
      </trkpt>
      <trkpt lat="43.74082" lon="3.48329">
        <ele>777.36</ele>
        <time>2018-06-30T09:55:51Z</time>
      </trkpt>
      <trkpt lat="43.74075" lon="3.48319">
        <ele>775.44</ele>
        <time>2018-06-30T09:56:07Z</time>
      </trkpt>
      <trkpt lat="43.74069" lon="3.48317">
        <ele>774.48</ele>
        <time>2018-06-30T09:56:16Z</time>
      </trkpt>
      <trkpt lat="43.74061" lon="3.48308">
        <ele>772.08</ele>
        <time>2018-06-30T09:56:29Z</time>
      </trkpt>
      <trkpt lat="43.74053" lon="3.48298">
        <ele>772.08</ele>
        <time>2018-06-30T09:56:43Z</time>
      </trkpt>
      <trkpt lat="43.74045" lon="3.48287">
        <ele>770.15</ele>
        <time>2018-06-30T09:56:58Z</time>
      </trkpt>
      <trkpt lat="43.74037" lon="3.48278">
        <ele>768.71</ele>
        <time>2018-06-30T09:57:12Z</time>
      </trkpt>
      <trkpt lat="43.74035" lon="3.4827">
        <ele>767.27</ele>
        <time>2018-06-30T09:57:30Z</time>
      </trkpt>
      <trkpt lat="43.74033" lon="3.48256">
        <ele>765.83</ele>
        <time>2018-06-30T09:57:43Z</time>
      </trkpt>
      <trkpt lat="43.74035" lon="3.48244">
        <ele>764.39</ele>
        <time>2018-06-30T09:57:59Z</time>
      </trkpt>
      <trkpt lat="43.74034" lon="3.48234">
        <ele>762.94</ele>
        <time>2018-06-30T09:58:13Z</time>
      </trkpt>
      <trkpt lat="43.74032" lon="3.48219">
        <ele>760.54</ele>
        <time>2018-06-30T09:58:29Z</time>
      </trkpt>
      <trkpt lat="43.7403" lon="3.48213">
        <ele>760.06</ele>
        <time>2018-06-30T09:58:45Z</time>
      </trkpt>
      <trkpt lat="43.7403" lon="3.48214">
        <ele>760.06</ele>
        <time>2018-06-30T09:59:13Z</time>
      </trkpt>
      <trkpt lat="43.7403" lon="3.48214">
        <ele>761.02</ele>
        <time>2018-06-30T09:59:32Z</time>
      </trkpt>
      <trkpt lat="43.74031" lon="3.48216">
        <ele>761.5</ele>
        <time>2018-06-30T09:59:51Z</time>
      </trkpt>
      <trkpt lat="43.7403" lon="3.48216">
        <ele>761.5</ele>
        <time>2018-06-30T10:00:21Z</time>
      </trkpt>
      <trkpt lat="43.74029" lon="3.48216">
        <ele>761.5</ele>
        <time>2018-06-30T10:00:53Z</time>
      </trkpt>
      <trkpt lat="43.7403" lon="3.48215">
        <ele>761.5</ele>
        <time>2018-06-30T10:01:12Z</time>
      </trkpt>
      <trkpt lat="43.74029" lon="3.48216">
        <ele>759.58</ele>
        <time>2018-06-30T10:01:25Z</time>
      </trkpt>
      <trkpt lat="43.74028" lon="3.48215">
        <ele>760.54</ele>
        <time>2018-06-30T10:01:32Z</time>
      </trkpt>
      <trkpt lat="43.74025" lon="3.48214">
        <ele>760.06</ele>
        <time>2018-06-30T10:01:41Z</time>
      </trkpt>
      <trkpt lat="43.74023" lon="3.48212">
        <ele>761.02</ele>
        <time>2018-06-30T10:01:47Z</time>
      </trkpt>
      <trkpt lat="43.74019" lon="3.48213">
        <ele>759.58</ele>
        <time>2018-06-30T10:01:59Z</time>
      </trkpt>
      <trkpt lat="43.74014" lon="3.48217">
        <ele>759.58</ele>
        <time>2018-06-30T10:02:11Z</time>
      </trkpt>
      <trkpt lat="43.74011" lon="3.48218">
        <ele>760.54</ele>
        <time>2018-06-30T10:02:16Z</time>
      </trkpt>
      <trkpt lat="43.74005" lon="3.48225">
        <ele>757.18</ele>
        <time>2018-06-30T10:02:27Z</time>
      </trkpt>
      <trkpt lat="43.74001" lon="3.48237">
        <ele>755.73</ele>
        <time>2018-06-30T10:02:42Z</time>
      </trkpt>
      <trkpt lat="43.73999" lon="3.4825">
        <ele>754.29</ele>
        <time>2018-06-30T10:02:56Z</time>
      </trkpt>
      <trkpt lat="43.73997" lon="3.48266">
        <ele>751.41</ele>
        <time>2018-06-30T10:03:12Z</time>
      </trkpt>
      <trkpt lat="43.73996" lon="3.48282">
        <ele>749.49</ele>
        <time>2018-06-30T10:03:26Z</time>
      </trkpt>
      <trkpt lat="43.73998" lon="3.48303">
        <ele>748.04</ele>
        <time>2018-06-30T10:03:44Z</time>
      </trkpt>
      <trkpt lat="43.73999" lon="3.48305">
        <ele>747.56</ele>
        <time>2018-06-30T10:03:46Z</time>
      </trkpt>
      <trkpt lat="43.74" lon="3.48324">
        <ele>745.16</ele>
        <time>2018-06-30T10:04:02Z</time>
      </trkpt>
      <trkpt lat="43.74003" lon="3.48342">
        <ele>743.72</ele>
        <time>2018-06-30T10:04:15Z</time>
      </trkpt>
      <trkpt lat="43.74009" lon="3.48362">
        <ele>742.28</ele>
        <time>2018-06-30T10:04:30Z</time>
      </trkpt>
      <trkpt lat="43.74011" lon="3.48369">
        <ele>741.79</ele>
        <time>2018-06-30T10:04:36Z</time>
      </trkpt>
      <trkpt lat="43.74019" lon="3.4839">
        <ele>739.87</ele>
        <time>2018-06-30T10:04:53Z</time>
      </trkpt>
      <trkpt lat="43.74029" lon="3.4841">
        <ele>738.91</ele>
        <time>2018-06-30T10:05:11Z</time>
      </trkpt>
      <trkpt lat="43.74038" lon="3.48429">
        <ele>736.99</ele>
        <time>2018-06-30T10:05:28Z</time>
      </trkpt>
      <trkpt lat="43.74046" lon="3.48446">
        <ele>735.07</ele>
        <time>2018-06-30T10:05:44Z</time>
      </trkpt>
      <trkpt lat="43.74054" lon="3.48463">
        <ele>732.66</ele>
        <time>2018-06-30T10:06:00Z</time>
      </trkpt>
      <trkpt lat="43.74059" lon="3.48478">
        <ele>730.74</ele>
        <time>2018-06-30T10:06:14Z</time>
      </trkpt>
      <trkpt lat="43.74061" lon="3.48486">
        <ele>729.3</ele>
        <time>2018-06-30T10:06:29Z</time>
      </trkpt>
      <trkpt lat="43.74053" lon="3.48487">
        <ele>726.41</ele>
        <time>2018-06-30T10:06:42Z</time>
      </trkpt>
      <trkpt lat="43.74041" lon="3.4848">
        <ele>724.97</ele>
        <time>2018-06-30T10:06:56Z</time>
      </trkpt>
      <trkpt lat="43.74026" lon="3.48472">
        <ele>722.09</ele>
        <time>2018-06-30T10:07:12Z</time>
      </trkpt>
      <trkpt lat="43.74017" lon="3.48462">
        <ele>721.61</ele>
        <time>2018-06-30T10:07:25Z</time>
      </trkpt>
      <trkpt lat="43.74006" lon="3.48454">
        <ele>719.2</ele>
        <time>2018-06-30T10:07:39Z</time>
      </trkpt>
      <trkpt lat="43.74002" lon="3.48451">
        <ele>718.24</ele>
        <time>2018-06-30T10:07:43Z</time>
      </trkpt>
      <trkpt lat="43.73999" lon="3.48448">
        <ele>718.24</ele>
        <time>2018-06-30T10:07:46Z</time>
      </trkpt>
      <trkpt lat="43.73986" lon="3.48437">
        <ele>716.32</ele>
        <time>2018-06-30T10:08:03Z</time>
      </trkpt>
      <trkpt lat="43.73982" lon="3.48435">
        <ele>715.84</ele>
        <time>2018-06-30T10:08:07Z</time>
      </trkpt>
      <trkpt lat="43.73965" lon="3.48421">
        <ele>713.44</ele>
        <time>2018-06-30T10:08:26Z</time>
      </trkpt>
      <trkpt lat="43.73952" lon="3.48413">
        <ele>711.51</ele>
        <time>2018-06-30T10:08:39Z</time>
      </trkpt>
      <trkpt lat="43.73942" lon="3.48399">
        <ele>710.07</ele>
        <time>2018-06-30T10:08:54Z</time>
      </trkpt>
      <trkpt lat="43.73938" lon="3.48392">
        <ele>709.11</ele>
        <time>2018-06-30T10:09:12Z</time>
      </trkpt>
      <trkpt lat="43.73937" lon="3.48388">
        <ele>709.11</ele>
        <time>2018-06-30T10:09:33Z</time>
      </trkpt>
      <trkpt lat="43.73936" lon="3.48386">
        <ele>708.63</ele>
        <time>2018-06-30T10:09:56Z</time>
      </trkpt>
      <trkpt lat="43.73936" lon="3.48386">
        <ele>708.63</ele>
        <time>2018-06-30T10:10:06Z</time>
      </trkpt>
      <trkpt lat="43.73939" lon="3.48389">
        <ele>707.67</ele>
        <time>2018-06-30T10:48:55Z</time>
      </trkpt>
      <trkpt lat="43.73938" lon="3.48396">
        <ele>707.67</ele>
        <time>2018-06-30T10:49:01Z</time>
      </trkpt>
      <trkpt lat="43.73936" lon="3.48378">
        <ele>706.71</ele>
        <time>2018-06-30T10:49:15Z</time>
      </trkpt>
      <trkpt lat="43.73936" lon="3.48378">
        <ele>707.67</ele>
        <time>2018-06-30T10:49:50Z</time>
      </trkpt>
      <trkpt lat="43.73934" lon="3.48379">
        <ele>708.15</ele>
        <time>2018-06-30T10:50:15Z</time>
      </trkpt>
      <trkpt lat="43.73934" lon="3.48381">
        <ele>708.15</ele>
        <time>2018-06-30T10:50:37Z</time>
      </trkpt>
      <trkpt lat="43.73935" lon="3.48387">
        <ele>708.15</ele>
        <time>2018-06-30T10:51:09Z</time>
      </trkpt>
      <trkpt lat="43.73936" lon="3.48386">
        <ele>708.15</ele>
        <time>2018-06-30T10:51:46Z</time>
      </trkpt>
      <trkpt lat="43.73934" lon="3.48385">
        <ele>708.63</ele>
        <time>2018-06-30T10:52:14Z</time>
      </trkpt>
      <trkpt lat="43.73924" lon="3.48374">
        <ele>705.75</ele>
        <time>2018-06-30T10:52:30Z</time>
      </trkpt>
      <trkpt lat="43.73917" lon="3.48363">
        <ele>704.3</ele>
        <time>2018-06-30T10:52:45Z</time>
      </trkpt>
      <trkpt lat="43.73911" lon="3.48354">
        <ele>704.3</ele>
        <time>2018-06-30T10:52:57Z</time>
      </trkpt>
      <trkpt lat="43.73905" lon="3.48346">
        <ele>702.86</ele>
        <time>2018-06-30T10:53:13Z</time>
      </trkpt>
      <trkpt lat="43.73904" lon="3.48345">
        <ele>702.86</ele>
        <time>2018-06-30T10:53:43Z</time>
      </trkpt>
      <trkpt lat="43.73899" lon="3.48337">
        <ele>700.94</ele>
        <time>2018-06-30T10:54:03Z</time>
      </trkpt>
      <trkpt lat="43.73896" lon="3.48335">
        <ele>700.46</ele>
        <time>2018-06-30T10:54:06Z</time>
      </trkpt>
      <trkpt lat="43.73882" lon="3.48318">
        <ele>698.53</ele>
        <time>2018-06-30T10:54:24Z</time>
      </trkpt>
      <trkpt lat="43.73866" lon="3.48301">
        <ele>696.61</ele>
        <time>2018-06-30T10:54:43Z</time>
      </trkpt>
      <trkpt lat="43.73862" lon="3.48295">
        <ele>694.69</ele>
        <time>2018-06-30T10:54:50Z</time>
      </trkpt>
      <trkpt lat="43.73855" lon="3.48285">
        <ele>693.73</ele>
        <time>2018-06-30T10:55:04Z</time>
      </trkpt>
      <trkpt lat="43.73852" lon="3.4828">
        <ele>692.29</ele>
        <time>2018-06-30T10:55:09Z</time>
      </trkpt>
      <trkpt lat="43.73842" lon="3.48269">
        <ele>689.88</ele>
        <time>2018-06-30T10:55:23Z</time>
      </trkpt>
      <trkpt lat="43.7383" lon="3.48258">
        <ele>687.48</ele>
        <time>2018-06-30T10:55:38Z</time>
      </trkpt>
      <trkpt lat="43.73817" lon="3.48248">
        <ele>685.08</ele>
        <time>2018-06-30T10:55:53Z</time>
      </trkpt>
      <trkpt lat="43.73813" lon="3.48245">
        <ele>683.63</ele>
        <time>2018-06-30T10:55:58Z</time>
      </trkpt>
      <trkpt lat="43.73804" lon="3.48236">
        <ele>682.67</ele>
        <time>2018-06-30T10:56:09Z</time>
      </trkpt>
      <trkpt lat="43.7379" lon="3.48226">
        <ele>680.27</ele>
        <time>2018-06-30T10:56:26Z</time>
      </trkpt>
      <trkpt lat="43.73784" lon="3.48221">
        <ele>678.83</ele>
        <time>2018-06-30T10:56:33Z</time>
      </trkpt>
      <trkpt lat="43.73771" lon="3.4821">
        <ele>675.94</ele>
        <time>2018-06-30T10:56:50Z</time>
      </trkpt>
      <trkpt lat="43.73759" lon="3.48199">
        <ele>673.54</ele>
        <time>2018-06-30T10:57:06Z</time>
      </trkpt>
      <trkpt lat="43.73748" lon="3.48191">
        <ele>671.62</ele>
        <time>2018-06-30T10:57:21Z</time>
      </trkpt>
      <trkpt lat="43.73747" lon="3.4819">
        <ele>671.62</ele>
        <time>2018-06-30T10:57:22Z</time>
      </trkpt>
      <trkpt lat="43.73733" lon="3.48179">
        <ele>669.22</ele>
        <time>2018-06-30T10:57:38Z</time>
      </trkpt>
      <trkpt lat="43.73716" lon="3.4817">
        <ele>666.33</ele>
        <time>2018-06-30T10:57:55Z</time>
      </trkpt>
      <trkpt lat="43.737" lon="3.48162">
        <ele>663.93</ele>
        <time>2018-06-30T10:58:13Z</time>
      </trkpt>
      <trkpt lat="43.73687" lon="3.48153">
        <ele>662.01</ele>
        <time>2018-06-30T10:58:28Z</time>
      </trkpt>
      <trkpt lat="43.73672" lon="3.48144">
        <ele>660.08</ele>
        <time>2018-06-30T10:58:44Z</time>
      </trkpt>
      <trkpt lat="43.73658" lon="3.48129">
        <ele>658.16</ele>
        <time>2018-06-30T10:59:02Z</time>
      </trkpt>
      <trkpt lat="43.73647" lon="3.48119">
        <ele>656.72</ele>
        <time>2018-06-30T10:59:16Z</time>
      </trkpt>
      <trkpt lat="43.73636" lon="3.48111">
        <ele>654.8</ele>
        <time>2018-06-30T10:59:32Z</time>
      </trkpt>
      <trkpt lat="43.73627" lon="3.48109">
        <ele>652.87</ele>
        <time>2018-06-30T10:59:48Z</time>
      </trkpt>
      <trkpt lat="43.73627" lon="3.48121">
        <ele>651.91</ele>
        <time>2018-06-30T11:00:00Z</time>
      </trkpt>
      <trkpt lat="43.73629" lon="3.48133">
        <ele>650.47</ele>
        <time>2018-06-30T11:00:09Z</time>
      </trkpt>
      <trkpt lat="43.73635" lon="3.48156">
        <ele>649.03</ele>
        <time>2018-06-30T11:00:27Z</time>
      </trkpt>
      <trkpt lat="43.73639" lon="3.48171">
        <ele>647.1</ele>
        <time>2018-06-30T11:00:41Z</time>
      </trkpt>
      <trkpt lat="43.73644" lon="3.48188">
        <ele>645.66</ele>
        <time>2018-06-30T11:00:55Z</time>
      </trkpt>
      <trkpt lat="43.7365" lon="3.48206">
        <ele>643.74</ele>
        <time>2018-06-30T11:01:09Z</time>
      </trkpt>
      <trkpt lat="43.73656" lon="3.48221">
        <ele>642.3</ele>
        <time>2018-06-30T11:01:23Z</time>
      </trkpt>
      <trkpt lat="43.7366" lon="3.48233">
        <ele>641.34</ele>
        <time>2018-06-30T11:01:32Z</time>
      </trkpt>
      <trkpt lat="43.73665" lon="3.48249">
        <ele>640.86</ele>
        <time>2018-06-30T11:01:44Z</time>
      </trkpt>
      <trkpt lat="43.73674" lon="3.48265">
        <ele>639.41</ele>
        <time>2018-06-30T11:02:00Z</time>
      </trkpt>
      <trkpt lat="43.7368" lon="3.48271">
        <ele>638.93</ele>
        <time>2018-06-30T11:02:06Z</time>
      </trkpt>
      <trkpt lat="43.73682" lon="3.48276">
        <ele>638.93</ele>
        <time>2018-06-30T11:02:23Z</time>
      </trkpt>
      <trkpt lat="43.73686" lon="3.48277">
        <ele>637.97</ele>
        <time>2018-06-30T11:02:38Z</time>
      </trkpt>
      <trkpt lat="43.73686" lon="3.48278">
        <ele>637.97</ele>
        <time>2018-06-30T11:02:42Z</time>
      </trkpt>
      <trkpt lat="43.73701" lon="3.48295">
        <ele>636.05</ele>
        <time>2018-06-30T11:03:01Z</time>
      </trkpt>
      <trkpt lat="43.73713" lon="3.48312">
        <ele>635.09</ele>
        <time>2018-06-30T11:03:16Z</time>
      </trkpt>
      <trkpt lat="43.7372" lon="3.48328">
        <ele>633.65</ele>
        <time>2018-06-30T11:03:28Z</time>
      </trkpt>
      <trkpt lat="43.73726" lon="3.48341">
        <ele>632.68</ele>
        <time>2018-06-30T11:03:38Z</time>
      </trkpt>
      <trkpt lat="43.73733" lon="3.48362">
        <ele>630.76</ele>
        <time>2018-06-30T11:03:54Z</time>
      </trkpt>
      <trkpt lat="43.7374" lon="3.48381">
        <ele>628.36</ele>
        <time>2018-06-30T11:04:09Z</time>
      </trkpt>
      <trkpt lat="43.73742" lon="3.48388">
        <ele>627.88</ele>
        <time>2018-06-30T11:04:15Z</time>
      </trkpt>
      <trkpt lat="43.73749" lon="3.48404">
        <ele>626.92</ele>
        <time>2018-06-30T11:04:29Z</time>
      </trkpt>
      <trkpt lat="43.73749" lon="3.48406">
        <ele>626.92</ele>
        <time>2018-06-30T11:04:31Z</time>
      </trkpt>
      <trkpt lat="43.73751" lon="3.48413">
        <ele>626.44</ele>
        <time>2018-06-30T11:04:36Z</time>
      </trkpt>
      <trkpt lat="43.73757" lon="3.48435">
        <ele>624.03</ele>
        <time>2018-06-30T11:04:54Z</time>
      </trkpt>
      <trkpt lat="43.73762" lon="3.48457">
        <ele>622.11</ele>
        <time>2018-06-30T11:05:10Z</time>
      </trkpt>
      <trkpt lat="43.73766" lon="3.48479">
        <ele>620.19</ele>
        <time>2018-06-30T11:05:29Z</time>
      </trkpt>
      <trkpt lat="43.73767" lon="3.4849">
        <ele>619.23</ele>
        <time>2018-06-30T11:05:37Z</time>
      </trkpt>
      <trkpt lat="43.73768" lon="3.48503">
        <ele>618.26</ele>
        <time>2018-06-30T11:05:47Z</time>
      </trkpt>
      <trkpt lat="43.73772" lon="3.48523">
        <ele>616.34</ele>
        <time>2018-06-30T11:06:03Z</time>
      </trkpt>
      <trkpt lat="43.73775" lon="3.48541">
        <ele>614.9</ele>
        <time>2018-06-30T11:06:16Z</time>
      </trkpt>
      <trkpt lat="43.73775" lon="3.48542">
        <ele>614.9</ele>
        <time>2018-06-30T11:06:17Z</time>
      </trkpt>
      <trkpt lat="43.73776" lon="3.48546">
        <ele>613.94</ele>
        <time>2018-06-30T11:06:20Z</time>
      </trkpt>
      <trkpt lat="43.73778" lon="3.48557">
        <ele>613.46</ele>
        <time>2018-06-30T11:06:28Z</time>
      </trkpt>
      <trkpt lat="43.73781" lon="3.4858">
        <ele>611.06</ele>
        <time>2018-06-30T11:06:45Z</time>
      </trkpt>
      <trkpt lat="43.73783" lon="3.48603">
        <ele>609.13</ele>
        <time>2018-06-30T11:07:02Z</time>
      </trkpt>
      <trkpt lat="43.73783" lon="3.48604">
        <ele>609.13</ele>
        <time>2018-06-30T11:07:03Z</time>
      </trkpt>
      <trkpt lat="43.73787" lon="3.48624">
        <ele>607.69</ele>
        <time>2018-06-30T11:07:18Z</time>
      </trkpt>
      <trkpt lat="43.73794" lon="3.48642">
        <ele>606.25</ele>
        <time>2018-06-30T11:07:32Z</time>
      </trkpt>
      <trkpt lat="43.73804" lon="3.48659">
        <ele>604.33</ele>
        <time>2018-06-30T11:07:47Z</time>
      </trkpt>
      <trkpt lat="43.7381" lon="3.48669">
        <ele>603.36</ele>
        <time>2018-06-30T11:07:56Z</time>
      </trkpt>
      <trkpt lat="43.7381" lon="3.48674">
        <ele>602.88</ele>
        <time>2018-06-30T11:07:59Z</time>
      </trkpt>
      <trkpt lat="43.73801" lon="3.48676">
        <ele>601.44</ele>
        <time>2018-06-30T11:08:08Z</time>
      </trkpt>
      <trkpt lat="43.73788" lon="3.48672">
        <ele>600</ele>
        <time>2018-06-30T11:08:24Z</time>
      </trkpt>
      <trkpt lat="43.73785" lon="3.48669">
        <ele>600</ele>
        <time>2018-06-30T11:08:28Z</time>
      </trkpt>
      <trkpt lat="43.73773" lon="3.48656">
        <ele>599.04</ele>
        <time>2018-06-30T11:08:43Z</time>
      </trkpt>
      <trkpt lat="43.73764" lon="3.48645">
        <ele>597.6</ele>
        <time>2018-06-30T11:08:56Z</time>
      </trkpt>
      <trkpt lat="43.73753" lon="3.48626">
        <ele>595.19</ele>
        <time>2018-06-30T11:09:15Z</time>
      </trkpt>
      <trkpt lat="43.73744" lon="3.48611">
        <ele>593.27</ele>
        <time>2018-06-30T11:09:29Z</time>
      </trkpt>
      <trkpt lat="43.73737" lon="3.48596">
        <ele>591.83</ele>
        <time>2018-06-30T11:09:43Z</time>
      </trkpt>
      <trkpt lat="43.73729" lon="3.48594">
        <ele>589.43</ele>
        <time>2018-06-30T11:09:58Z</time>
      </trkpt>
      <trkpt lat="43.73727" lon="3.48612">
        <ele>587.5</ele>
        <time>2018-06-30T11:10:13Z</time>
      </trkpt>
      <trkpt lat="43.73725" lon="3.48634">
        <ele>586.06</ele>
        <time>2018-06-30T11:10:27Z</time>
      </trkpt>
      <trkpt lat="43.73725" lon="3.48637">
        <ele>585.1</ele>
        <time>2018-06-30T11:10:29Z</time>
      </trkpt>
      <trkpt lat="43.73725" lon="3.48643">
        <ele>584.14</ele>
        <time>2018-06-30T11:10:33Z</time>
      </trkpt>
      <trkpt lat="43.73731" lon="3.48669">
        <ele>581.25</ele>
        <time>2018-06-30T11:10:51Z</time>
      </trkpt>
      <trkpt lat="43.73731" lon="3.4867">
        <ele>581.25</ele>
        <time>2018-06-30T11:10:52Z</time>
      </trkpt>
      <trkpt lat="43.73741" lon="3.48693">
        <ele>579.33</ele>
        <time>2018-06-30T11:11:09Z</time>
      </trkpt>
      <trkpt lat="43.73751" lon="3.48712">
        <ele>577.89</ele>
        <time>2018-06-30T11:11:25Z</time>
      </trkpt>
      <trkpt lat="43.73761" lon="3.4873">
        <ele>575.01</ele>
        <time>2018-06-30T11:11:41Z</time>
      </trkpt>
      <trkpt lat="43.73774" lon="3.48748">
        <ele>572.12</ele>
        <time>2018-06-30T11:11:59Z</time>
      </trkpt>
      <trkpt lat="43.73783" lon="3.48773">
        <ele>570.2</ele>
        <time>2018-06-30T11:12:17Z</time>
      </trkpt>
      <trkpt lat="43.73789" lon="3.4879">
        <ele>567.8</ele>
        <time>2018-06-30T11:12:31Z</time>
      </trkpt>
      <trkpt lat="43.73791" lon="3.48801">
        <ele>567.32</ele>
        <time>2018-06-30T11:12:39Z</time>
      </trkpt>
      <trkpt lat="43.7379" lon="3.48809">
        <ele>566.35</ele>
        <time>2018-06-30T11:12:44Z</time>
      </trkpt>
      <trkpt lat="43.73778" lon="3.48829">
        <ele>564.43</ele>
        <time>2018-06-30T11:13:01Z</time>
      </trkpt>
      <trkpt lat="43.73763" lon="3.48848">
        <ele>561.55</ele>
        <time>2018-06-30T11:13:21Z</time>
      </trkpt>
      <trkpt lat="43.7375" lon="3.48862">
        <ele>559.14</ele>
        <time>2018-06-30T11:13:39Z</time>
      </trkpt>
      <trkpt lat="43.73738" lon="3.48878">
        <ele>556.74</ele>
        <time>2018-06-30T11:13:55Z</time>
      </trkpt>
      <trkpt lat="43.73726" lon="3.48893">
        <ele>554.34</ele>
        <time>2018-06-30T11:14:12Z</time>
      </trkpt>
      <trkpt lat="43.73716" lon="3.48909">
        <ele>552.41</ele>
        <time>2018-06-30T11:14:27Z</time>
      </trkpt>
      <trkpt lat="43.73708" lon="3.48925">
        <ele>550.01</ele>
        <time>2018-06-30T11:14:42Z</time>
      </trkpt>
      <trkpt lat="43.73702" lon="3.48948">
        <ele>547.13</ele>
        <time>2018-06-30T11:15:00Z</time>
      </trkpt>
      <trkpt lat="43.73702" lon="3.48955">
        <ele>546.65</ele>
        <time>2018-06-30T11:15:07Z</time>
      </trkpt>
      <trkpt lat="43.737" lon="3.48968">
        <ele>544.72</ele>
        <time>2018-06-30T11:15:16Z</time>
      </trkpt>
      <trkpt lat="43.737" lon="3.48982">
        <ele>543.28</ele>
        <time>2018-06-30T11:15:26Z</time>
      </trkpt>
      <trkpt lat="43.73701" lon="3.49007">
        <ele>541.36</ele>
        <time>2018-06-30T11:15:42Z</time>
      </trkpt>
      <trkpt lat="43.73702" lon="3.49015">
        <ele>539.92</ele>
        <time>2018-06-30T11:15:48Z</time>
      </trkpt>
      <trkpt lat="43.73706" lon="3.49036">
        <ele>538.48</ele>
        <time>2018-06-30T11:16:04Z</time>
      </trkpt>
      <trkpt lat="43.73709" lon="3.49056">
        <ele>536.07</ele>
        <time>2018-06-30T11:16:20Z</time>
      </trkpt>
      <trkpt lat="43.73711" lon="3.49072">
        <ele>534.63</ele>
        <time>2018-06-30T11:16:31Z</time>
      </trkpt>
      <trkpt lat="43.73704" lon="3.49071">
        <ele>532.71</ele>
        <time>2018-06-30T11:16:44Z</time>
      </trkpt>
      <trkpt lat="43.73701" lon="3.49068">
        <ele>532.23</ele>
        <time>2018-06-30T11:16:49Z</time>
      </trkpt>
      <trkpt lat="43.73689" lon="3.49047">
        <ele>529.82</ele>
        <time>2018-06-30T11:17:07Z</time>
      </trkpt>
      <trkpt lat="43.73687" lon="3.49045">
        <ele>529.82</ele>
        <time>2018-06-30T11:17:09Z</time>
      </trkpt>
      <trkpt lat="43.73678" lon="3.49028">
        <ele>528.86</ele>
        <time>2018-06-30T11:17:21Z</time>
      </trkpt>
      <trkpt lat="43.73664" lon="3.49004">
        <ele>526.94</ele>
        <time>2018-06-30T11:17:41Z</time>
      </trkpt>
      <trkpt lat="43.73653" lon="3.48979">
        <ele>526.46</ele>
        <time>2018-06-30T11:17:59Z</time>
      </trkpt>
      <trkpt lat="43.73647" lon="3.48963">
        <ele>524.54</ele>
        <time>2018-06-30T11:18:12Z</time>
      </trkpt>
      <trkpt lat="43.73639" lon="3.48958">
        <ele>522.13</ele>
        <time>2018-06-30T11:18:27Z</time>
      </trkpt>
      <trkpt lat="43.73635" lon="3.48972">
        <ele>519.73</ele>
        <time>2018-06-30T11:18:43Z</time>
      </trkpt>
      <trkpt lat="43.73634" lon="3.48987">
        <ele>517.81</ele>
        <time>2018-06-30T11:18:56Z</time>
      </trkpt>
      <trkpt lat="43.73633" lon="3.48996">
        <ele>515.88</ele>
        <time>2018-06-30T11:19:02Z</time>
      </trkpt>
      <trkpt lat="43.7363" lon="3.49015">
        <ele>513.48</ele>
        <time>2018-06-30T11:19:17Z</time>
      </trkpt>
      <trkpt lat="43.73631" lon="3.49031">
        <ele>511.56</ele>
        <time>2018-06-30T11:19:32Z</time>
      </trkpt>
      <trkpt lat="43.73632" lon="3.4905">
        <ele>508.67</ele>
        <time>2018-06-30T11:19:49Z</time>
      </trkpt>
      <trkpt lat="43.73634" lon="3.49053">
        <ele>508.19</ele>
        <time>2018-06-30T11:19:52Z</time>
      </trkpt>
      <trkpt lat="43.73639" lon="3.49067">
        <ele>506.27</ele>
        <time>2018-06-30T11:20:01Z</time>
      </trkpt>
      <trkpt lat="43.73648" lon="3.49085">
        <ele>503.39</ele>
        <time>2018-06-30T11:20:16Z</time>
      </trkpt>
      <trkpt lat="43.73654" lon="3.49107">
        <ele>500.5</ele>
        <time>2018-06-30T11:20:35Z</time>
      </trkpt>
      <trkpt lat="43.7366" lon="3.49136">
        <ele>497.62</ele>
        <time>2018-06-30T11:20:53Z</time>
      </trkpt>
      <trkpt lat="43.73664" lon="3.49153">
        <ele>496.18</ele>
        <time>2018-06-30T11:21:03Z</time>
      </trkpt>
      <trkpt lat="43.7367" lon="3.49174">
        <ele>493.29</ele>
        <time>2018-06-30T11:21:20Z</time>
      </trkpt>
      <trkpt lat="43.73673" lon="3.49193">
        <ele>491.85</ele>
        <time>2018-06-30T11:21:36Z</time>
      </trkpt>
      <trkpt lat="43.73676" lon="3.49208">
        <ele>490.41</ele>
        <time>2018-06-30T11:21:53Z</time>
      </trkpt>
      <trkpt lat="43.73683" lon="3.49231">
        <ele>487.53</ele>
        <time>2018-06-30T11:22:11Z</time>
      </trkpt>
      <trkpt lat="43.73687" lon="3.4925">
        <ele>485.12</ele>
        <time>2018-06-30T11:22:26Z</time>
      </trkpt>
      <trkpt lat="43.73691" lon="3.49272">
        <ele>482.72</ele>
        <time>2018-06-30T11:22:44Z</time>
      </trkpt>
      <trkpt lat="43.73695" lon="3.49281">
        <ele>481.28</ele>
        <time>2018-06-30T11:22:52Z</time>
      </trkpt>
      <trkpt lat="43.737" lon="3.49299">
        <ele>479.35</ele>
        <time>2018-06-30T11:23:07Z</time>
      </trkpt>
      <trkpt lat="43.73711" lon="3.49315">
        <ele>477.43</ele>
        <time>2018-06-30T11:23:22Z</time>
      </trkpt>
      <trkpt lat="43.73726" lon="3.49336">
        <ele>475.99</ele>
        <time>2018-06-30T11:23:40Z</time>
      </trkpt>
      <trkpt lat="43.7374" lon="3.49359">
        <ele>473.59</ele>
        <time>2018-06-30T11:23:59Z</time>
      </trkpt>
      <trkpt lat="43.73746" lon="3.49368">
        <ele>472.63</ele>
        <time>2018-06-30T11:24:08Z</time>
      </trkpt>
      <trkpt lat="43.73748" lon="3.49381">
        <ele>471.18</ele>
        <time>2018-06-30T11:24:22Z</time>
      </trkpt>
      <trkpt lat="43.73735" lon="3.49379">
        <ele>467.82</ele>
        <time>2018-06-30T11:24:37Z</time>
      </trkpt>
      <trkpt lat="43.73733" lon="3.49379">
        <ele>467.82</ele>
        <time>2018-06-30T11:24:39Z</time>
      </trkpt>
      <trkpt lat="43.7372" lon="3.49377">
        <ele>464.45</ele>
        <time>2018-06-30T11:24:55Z</time>
      </trkpt>
      <trkpt lat="43.73706" lon="3.49372">
        <ele>462.53</ele>
        <time>2018-06-30T11:25:12Z</time>
      </trkpt>
      <trkpt lat="43.73692" lon="3.49368">
        <ele>460.13</ele>
        <time>2018-06-30T11:25:27Z</time>
      </trkpt>
      <trkpt lat="43.73675" lon="3.49356">
        <ele>458.69</ele>
        <time>2018-06-30T11:25:43Z</time>
      </trkpt>
      <trkpt lat="43.73668" lon="3.49342">
        <ele>457.24</ele>
        <time>2018-06-30T11:25:53Z</time>
      </trkpt>
      <trkpt lat="43.73659" lon="3.49318">
        <ele>456.28</ele>
        <time>2018-06-30T11:26:10Z</time>
      </trkpt>
      <trkpt lat="43.7365" lon="3.49302">
        <ele>454.36</ele>
        <time>2018-06-30T11:26:26Z</time>
      </trkpt>
      <trkpt lat="43.73642" lon="3.49294">
        <ele>453.4</ele>
        <time>2018-06-30T11:26:37Z</time>
      </trkpt>
      <trkpt lat="43.73637" lon="3.49288">
        <ele>452.92</ele>
        <time>2018-06-30T11:26:42Z</time>
      </trkpt>
      <trkpt lat="43.73628" lon="3.49279">
        <ele>452.44</ele>
        <time>2018-06-30T11:26:52Z</time>
      </trkpt>
      <trkpt lat="43.73616" lon="3.49267">
        <ele>450.03</ele>
        <time>2018-06-30T11:27:08Z</time>
      </trkpt>
      <trkpt lat="43.73613" lon="3.49262">
        <ele>449.55</ele>
        <time>2018-06-30T11:27:12Z</time>
      </trkpt>
      <trkpt lat="43.73599" lon="3.49245">
        <ele>447.63</ele>
        <time>2018-06-30T11:27:28Z</time>
      </trkpt>
      <trkpt lat="43.73587" lon="3.49224">
        <ele>445.23</ele>
        <time>2018-06-30T11:27:44Z</time>
      </trkpt>
      <trkpt lat="43.73576" lon="3.49205">
        <ele>443.79</ele>
        <time>2018-06-30T11:27:59Z</time>
      </trkpt>
      <trkpt lat="43.73569" lon="3.49194">
        <ele>442.82</ele>
        <time>2018-06-30T11:28:09Z</time>
      </trkpt>
      <trkpt lat="43.73567" lon="3.49194">
        <ele>442.34</ele>
        <time>2018-06-30T11:28:11Z</time>
      </trkpt>
      <trkpt lat="43.73551" lon="3.49177">
        <ele>440.42</ele>
        <time>2018-06-30T11:28:27Z</time>
      </trkpt>
      <trkpt lat="43.73546" lon="3.49168">
        <ele>439.94</ele>
        <time>2018-06-30T11:28:33Z</time>
      </trkpt>
      <trkpt lat="43.73544" lon="3.49166">
        <ele>439.94</ele>
        <time>2018-06-30T11:28:35Z</time>
      </trkpt>
      <trkpt lat="43.73531" lon="3.49149">
        <ele>438.02</ele>
        <time>2018-06-30T11:28:50Z</time>
      </trkpt>
      <trkpt lat="43.73519" lon="3.49134">
        <ele>436.58</ele>
        <time>2018-06-30T11:29:05Z</time>
      </trkpt>
      <trkpt lat="43.73509" lon="3.49122">
        <ele>434.65</ele>
        <time>2018-06-30T11:29:20Z</time>
      </trkpt>
      <trkpt lat="43.73499" lon="3.49109">
        <ele>433.21</ele>
        <time>2018-06-30T11:29:35Z</time>
      </trkpt>
      <trkpt lat="43.73492" lon="3.4909">
        <ele>431.29</ele>
        <time>2018-06-30T11:29:48Z</time>
      </trkpt>
      <trkpt lat="43.73482" lon="3.49071">
        <ele>429.37</ele>
        <time>2018-06-30T11:30:02Z</time>
      </trkpt>
      <trkpt lat="43.73478" lon="3.49059">
        <ele>429.37</ele>
        <time>2018-06-30T11:30:10Z</time>
      </trkpt>
      <trkpt lat="43.73467" lon="3.49033">
        <ele>428.89</ele>
        <time>2018-06-30T11:30:28Z</time>
      </trkpt>
      <trkpt lat="43.73459" lon="3.49015">
        <ele>427.44</ele>
        <time>2018-06-30T11:30:45Z</time>
      </trkpt>
      <trkpt lat="43.73454" lon="3.49002">
        <ele>426.96</ele>
        <time>2018-06-30T11:31:01Z</time>
      </trkpt>
      <trkpt lat="43.73451" lon="3.48999">
        <ele>426.48</ele>
        <time>2018-06-30T11:31:08Z</time>
      </trkpt>
      <trkpt lat="43.73449" lon="3.49001">
        <ele>424.56</ele>
        <time>2018-06-30T11:31:12Z</time>
      </trkpt>
      <trkpt lat="43.7344" lon="3.49">
        <ele>422.16</ele>
        <time>2018-06-30T11:31:29Z</time>
      </trkpt>
      <trkpt lat="43.73437" lon="3.48995">
        <ele>421.68</ele>
        <time>2018-06-30T11:31:49Z</time>
      </trkpt>
      <trkpt lat="43.73437" lon="3.48995">
        <ele>421.68</ele>
        <time>2018-06-30T11:31:59Z</time>
      </trkpt>
      <trkpt lat="43.73439" lon="3.48998">
        <ele>421.68</ele>
        <time>2018-06-30T11:32:12Z</time>
      </trkpt>
      <trkpt lat="43.7344" lon="3.49">
        <ele>421.68</ele>
        <time>2018-06-30T11:32:40Z</time>
      </trkpt>
      <trkpt lat="43.7344" lon="3.49">
        <ele>423.12</ele>
        <time>2018-06-30T11:33:02Z</time>
      </trkpt>
      <trkpt lat="43.7344" lon="3.49002">
        <ele>423.12</ele>
        <time>2018-06-30T11:33:26Z</time>
      </trkpt>
      <trkpt lat="43.7344" lon="3.49004">
        <ele>422.16</ele>
        <time>2018-06-30T11:33:52Z</time>
      </trkpt>
      <trkpt lat="43.73442" lon="3.49005">
        <ele>422.16</ele>
        <time>2018-06-30T11:34:13Z</time>
      </trkpt>
      <trkpt lat="43.73441" lon="3.49006">
        <ele>422.16</ele>
        <time>2018-06-30T11:34:39Z</time>
      </trkpt>
      <trkpt lat="43.73438" lon="3.49008">
        <ele>421.19</ele>
        <time>2018-06-30T11:35:05Z</time>
      </trkpt>
      <trkpt lat="43.73437" lon="3.4901">
        <ele>420.71</ele>
        <time>2018-06-30T11:35:21Z</time>
      </trkpt>
      <trkpt lat="43.73439" lon="3.49019">
        <ele>419.75</ele>
        <time>2018-06-30T11:35:31Z</time>
      </trkpt>
      <trkpt lat="43.73442" lon="3.49039">
        <ele>418.31</ele>
        <time>2018-06-30T11:35:47Z</time>
      </trkpt>
      <trkpt lat="43.73446" lon="3.49062">
        <ele>415.43</ele>
        <time>2018-06-30T11:36:05Z</time>
      </trkpt>
      <trkpt lat="43.73449" lon="3.49072">
        <ele>415.43</ele>
        <time>2018-06-30T11:36:16Z</time>
      </trkpt>
      <trkpt lat="43.73453" lon="3.49079">
        <ele>414.95</ele>
        <time>2018-06-30T11:36:22Z</time>
      </trkpt>
      <trkpt lat="43.73456" lon="3.49087">
        <ele>413.98</ele>
        <time>2018-06-30T11:36:38Z</time>
      </trkpt>
      <trkpt lat="43.73458" lon="3.4909">
        <ele>413.98</ele>
        <time>2018-06-30T11:36:57Z</time>
      </trkpt>
      <trkpt lat="43.73454" lon="3.49096">
        <ele>413.98</ele>
        <time>2018-06-30T11:37:22Z</time>
      </trkpt>
      <trkpt lat="43.73454" lon="3.49096">
        <ele>413.98</ele>
        <time>2018-06-30T11:37:54Z</time>
      </trkpt>
      <trkpt lat="43.73457" lon="3.49091">
        <ele>413.5</ele>
        <time>2018-06-30T11:38:21Z</time>
      </trkpt>
      <trkpt lat="43.73455" lon="3.49093">
        <ele>413.5</ele>
        <time>2018-06-30T11:38:51Z</time>
      </trkpt>
      <trkpt lat="43.73459" lon="3.491">
        <ele>413.5</ele>
        <time>2018-06-30T11:39:17Z</time>
      </trkpt>
      <trkpt lat="43.73467" lon="3.49118">
        <ele>412.54</ele>
        <time>2018-06-30T11:39:35Z</time>
      </trkpt>
      <trkpt lat="43.73468" lon="3.49122">
        <ele>412.54</ele>
        <time>2018-06-30T11:39:38Z</time>
      </trkpt>
      <trkpt lat="43.73473" lon="3.49138">
        <ele>411.1</ele>
        <time>2018-06-30T11:39:52Z</time>
      </trkpt>
      <trkpt lat="43.73473" lon="3.49141">
        <ele>410.62</ele>
        <time>2018-06-30T11:39:54Z</time>
      </trkpt>
      <trkpt lat="43.7348" lon="3.49164">
        <ele>409.66</ele>
        <time>2018-06-30T11:40:10Z</time>
      </trkpt>
      <trkpt lat="43.73489" lon="3.49187">
        <ele>409.18</ele>
        <time>2018-06-30T11:40:26Z</time>
      </trkpt>
      <trkpt lat="43.73494" lon="3.49196">
        <ele>409.18</ele>
        <time>2018-06-30T11:40:33Z</time>
      </trkpt>
      <trkpt lat="43.73495" lon="3.49204">
        <ele>409.18</ele>
        <time>2018-06-30T11:40:38Z</time>
      </trkpt>
      <trkpt lat="43.73494" lon="3.49224">
        <ele>407.74</ele>
        <time>2018-06-30T11:40:54Z</time>
      </trkpt>
      <trkpt lat="43.73502" lon="3.49238">
        <ele>409.18</ele>
        <time>2018-06-30T11:41:09Z</time>
      </trkpt>
      <trkpt lat="43.73507" lon="3.49245">
        <ele>409.18</ele>
        <time>2018-06-30T11:41:15Z</time>
      </trkpt>
      <trkpt lat="43.73508" lon="3.49248">
        <ele>409.18</ele>
        <time>2018-06-30T11:41:17Z</time>
      </trkpt>
      <trkpt lat="43.73517" lon="3.49265">
        <ele>410.14</ele>
        <time>2018-06-30T11:41:32Z</time>
      </trkpt>
      <trkpt lat="43.7353" lon="3.49281">
        <ele>411.58</ele>
        <time>2018-06-30T11:41:50Z</time>
      </trkpt>
      <trkpt lat="43.7354" lon="3.49297">
        <ele>413.02</ele>
        <time>2018-06-30T11:42:09Z</time>
      </trkpt>
      <trkpt lat="43.73548" lon="3.49309">
        <ele>413.98</ele>
        <time>2018-06-30T11:42:22Z</time>
      </trkpt>
      <trkpt lat="43.73558" lon="3.49324">
        <ele>415.43</ele>
        <time>2018-06-30T11:42:35Z</time>
      </trkpt>
      <trkpt lat="43.73575" lon="3.49334">
        <ele>416.87</ele>
        <time>2018-06-30T11:42:54Z</time>
      </trkpt>
      <trkpt lat="43.7359" lon="3.49347">
        <ele>417.83</ele>
        <time>2018-06-30T11:43:10Z</time>
      </trkpt>
      <trkpt lat="43.73591" lon="3.49348">
        <ele>417.83</ele>
        <time>2018-06-30T11:43:11Z</time>
      </trkpt>
      <trkpt lat="43.73599" lon="3.4937">
        <ele>419.27</ele>
        <time>2018-06-30T11:43:28Z</time>
      </trkpt>
      <trkpt lat="43.73607" lon="3.49387">
        <ele>421.19</ele>
        <time>2018-06-30T11:43:42Z</time>
      </trkpt>
      <trkpt lat="43.73619" lon="3.49402">
        <ele>422.64</ele>
        <time>2018-06-30T11:43:57Z</time>
      </trkpt>
      <trkpt lat="43.73627" lon="3.49412">
        <ele>423.12</ele>
        <time>2018-06-30T11:44:08Z</time>
      </trkpt>
      <trkpt lat="43.73629" lon="3.49415">
        <ele>423.6</ele>
        <time>2018-06-30T11:44:11Z</time>
      </trkpt>
      <trkpt lat="43.73634" lon="3.49439">
        <ele>425.04</ele>
        <time>2018-06-30T11:44:27Z</time>
      </trkpt>
      <trkpt lat="43.73637" lon="3.49463">
        <ele>426.48</ele>
        <time>2018-06-30T11:44:42Z</time>
      </trkpt>
      <trkpt lat="43.73644" lon="3.4948">
        <ele>427.44</ele>
        <time>2018-06-30T11:44:56Z</time>
      </trkpt>
      <trkpt lat="43.7365" lon="3.49485">
        <ele>427.92</ele>
        <time>2018-06-30T11:45:02Z</time>
      </trkpt>
      <trkpt lat="43.73661" lon="3.49501">
        <ele>429.37</ele>
        <time>2018-06-30T11:45:18Z</time>
      </trkpt>
      <trkpt lat="43.73663" lon="3.49503">
        <ele>429.85</ele>
        <time>2018-06-30T11:45:21Z</time>
      </trkpt>
      <trkpt lat="43.73664" lon="3.49505">
        <ele>429.85</ele>
        <time>2018-06-30T11:45:23Z</time>
      </trkpt>
      <trkpt lat="43.73675" lon="3.49517">
        <ele>431.29</ele>
        <time>2018-06-30T11:45:37Z</time>
      </trkpt>
      <trkpt lat="43.73692" lon="3.49534">
        <ele>432.73</ele>
        <time>2018-06-30T11:45:54Z</time>
      </trkpt>
      <trkpt lat="43.73694" lon="3.49537">
        <ele>433.21</ele>
        <time>2018-06-30T11:45:57Z</time>
      </trkpt>
      <trkpt lat="43.73713" lon="3.49558">
        <ele>434.65</ele>
        <time>2018-06-30T11:46:17Z</time>
      </trkpt>
      <trkpt lat="43.73725" lon="3.4957">
        <ele>434.65</ele>
        <time>2018-06-30T11:46:30Z</time>
      </trkpt>
      <trkpt lat="43.73738" lon="3.49585">
        <ele>436.1</ele>
        <time>2018-06-30T11:46:45Z</time>
      </trkpt>
      <trkpt lat="43.73751" lon="3.49601">
        <ele>437.06</ele>
        <time>2018-06-30T11:47:00Z</time>
      </trkpt>
      <trkpt lat="43.73757" lon="3.49611">
        <ele>438.02</ele>
        <time>2018-06-30T11:47:08Z</time>
      </trkpt>
      <trkpt lat="43.73762" lon="3.4962">
        <ele>438.5</ele>
        <time>2018-06-30T11:47:15Z</time>
      </trkpt>
      <trkpt lat="43.73775" lon="3.49642">
        <ele>439.94</ele>
        <time>2018-06-30T11:47:32Z</time>
      </trkpt>
      <trkpt lat="43.73785" lon="3.4966">
        <ele>440.42</ele>
        <time>2018-06-30T11:47:46Z</time>
      </trkpt>
      <trkpt lat="43.73797" lon="3.49681">
        <ele>441.38</ele>
        <time>2018-06-30T11:48:02Z</time>
      </trkpt>
      <trkpt lat="43.73802" lon="3.49692">
        <ele>442.82</ele>
        <time>2018-06-30T11:48:19Z</time>
      </trkpt>
      <trkpt lat="43.73803" lon="3.49698">
        <ele>442.82</ele>
        <time>2018-06-30T11:48:36Z</time>
      </trkpt>
      <trkpt lat="43.73816" lon="3.4971">
        <ele>443.79</ele>
        <time>2018-06-30T11:48:50Z</time>
      </trkpt>
      <trkpt lat="43.7382" lon="3.49713">
        <ele>444.27</ele>
        <time>2018-06-30T11:48:54Z</time>
      </trkpt>
      <trkpt lat="43.73833" lon="3.49736">
        <ele>445.23</ele>
        <time>2018-06-30T11:49:11Z</time>
      </trkpt>
      <trkpt lat="43.73843" lon="3.49766">
        <ele>446.67</ele>
        <time>2018-06-30T11:49:29Z</time>
      </trkpt>
      <trkpt lat="43.73846" lon="3.49773">
        <ele>447.15</ele>
        <time>2018-06-30T11:49:34Z</time>
      </trkpt>
      <trkpt lat="43.73849" lon="3.49779">
        <ele>447.63</ele>
        <time>2018-06-30T11:49:38Z</time>
      </trkpt>
      <trkpt lat="43.73864" lon="3.49797">
        <ele>449.07</ele>
        <time>2018-06-30T11:49:54Z</time>
      </trkpt>
      <trkpt lat="43.73868" lon="3.49823">
        <ele>450.03</ele>
        <time>2018-06-30T11:50:10Z</time>
      </trkpt>
      <trkpt lat="43.73868" lon="3.4983">
        <ele>450.52</ele>
        <time>2018-06-30T11:50:26Z</time>
      </trkpt>
      <trkpt lat="43.73868" lon="3.49832">
        <ele>450.52</ele>
        <time>2018-06-30T11:50:27Z</time>
      </trkpt>
      <trkpt lat="43.73866" lon="3.49836">
        <ele>450.52</ele>
        <time>2018-06-30T11:50:30Z</time>
      </trkpt>
      <trkpt lat="43.73859" lon="3.49863">
        <ele>452.92</ele>
        <time>2018-06-30T11:50:49Z</time>
      </trkpt>
      <trkpt lat="43.73854" lon="3.49885">
        <ele>453.88</ele>
        <time>2018-06-30T11:51:05Z</time>
      </trkpt>
      <trkpt lat="43.73854" lon="3.49887">
        <ele>453.88</ele>
        <time>2018-06-30T11:51:07Z</time>
      </trkpt>
      <trkpt lat="43.73851" lon="3.49891">
        <ele>453.88</ele>
        <time>2018-06-30T11:51:17Z</time>
      </trkpt>
      <trkpt lat="43.73862" lon="3.49897">
        <ele>454.36</ele>
        <time>2018-06-30T11:51:32Z</time>
      </trkpt>
      <trkpt lat="43.73863" lon="3.49898">
        <ele>454.36</ele>
        <time>2018-06-30T11:51:34Z</time>
      </trkpt>
      <trkpt lat="43.73874" lon="3.49911">
        <ele>455.32</ele>
        <time>2018-06-30T11:51:47Z</time>
      </trkpt>
      <trkpt lat="43.73877" lon="3.49918">
        <ele>455.8</ele>
        <time>2018-06-30T11:51:52Z</time>
      </trkpt>
      <trkpt lat="43.73892" lon="3.49944">
        <ele>457.24</ele>
        <time>2018-06-30T11:52:13Z</time>
      </trkpt>
      <trkpt lat="43.73893" lon="3.49945">
        <ele>457.24</ele>
        <time>2018-06-30T11:52:14Z</time>
      </trkpt>
      <trkpt lat="43.73899" lon="3.49947">
        <ele>457.24</ele>
        <time>2018-06-30T11:52:19Z</time>
      </trkpt>
      <trkpt lat="43.7392" lon="3.49941">
        <ele>457.72</ele>
        <time>2018-06-30T11:52:37Z</time>
      </trkpt>
      <trkpt lat="43.73937" lon="3.49961">
        <ele>456.28</ele>
        <time>2018-06-30T11:52:54Z</time>
      </trkpt>
      <trkpt lat="43.73938" lon="3.49963">
        <ele>456.28</ele>
        <time>2018-06-30T11:52:55Z</time>
      </trkpt>
      <trkpt lat="43.73943" lon="3.49989">
        <ele>455.8</ele>
        <time>2018-06-30T11:53:11Z</time>
      </trkpt>
      <trkpt lat="43.73948" lon="3.50005">
        <ele>455.8</ele>
        <time>2018-06-30T11:53:22Z</time>
      </trkpt>
      <trkpt lat="43.73968" lon="3.50017">
        <ele>455.8</ele>
        <time>2018-06-30T11:53:40Z</time>
      </trkpt>
      <trkpt lat="43.73986" lon="3.50017">
        <ele>457.24</ele>
        <time>2018-06-30T11:53:54Z</time>
      </trkpt>
      <trkpt lat="43.73987" lon="3.50018">
        <ele>457.24</ele>
        <time>2018-06-30T11:53:55Z</time>
      </trkpt>
      <trkpt lat="43.73995" lon="3.50028">
        <ele>457.24</ele>
        <time>2018-06-30T11:54:03Z</time>
      </trkpt>
      <trkpt lat="43.73992" lon="3.50057">
        <ele>458.21</ele>
        <time>2018-06-30T11:54:18Z</time>
      </trkpt>
      <trkpt lat="43.73977" lon="3.50083">
        <ele>458.69</ele>
        <time>2018-06-30T11:54:36Z</time>
      </trkpt>
      <trkpt lat="43.7397" lon="3.50102">
        <ele>458.69</ele>
        <time>2018-06-30T11:54:51Z</time>
      </trkpt>
      <trkpt lat="43.73972" lon="3.50113">
        <ele>458.69</ele>
        <time>2018-06-30T11:54:58Z</time>
      </trkpt>
      <trkpt lat="43.7398" lon="3.50143">
        <ele>459.17</ele>
        <time>2018-06-30T11:55:16Z</time>
      </trkpt>
      <trkpt lat="43.73994" lon="3.50139">
        <ele>459.17</ele>
        <time>2018-06-30T11:55:31Z</time>
      </trkpt>
      <trkpt lat="43.74011" lon="3.50123">
        <ele>459.65</ele>
        <time>2018-06-30T11:55:48Z</time>
      </trkpt>
      <trkpt lat="43.74014" lon="3.50122">
        <ele>459.65</ele>
        <time>2018-06-30T11:55:50Z</time>
      </trkpt>
      <trkpt lat="43.74021" lon="3.50117">
        <ele>459.65</ele>
        <time>2018-06-30T11:55:56Z</time>
      </trkpt>
      <trkpt lat="43.7404" lon="3.50098">
        <ele>458.21</ele>
        <time>2018-06-30T11:56:15Z</time>
      </trkpt>
      <trkpt lat="43.74061" lon="3.50091">
        <ele>458.21</ele>
        <time>2018-06-30T11:56:33Z</time>
      </trkpt>
      <trkpt lat="43.74083" lon="3.50107">
        <ele>459.65</ele>
        <time>2018-06-30T11:56:52Z</time>
      </trkpt>
      <trkpt lat="43.74092" lon="3.50136">
        <ele>460.13</ele>
        <time>2018-06-30T11:57:10Z</time>
      </trkpt>
      <trkpt lat="43.74108" lon="3.50164">
        <ele>460.13</ele>
        <time>2018-06-30T11:57:30Z</time>
      </trkpt>
      <trkpt lat="43.74125" lon="3.50183">
        <ele>460.61</ele>
        <time>2018-06-30T11:57:47Z</time>
      </trkpt>
      <trkpt lat="43.74132" lon="3.50208">
        <ele>460.61</ele>
        <time>2018-06-30T11:58:02Z</time>
      </trkpt>
      <trkpt lat="43.7413" lon="3.50221">
        <ele>461.09</ele>
        <time>2018-06-30T11:58:15Z</time>
      </trkpt>
      <trkpt lat="43.7413" lon="3.50221">
        <ele>461.09</ele>
        <time>2018-06-30T11:58:36Z</time>
      </trkpt>
      <trkpt lat="43.74132" lon="3.50222">
        <ele>460.13</ele>
        <time>2018-06-30T11:58:59Z</time>
      </trkpt>
      <trkpt lat="43.74132" lon="3.50223">
        <ele>461.57</ele>
        <time>2018-06-30T11:59:24Z</time>
      </trkpt>
      <trkpt lat="43.74133" lon="3.50226">
        <ele>461.57</ele>
        <time>2018-06-30T11:59:59Z</time>
      </trkpt>
      <trkpt lat="43.74136" lon="3.50226">
        <ele>461.57</ele>
        <time>2018-06-30T12:00:32Z</time>
      </trkpt>
      <trkpt lat="43.74135" lon="3.50226">
        <ele>461.57</ele>
        <time>2018-06-30T12:00:56Z</time>
      </trkpt>
      <trkpt lat="43.7413" lon="3.50223">
        <ele>461.57</ele>
        <time>2018-06-30T12:01:26Z</time>
      </trkpt>
      <trkpt lat="43.74133" lon="3.5022">
        <ele>462.05</ele>
        <time>2018-06-30T12:01:46Z</time>
      </trkpt>
      <trkpt lat="43.74131" lon="3.5022">
        <ele>462.05</ele>
        <time>2018-06-30T12:02:12Z</time>
      </trkpt>
      <trkpt lat="43.7413" lon="3.50219">
        <ele>462.05</ele>
        <time>2018-06-30T12:02:38Z</time>
      </trkpt>
      <trkpt lat="43.74131" lon="3.50219">
        <ele>462.05</ele>
        <time>2018-06-30T12:02:58Z</time>
      </trkpt>
      <trkpt lat="43.74133" lon="3.50219">
        <ele>462.05</ele>
        <time>2018-06-30T12:03:32Z</time>
      </trkpt>
      <trkpt lat="43.74134" lon="3.50216">
        <ele>462.05</ele>
        <time>2018-06-30T12:03:50Z</time>
      </trkpt>
      <trkpt lat="43.74133" lon="3.50213">
        <ele>462.53</ele>
        <time>2018-06-30T12:04:15Z</time>
      </trkpt>
      <trkpt lat="43.74134" lon="3.50212">
        <ele>463.01</ele>
        <time>2018-06-30T12:04:40Z</time>
      </trkpt>
      <trkpt lat="43.74137" lon="3.50224">
        <ele>462.05</ele>
        <time>2018-06-30T12:05:00Z</time>
      </trkpt>
      <trkpt lat="43.74137" lon="3.50233">
        <ele>463.01</ele>
        <time>2018-06-30T12:05:17Z</time>
      </trkpt>
      <trkpt lat="43.74138" lon="3.5022">
        <ele>463.01</ele>
        <time>2018-06-30T12:05:40Z</time>
      </trkpt>
      <trkpt lat="43.74133" lon="3.50222">
        <ele>463.01</ele>
        <time>2018-06-30T12:05:53Z</time>
      </trkpt>
      <trkpt lat="43.74133" lon="3.50225">
        <ele>461.57</ele>
        <time>2018-06-30T12:05:55Z</time>
      </trkpt>
      <trkpt lat="43.74132" lon="3.50235">
        <ele>460.61</ele>
        <time>2018-06-30T12:06:09Z</time>
      </trkpt>
      <trkpt lat="43.74127" lon="3.50257">
        <ele>460.13</ele>
        <time>2018-06-30T12:06:25Z</time>
      </trkpt>
      <trkpt lat="43.74121" lon="3.5028">
        <ele>458.69</ele>
        <time>2018-06-30T12:06:41Z</time>
      </trkpt>
      <trkpt lat="43.74121" lon="3.50281">
        <ele>458.69</ele>
        <time>2018-06-30T12:06:42Z</time>
      </trkpt>
      <trkpt lat="43.7412" lon="3.50288">
        <ele>458.21</ele>
        <time>2018-06-30T12:06:46Z</time>
      </trkpt>
      <trkpt lat="43.7412" lon="3.50307">
        <ele>456.76</ele>
        <time>2018-06-30T12:07:01Z</time>
      </trkpt>
      <trkpt lat="43.74119" lon="3.50336">
        <ele>454.84</ele>
        <time>2018-06-30T12:07:19Z</time>
      </trkpt>
      <trkpt lat="43.74118" lon="3.5034">
        <ele>454.36</ele>
        <time>2018-06-30T12:07:22Z</time>
      </trkpt>
      <trkpt lat="43.74116" lon="3.50367">
        <ele>451.96</ele>
        <time>2018-06-30T12:07:39Z</time>
      </trkpt>
      <trkpt lat="43.74116" lon="3.50376">
        <ele>450.52</ele>
        <time>2018-06-30T12:07:45Z</time>
      </trkpt>
      <trkpt lat="43.74116" lon="3.50381">
        <ele>450.52</ele>
        <time>2018-06-30T12:07:48Z</time>
      </trkpt>
      <trkpt lat="43.7411" lon="3.50392">
        <ele>449.55</ele>
        <time>2018-06-30T12:08:06Z</time>
      </trkpt>
      <trkpt lat="43.74109" lon="3.50393">
        <ele>449.55</ele>
        <time>2018-06-30T12:08:23Z</time>
      </trkpt>
      <trkpt lat="43.7411" lon="3.50394">
        <ele>449.07</ele>
        <time>2018-06-30T12:08:52Z</time>
      </trkpt>
      <trkpt lat="43.74106" lon="3.50405">
        <ele>448.11</ele>
        <time>2018-06-30T12:09:18Z</time>
      </trkpt>
      <trkpt lat="43.74091" lon="3.50436">
        <ele>446.67</ele>
        <time>2018-06-30T12:09:37Z</time>
      </trkpt>
      <trkpt lat="43.74092" lon="3.50466">
        <ele>444.75</ele>
        <time>2018-06-30T12:09:51Z</time>
      </trkpt>
      <trkpt lat="43.74095" lon="3.50499">
        <ele>442.82</ele>
        <time>2018-06-30T12:10:08Z</time>
      </trkpt>
      <trkpt lat="43.74099" lon="3.50528">
        <ele>441.86</ele>
        <time>2018-06-30T12:10:24Z</time>
      </trkpt>
      <trkpt lat="43.74101" lon="3.50559">
        <ele>439.94</ele>
        <time>2018-06-30T12:10:40Z</time>
      </trkpt>
      <trkpt lat="43.74101" lon="3.50565">
        <ele>439.46</ele>
        <time>2018-06-30T12:10:44Z</time>
      </trkpt>
      <trkpt lat="43.74102" lon="3.50583">
        <ele>438.02</ele>
        <time>2018-06-30T12:11:01Z</time>
      </trkpt>
      <trkpt lat="43.74102" lon="3.50581">
        <ele>438.02</ele>
        <time>2018-06-30T12:11:09Z</time>
      </trkpt>
      <trkpt lat="43.74111" lon="3.50549">
        <ele>437.06</ele>
        <time>2018-06-30T12:11:29Z</time>
      </trkpt>
      <trkpt lat="43.74123" lon="3.50527">
        <ele>438.5</ele>
        <time>2018-06-30T12:11:45Z</time>
      </trkpt>
      <trkpt lat="43.74142" lon="3.50511">
        <ele>438.98</ele>
        <time>2018-06-30T12:12:04Z</time>
      </trkpt>
      <trkpt lat="43.74156" lon="3.50503">
        <ele>439.94</ele>
        <time>2018-06-30T12:12:17Z</time>
      </trkpt>
      <trkpt lat="43.74172" lon="3.505">
        <ele>440.9</ele>
        <time>2018-06-30T12:12:32Z</time>
      </trkpt>
      <trkpt lat="43.74182" lon="3.5049">
        <ele>442.82</ele>
        <time>2018-06-30T12:12:50Z</time>
      </trkpt>
      <trkpt lat="43.74185" lon="3.50486">
        <ele>443.31</ele>
        <time>2018-06-30T12:12:55Z</time>
      </trkpt>
      <trkpt lat="43.74197" lon="3.5048">
        <ele>441.86</ele>
        <time>2018-06-30T12:13:09Z</time>
      </trkpt>
      <trkpt lat="43.74206" lon="3.50489">
        <ele>439.94</ele>
        <time>2018-06-30T12:13:24Z</time>
      </trkpt>
      <trkpt lat="43.7421" lon="3.50492">
        <ele>439.46</ele>
        <time>2018-06-30T12:13:40Z</time>
      </trkpt>
      <trkpt lat="43.74218" lon="3.50489">
        <ele>437.06</ele>
        <time>2018-06-30T12:13:53Z</time>
      </trkpt>
      <trkpt lat="43.74227" lon="3.50485">
        <ele>434.65</ele>
        <time>2018-06-30T12:14:09Z</time>
      </trkpt>
      <trkpt lat="43.74239" lon="3.50486">
        <ele>431.77</ele>
        <time>2018-06-30T12:14:26Z</time>
      </trkpt>
      <trkpt lat="43.7425" lon="3.50497">
        <ele>429.37</ele>
        <time>2018-06-30T12:14:43Z</time>
      </trkpt>
      <trkpt lat="43.74258" lon="3.50507">
        <ele>426.96</ele>
        <time>2018-06-30T12:14:58Z</time>
      </trkpt>
      <trkpt lat="43.74267" lon="3.50523">
        <ele>424.08</ele>
        <time>2018-06-30T12:15:18Z</time>
      </trkpt>
      <trkpt lat="43.74271" lon="3.5054">
        <ele>421.68</ele>
        <time>2018-06-30T12:15:36Z</time>
      </trkpt>
      <trkpt lat="43.74274" lon="3.50545">
        <ele>421.68</ele>
        <time>2018-06-30T12:16:00Z</time>
      </trkpt>
      <trkpt lat="43.74275" lon="3.50554">
        <ele>421.19</ele>
        <time>2018-06-30T12:16:22Z</time>
      </trkpt>
      <trkpt lat="43.74273" lon="3.50563">
        <ele>419.27</ele>
        <time>2018-06-30T12:16:35Z</time>
      </trkpt>
      <trkpt lat="43.74269" lon="3.50568">
        <ele>418.31</ele>
        <time>2018-06-30T12:16:48Z</time>
      </trkpt>
      <trkpt lat="43.74267" lon="3.50572">
        <ele>417.83</ele>
        <time>2018-06-30T12:17:06Z</time>
      </trkpt>
      <trkpt lat="43.74266" lon="3.50575">
        <ele>416.87</ele>
        <time>2018-06-30T12:17:09Z</time>
      </trkpt>
      <trkpt lat="43.74261" lon="3.50585">
        <ele>414.95</ele>
        <time>2018-06-30T12:17:22Z</time>
      </trkpt>
      <trkpt lat="43.7426" lon="3.50595">
        <ele>413.5</ele>
        <time>2018-06-30T12:17:36Z</time>
      </trkpt>
      <trkpt lat="43.74259" lon="3.50604">
        <ele>411.1</ele>
        <time>2018-06-30T12:17:49Z</time>
      </trkpt>
      <trkpt lat="43.74255" lon="3.50618">
        <ele>409.18</ele>
        <time>2018-06-30T12:18:06Z</time>
      </trkpt>
      <trkpt lat="43.7425" lon="3.50628">
        <ele>409.18</ele>
        <time>2018-06-30T12:18:16Z</time>
      </trkpt>
      <trkpt lat="43.74242" lon="3.50639">
        <ele>407.26</ele>
        <time>2018-06-30T12:18:28Z</time>
      </trkpt>
      <trkpt lat="43.74244" lon="3.50648">
        <ele>405.81</ele>
        <time>2018-06-30T12:18:42Z</time>
      </trkpt>
      <trkpt lat="43.74246" lon="3.5065">
        <ele>405.81</ele>
        <time>2018-06-30T12:18:45Z</time>
      </trkpt>
      <trkpt lat="43.74253" lon="3.50661">
        <ele>404.85</ele>
        <time>2018-06-30T12:18:59Z</time>
      </trkpt>
      <trkpt lat="43.74258" lon="3.50678">
        <ele>404.37</ele>
        <time>2018-06-30T12:19:13Z</time>
      </trkpt>
      <trkpt lat="43.74266" lon="3.50695">
        <ele>401.97</ele>
        <time>2018-06-30T12:19:31Z</time>
      </trkpt>
      <trkpt lat="43.74267" lon="3.50708">
        <ele>400.53</ele>
        <time>2018-06-30T12:19:43Z</time>
      </trkpt>
      <trkpt lat="43.74268" lon="3.50723">
        <ele>398.12</ele>
        <time>2018-06-30T12:19:58Z</time>
      </trkpt>
      <trkpt lat="43.74266" lon="3.50734">
        <ele>395.72</ele>
        <time>2018-06-30T12:20:12Z</time>
      </trkpt>
      <trkpt lat="43.74264" lon="3.50746">
        <ele>394.76</ele>
        <time>2018-06-30T12:20:24Z</time>
      </trkpt>
      <trkpt lat="43.74262" lon="3.50764">
        <ele>392.84</ele>
        <time>2018-06-30T12:20:39Z</time>
      </trkpt>
      <trkpt lat="43.74262" lon="3.50768">
        <ele>392.84</ele>
        <time>2018-06-30T12:20:42Z</time>
      </trkpt>
      <trkpt lat="43.74262" lon="3.5079">
        <ele>390.91</ele>
        <time>2018-06-30T12:20:58Z</time>
      </trkpt>
      <trkpt lat="43.74262" lon="3.50801">
        <ele>390.43</ele>
        <time>2018-06-30T12:21:07Z</time>
      </trkpt>
      <trkpt lat="43.74269" lon="3.50822">
        <ele>388.51</ele>
        <time>2018-06-30T12:21:25Z</time>
      </trkpt>
      <trkpt lat="43.74271" lon="3.50837">
        <ele>386.59</ele>
        <time>2018-06-30T12:21:39Z</time>
      </trkpt>
      <trkpt lat="43.74274" lon="3.50858">
        <ele>386.11</ele>
        <time>2018-06-30T12:21:54Z</time>
      </trkpt>
      <trkpt lat="43.74277" lon="3.50874">
        <ele>385.15</ele>
        <time>2018-06-30T12:22:04Z</time>
      </trkpt>
      <trkpt lat="43.74277" lon="3.50878">
        <ele>385.15</ele>
        <time>2018-06-30T12:22:06Z</time>
      </trkpt>
      <trkpt lat="43.74282" lon="3.50901">
        <ele>384.66</ele>
        <time>2018-06-30T12:22:22Z</time>
      </trkpt>
      <trkpt lat="43.74286" lon="3.50917">
        <ele>383.22</ele>
        <time>2018-06-30T12:22:35Z</time>
      </trkpt>
      <trkpt lat="43.74286" lon="3.50943">
        <ele>381.3</ele>
        <time>2018-06-30T12:22:52Z</time>
      </trkpt>
      <trkpt lat="43.74298" lon="3.50961">
        <ele>379.38</ele>
        <time>2018-06-30T12:23:07Z</time>
      </trkpt>
      <trkpt lat="43.74304" lon="3.50972">
        <ele>379.38</ele>
        <time>2018-06-30T12:23:15Z</time>
      </trkpt>
      <trkpt lat="43.74309" lon="3.50994">
        <ele>378.42</ele>
        <time>2018-06-30T12:23:30Z</time>
      </trkpt>
      <trkpt lat="43.74309" lon="3.51014">
        <ele>376.97</ele>
        <time>2018-06-30T12:23:43Z</time>
      </trkpt>
      <trkpt lat="43.74312" lon="3.5102">
        <ele>378.42</ele>
        <time>2018-06-30T12:23:50Z</time>
      </trkpt>
      <trkpt lat="43.74313" lon="3.51023">
        <ele>376.97</ele>
        <time>2018-06-30T12:23:53Z</time>
      </trkpt>
      <trkpt lat="43.74314" lon="3.51035">
        <ele>376.01</ele>
        <time>2018-06-30T12:24:07Z</time>
      </trkpt>
      <trkpt lat="43.74313" lon="3.51039">
        <ele>376.01</ele>
        <time>2018-06-30T12:24:10Z</time>
      </trkpt>
      <trkpt lat="43.74312" lon="3.51044">
        <ele>375.05</ele>
        <time>2018-06-30T12:24:14Z</time>
      </trkpt>
      <trkpt lat="43.74319" lon="3.51069">
        <ele>374.57</ele>
        <time>2018-06-30T12:24:30Z</time>
      </trkpt>
      <trkpt lat="43.74329" lon="3.51093">
        <ele>373.61</ele>
        <time>2018-06-30T12:24:48Z</time>
      </trkpt>
      <trkpt lat="43.7433" lon="3.51113">
        <ele>373.13</ele>
        <time>2018-06-30T12:25:01Z</time>
      </trkpt>
      <trkpt lat="43.74329" lon="3.51117">
        <ele>373.13</ele>
        <time>2018-06-30T12:25:04Z</time>
      </trkpt>
      <trkpt lat="43.74314" lon="3.51142">
        <ele>371.21</ele>
        <time>2018-06-30T12:25:24Z</time>
      </trkpt>
      <trkpt lat="43.74307" lon="3.5117">
        <ele>370.24</ele>
        <time>2018-06-30T12:25:41Z</time>
      </trkpt>
      <trkpt lat="43.74295" lon="3.51193">
        <ele>368.8</ele>
        <time>2018-06-30T12:25:58Z</time>
      </trkpt>
      <trkpt lat="43.74285" lon="3.51215">
        <ele>367.36</ele>
        <time>2018-06-30T12:26:14Z</time>
      </trkpt>
      <trkpt lat="43.74276" lon="3.51235">
        <ele>367.36</ele>
        <time>2018-06-30T12:26:28Z</time>
      </trkpt>
      <trkpt lat="43.74257" lon="3.51249">
        <ele>365.92</ele>
        <time>2018-06-30T12:26:44Z</time>
      </trkpt>
      <trkpt lat="43.74248" lon="3.51256">
        <ele>365.44</ele>
        <time>2018-06-30T12:26:53Z</time>
      </trkpt>
      <trkpt lat="43.74246" lon="3.51264">
        <ele>364.48</ele>
        <time>2018-06-30T12:26:59Z</time>
      </trkpt>
      <trkpt lat="43.74238" lon="3.51285">
        <ele>362.55</ele>
        <time>2018-06-30T12:27:15Z</time>
      </trkpt>
      <trkpt lat="43.74227" lon="3.513">
        <ele>360.63</ele>
        <time>2018-06-30T12:27:29Z</time>
      </trkpt>
      <trkpt lat="43.74225" lon="3.51302">
        <ele>359.67</ele>
        <time>2018-06-30T12:27:31Z</time>
      </trkpt>
      <trkpt lat="43.74221" lon="3.51307">
        <ele>359.67</ele>
        <time>2018-06-30T12:27:36Z</time>
      </trkpt>
      <trkpt lat="43.74213" lon="3.51333">
        <ele>356.79</ele>
        <time>2018-06-30T12:27:54Z</time>
      </trkpt>
      <trkpt lat="43.7421" lon="3.51358">
        <ele>354.86</ele>
        <time>2018-06-30T12:28:10Z</time>
      </trkpt>
      <trkpt lat="43.74211" lon="3.51382">
        <ele>352.94</ele>
        <time>2018-06-30T12:28:24Z</time>
      </trkpt>
      <trkpt lat="43.74215" lon="3.51407">
        <ele>351.98</ele>
        <time>2018-06-30T12:28:39Z</time>
      </trkpt>
      <trkpt lat="43.74215" lon="3.51414">
        <ele>351.98</ele>
        <time>2018-06-30T12:28:43Z</time>
      </trkpt>
      <trkpt lat="43.74216" lon="3.51437">
        <ele>349.58</ele>
        <time>2018-06-30T12:28:58Z</time>
      </trkpt>
      <trkpt lat="43.74216" lon="3.51444">
        <ele>348.62</ele>
        <time>2018-06-30T12:29:08Z</time>
      </trkpt>
      <trkpt lat="43.74206" lon="3.51469">
        <ele>346.21</ele>
        <time>2018-06-30T12:29:25Z</time>
      </trkpt>
      <trkpt lat="43.74193" lon="3.51487">
        <ele>342.85</ele>
        <time>2018-06-30T12:29:37Z</time>
      </trkpt>
      <trkpt lat="43.74188" lon="3.51496">
        <ele>342.37</ele>
        <time>2018-06-30T12:29:44Z</time>
      </trkpt>
      <trkpt lat="43.74186" lon="3.5152">
        <ele>339.96</ele>
        <time>2018-06-30T12:29:59Z</time>
      </trkpt>
      <trkpt lat="43.74187" lon="3.51536">
        <ele>338.04</ele>
        <time>2018-06-30T12:30:09Z</time>
      </trkpt>
      <trkpt lat="43.74194" lon="3.51553">
        <ele>336.6</ele>
        <time>2018-06-30T12:30:25Z</time>
      </trkpt>
      <trkpt lat="43.74195" lon="3.51561">
        <ele>335.16</ele>
        <time>2018-06-30T12:30:38Z</time>
      </trkpt>
      <trkpt lat="43.74194" lon="3.51565">
        <ele>334.68</ele>
        <time>2018-06-30T12:31:02Z</time>
      </trkpt>
      <trkpt lat="43.74199" lon="3.51567">
        <ele>333.71</ele>
        <time>2018-06-30T12:31:39Z</time>
      </trkpt>
      <trkpt lat="43.74207" lon="3.51566">
        <ele>335.16</ele>
        <time>2018-06-30T12:31:49Z</time>
      </trkpt>
      <trkpt lat="43.74207" lon="3.51569">
        <ele>334.2</ele>
        <time>2018-06-30T12:32:14Z</time>
      </trkpt>
      <trkpt lat="43.74194" lon="3.51565">
        <ele>334.2</ele>
        <time>2018-06-30T12:32:38Z</time>
      </trkpt>
      <trkpt lat="43.74193" lon="3.51573">
        <ele>333.71</ele>
        <time>2018-06-30T12:33:10Z</time>
      </trkpt>
      <trkpt lat="43.74193" lon="3.51572">
        <ele>334.2</ele>
        <time>2018-06-30T12:33:29Z</time>
      </trkpt>
      <trkpt lat="43.74191" lon="3.5157">
        <ele>334.2</ele>
        <time>2018-06-30T12:34:08Z</time>
      </trkpt>
      <trkpt lat="43.74193" lon="3.51576">
        <ele>334.2</ele>
        <time>2018-06-30T12:34:14Z</time>
      </trkpt>
      <trkpt lat="43.74194" lon="3.51582">
        <ele>332.75</ele>
        <time>2018-06-30T12:34:20Z</time>
      </trkpt>
      <trkpt lat="43.74192" lon="3.51601">
        <ele>331.79</ele>
        <time>2018-06-30T12:34:32Z</time>
      </trkpt>
      <trkpt lat="43.74192" lon="3.51614">
        <ele>331.31</ele>
        <time>2018-06-30T12:34:39Z</time>
      </trkpt>
      <trkpt lat="43.7419" lon="3.51621">
        <ele>331.31</ele>
        <time>2018-06-30T12:34:42Z</time>
      </trkpt>
      <trkpt lat="43.74188" lon="3.5163">
        <ele>332.75</ele>
        <time>2018-06-30T12:34:47Z</time>
      </trkpt>
      <trkpt lat="43.74173" lon="3.51658">
        <ele>331.31</ele>
        <time>2018-06-30T12:35:00Z</time>
      </trkpt>
      <trkpt lat="43.74153" lon="3.51688">
        <ele>329.87</ele>
        <time>2018-06-30T12:35:18Z</time>
      </trkpt>
      <trkpt lat="43.74141" lon="3.5171">
        <ele>328.91</ele>
        <time>2018-06-30T12:35:32Z</time>
      </trkpt>
      <trkpt lat="43.74134" lon="3.51727">
        <ele>330.35</ele>
        <time>2018-06-30T12:35:45Z</time>
      </trkpt>
      <trkpt lat="43.74122" lon="3.51743">
        <ele>329.87</ele>
        <time>2018-06-30T12:36:00Z</time>
      </trkpt>
      <trkpt lat="43.7412" lon="3.51747">
        <ele>328.43</ele>
        <time>2018-06-30T12:36:03Z</time>
      </trkpt>
      <trkpt lat="43.74111" lon="3.5176">
        <ele>325.54</ele>
        <time>2018-06-30T12:36:18Z</time>
      </trkpt>
      <trkpt lat="43.74098" lon="3.51773">
        <ele>324.1</ele>
        <time>2018-06-30T12:36:34Z</time>
      </trkpt>
      <trkpt lat="43.74085" lon="3.5179">
        <ele>323.62</ele>
        <time>2018-06-30T12:36:49Z</time>
      </trkpt>
      <trkpt lat="43.74082" lon="3.51806">
        <ele>322.66</ele>
        <time>2018-06-30T12:37:01Z</time>
      </trkpt>
      <trkpt lat="43.74084" lon="3.51822">
        <ele>320.26</ele>
        <time>2018-06-30T12:37:16Z</time>
      </trkpt>
      <trkpt lat="43.74091" lon="3.51837">
        <ele>318.81</ele>
        <time>2018-06-30T12:37:33Z</time>
      </trkpt>
      <trkpt lat="43.74097" lon="3.51854">
        <ele>318.33</ele>
        <time>2018-06-30T12:37:52Z</time>
      </trkpt>
      <trkpt lat="43.74103" lon="3.51876">
        <ele>318.33</ele>
        <time>2018-06-30T12:38:09Z</time>
      </trkpt>
      <trkpt lat="43.74108" lon="3.51903">
        <ele>317.37</ele>
        <time>2018-06-30T12:38:25Z</time>
      </trkpt>
      <trkpt lat="43.74107" lon="3.51919">
        <ele>316.41</ele>
        <time>2018-06-30T12:38:34Z</time>
      </trkpt>
      <trkpt lat="43.74097" lon="3.51942">
        <ele>315.45</ele>
        <time>2018-06-30T12:38:50Z</time>
      </trkpt>
      <trkpt lat="43.7409" lon="3.51965">
        <ele>315.45</ele>
        <time>2018-06-30T12:39:07Z</time>
      </trkpt>
      <trkpt lat="43.74077" lon="3.51984">
        <ele>315.45</ele>
        <time>2018-06-30T12:39:24Z</time>
      </trkpt>
      <trkpt lat="43.74067" lon="3.52002">
        <ele>314.01</ele>
        <time>2018-06-30T12:39:41Z</time>
      </trkpt>
      <trkpt lat="43.74049" lon="3.52018">
        <ele>312.57</ele>
        <time>2018-06-30T12:39:58Z</time>
      </trkpt>
      <trkpt lat="43.74032" lon="3.52032">
        <ele>311.12</ele>
        <time>2018-06-30T12:40:16Z</time>
      </trkpt>
      <trkpt lat="43.74028" lon="3.52035">
        <ele>311.12</ele>
        <time>2018-06-30T12:40:31Z</time>
      </trkpt>
      <trkpt lat="43.74016" lon="3.5206">
        <ele>311.12</ele>
        <time>2018-06-30T12:40:49Z</time>
      </trkpt>
      <trkpt lat="43.74008" lon="3.52081">
        <ele>311.12</ele>
        <time>2018-06-30T12:41:03Z</time>
      </trkpt>
      <trkpt lat="43.74004" lon="3.52103">
        <ele>311.12</ele>
        <time>2018-06-30T12:41:19Z</time>
      </trkpt>
      <trkpt lat="43.73999" lon="3.52122">
        <ele>310.64</ele>
        <time>2018-06-30T12:41:33Z</time>
      </trkpt>
      <trkpt lat="43.73997" lon="3.52147">
        <ele>309.68</ele>
        <time>2018-06-30T12:41:49Z</time>
      </trkpt>
      <trkpt lat="43.73999" lon="3.52155">
        <ele>309.68</ele>
        <time>2018-06-30T12:41:54Z</time>
      </trkpt>
      <trkpt lat="43.73999" lon="3.52178">
        <ele>309.68</ele>
        <time>2018-06-30T12:42:09Z</time>
      </trkpt>
      <trkpt lat="43.73998" lon="3.52194">
        <ele>309.68</ele>
        <time>2018-06-30T12:42:21Z</time>
      </trkpt>
      <trkpt lat="43.73992" lon="3.52214">
        <ele>309.68</ele>
        <time>2018-06-30T12:42:35Z</time>
      </trkpt>
      <trkpt lat="43.73982" lon="3.52232">
        <ele>309.68</ele>
        <time>2018-06-30T12:42:50Z</time>
      </trkpt>
      <trkpt lat="43.73971" lon="3.52247">
        <ele>309.68</ele>
        <time>2018-06-30T12:43:05Z</time>
      </trkpt>
      <trkpt lat="43.7397" lon="3.52251">
        <ele>309.68</ele>
        <time>2018-06-30T12:43:21Z</time>
      </trkpt>
      <trkpt lat="43.73968" lon="3.52262">
        <ele>309.68</ele>
        <time>2018-06-30T12:43:38Z</time>
      </trkpt>
      <trkpt lat="43.73956" lon="3.52281">
        <ele>309.68</ele>
        <time>2018-06-30T12:43:52Z</time>
      </trkpt>
      <trkpt lat="43.73947" lon="3.52296">
        <ele>310.16</ele>
        <time>2018-06-30T12:44:08Z</time>
      </trkpt>
      <trkpt lat="43.73941" lon="3.52306">
        <ele>311.6</ele>
        <time>2018-06-30T12:44:20Z</time>
      </trkpt>
      <trkpt lat="43.73934" lon="3.52321">
        <ele>311.6</ele>
        <time>2018-06-30T12:44:34Z</time>
      </trkpt>
      <trkpt lat="43.73926" lon="3.52337">
        <ele>313.05</ele>
        <time>2018-06-30T12:44:48Z</time>
      </trkpt>
      <trkpt lat="43.73931" lon="3.52354">
        <ele>313.05</ele>
        <time>2018-06-30T12:45:03Z</time>
      </trkpt>
      <trkpt lat="43.7393" lon="3.52379">
        <ele>313.53</ele>
        <time>2018-06-30T12:45:19Z</time>
      </trkpt>
      <trkpt lat="43.73931" lon="3.52399">
        <ele>314.01</ele>
        <time>2018-06-30T12:45:35Z</time>
      </trkpt>
      <trkpt lat="43.73934" lon="3.52416">
        <ele>314.97</ele>
        <time>2018-06-30T12:45:50Z</time>
      </trkpt>
      <trkpt lat="43.73935" lon="3.52421">
        <ele>315.45</ele>
        <time>2018-06-30T12:46:06Z</time>
      </trkpt>
      <trkpt lat="43.73932" lon="3.52424">
        <ele>315.93</ele>
        <time>2018-06-30T12:46:26Z</time>
      </trkpt>
      <trkpt lat="43.73933" lon="3.52429">
        <ele>315.45</ele>
        <time>2018-06-30T12:46:35Z</time>
      </trkpt>
      <trkpt lat="43.73933" lon="3.52433">
        <ele>315.45</ele>
        <time>2018-06-30T12:46:39Z</time>
      </trkpt>
      <trkpt lat="43.73932" lon="3.52446">
        <ele>316.41</ele>
        <time>2018-06-30T12:46:53Z</time>
      </trkpt>
      <trkpt lat="43.73935" lon="3.52469">
        <ele>316.41</ele>
        <time>2018-06-30T12:47:09Z</time>
      </trkpt>
      <trkpt lat="43.73932" lon="3.52484">
        <ele>316.89</ele>
        <time>2018-06-30T12:47:23Z</time>
      </trkpt>
      <trkpt lat="43.73935" lon="3.52502">
        <ele>317.37</ele>
        <time>2018-06-30T12:47:40Z</time>
      </trkpt>
      <trkpt lat="43.73938" lon="3.52511">
        <ele>317.37</ele>
        <time>2018-06-30T12:47:45Z</time>
      </trkpt>
      <trkpt lat="43.7394" lon="3.52531">
        <ele>317.85</ele>
        <time>2018-06-30T12:48:00Z</time>
      </trkpt>
      <trkpt lat="43.73937" lon="3.52553">
        <ele>318.33</ele>
        <time>2018-06-30T12:48:15Z</time>
      </trkpt>
      <trkpt lat="43.73928" lon="3.52558">
        <ele>318.81</ele>
        <time>2018-06-30T12:48:24Z</time>
      </trkpt>
      <trkpt lat="43.73914" lon="3.52566">
        <ele>319.78</ele>
        <time>2018-06-30T12:48:40Z</time>
      </trkpt>
      <trkpt lat="43.73913" lon="3.52567">
        <ele>319.78</ele>
        <time>2018-06-30T12:48:41Z</time>
      </trkpt>
      <trkpt lat="43.73915" lon="3.52581">
        <ele>320.26</ele>
        <time>2018-06-30T12:48:50Z</time>
      </trkpt>
      <trkpt lat="43.73922" lon="3.52593">
        <ele>321.22</ele>
        <time>2018-06-30T12:49:04Z</time>
      </trkpt>
      <trkpt lat="43.73928" lon="3.52597">
        <ele>321.7</ele>
        <time>2018-06-30T12:49:14Z</time>
      </trkpt>
      <trkpt lat="43.73931" lon="3.52601">
        <ele>322.18</ele>
        <time>2018-06-30T12:49:19Z</time>
      </trkpt>
      <trkpt lat="43.73941" lon="3.52621">
        <ele>323.14</ele>
        <time>2018-06-30T12:49:36Z</time>
      </trkpt>
      <trkpt lat="43.73942" lon="3.52642">
        <ele>323.14</ele>
        <time>2018-06-30T12:49:50Z</time>
      </trkpt>
      <trkpt lat="43.73946" lon="3.52651">
        <ele>323.14</ele>
        <time>2018-06-30T12:49:58Z</time>
      </trkpt>
      <trkpt lat="43.73949" lon="3.52656">
        <ele>323.14</ele>
        <time>2018-06-30T12:50:02Z</time>
      </trkpt>
      <trkpt lat="43.7395" lon="3.5266">
        <ele>323.14</ele>
        <time>2018-06-30T12:50:05Z</time>
      </trkpt>
      <trkpt lat="43.73955" lon="3.52685">
        <ele>324.1</ele>
        <time>2018-06-30T12:50:21Z</time>
      </trkpt>
      <trkpt lat="43.73956" lon="3.52695">
        <ele>324.1</ele>
        <time>2018-06-30T12:50:28Z</time>
      </trkpt>
      <trkpt lat="43.73962" lon="3.5272">
        <ele>325.54</ele>
        <time>2018-06-30T12:50:45Z</time>
      </trkpt>
      <trkpt lat="43.73963" lon="3.52749">
        <ele>326.99</ele>
        <time>2018-06-30T12:51:02Z</time>
      </trkpt>
      <trkpt lat="43.73964" lon="3.52771">
        <ele>328.91</ele>
        <time>2018-06-30T12:51:18Z</time>
      </trkpt>
      <trkpt lat="43.73964" lon="3.52791">
        <ele>330.35</ele>
        <time>2018-06-30T12:51:32Z</time>
      </trkpt>
      <trkpt lat="43.73964" lon="3.52797">
        <ele>330.83</ele>
        <time>2018-06-30T12:51:36Z</time>
      </trkpt>
      <trkpt lat="43.73956" lon="3.52814">
        <ele>332.27</ele>
        <time>2018-06-30T12:51:53Z</time>
      </trkpt>
      <trkpt lat="43.73957" lon="3.52832">
        <ele>334.68</ele>
        <time>2018-06-30T12:52:08Z</time>
      </trkpt>
      <trkpt lat="43.73956" lon="3.52845">
        <ele>334.68</ele>
        <time>2018-06-30T12:52:22Z</time>
      </trkpt>
      <trkpt lat="43.73956" lon="3.52854">
        <ele>334.68</ele>
        <time>2018-06-30T12:52:28Z</time>
      </trkpt>
      <trkpt lat="43.73953" lon="3.52876">
        <ele>335.64</ele>
        <time>2018-06-30T12:52:44Z</time>
      </trkpt>
      <trkpt lat="43.73954" lon="3.52882">
        <ele>336.12</ele>
        <time>2018-06-30T12:52:48Z</time>
      </trkpt>
      <trkpt lat="43.73956" lon="3.52889">
        <ele>336.12</ele>
        <time>2018-06-30T12:52:53Z</time>
      </trkpt>
      <trkpt lat="43.7395" lon="3.5292">
        <ele>336.12</ele>
        <time>2018-06-30T12:53:11Z</time>
      </trkpt>
      <trkpt lat="43.73949" lon="3.5294">
        <ele>337.08</ele>
        <time>2018-06-30T12:53:27Z</time>
      </trkpt>
      <trkpt lat="43.7395" lon="3.52947">
        <ele>337.56</ele>
        <time>2018-06-30T12:53:32Z</time>
      </trkpt>
      <trkpt lat="43.73947" lon="3.52957">
        <ele>338.04</ele>
        <time>2018-06-30T12:53:38Z</time>
      </trkpt>
      <trkpt lat="43.73945" lon="3.5298">
        <ele>339.96</ele>
        <time>2018-06-30T12:53:52Z</time>
      </trkpt>
      <trkpt lat="43.73944" lon="3.53005">
        <ele>340.44</ele>
        <time>2018-06-30T12:54:07Z</time>
      </trkpt>
      <trkpt lat="43.73939" lon="3.53029">
        <ele>341.41</ele>
        <time>2018-06-30T12:54:24Z</time>
      </trkpt>
      <trkpt lat="43.73925" lon="3.53043">
        <ele>343.33</ele>
        <time>2018-06-30T12:54:42Z</time>
      </trkpt>
      <trkpt lat="43.73922" lon="3.53046">
        <ele>344.29</ele>
        <time>2018-06-30T12:55:01Z</time>
      </trkpt>
      <trkpt lat="43.7392" lon="3.53044">
        <ele>344.77</ele>
        <time>2018-06-30T12:55:31Z</time>
      </trkpt>
      <trkpt lat="43.73911" lon="3.53051">
        <ele>345.73</ele>
        <time>2018-06-30T12:55:48Z</time>
      </trkpt>
      <trkpt lat="43.73895" lon="3.53052">
        <ele>347.65</ele>
        <time>2018-06-30T12:56:06Z</time>
      </trkpt>
      <trkpt lat="43.7388" lon="3.53053">
        <ele>350.54</ele>
        <time>2018-06-30T12:56:21Z</time>
      </trkpt>
      <trkpt lat="43.73871" lon="3.53053">
        <ele>352.46</ele>
        <time>2018-06-30T12:56:35Z</time>
      </trkpt>
      <trkpt lat="43.73864" lon="3.53056">
        <ele>354.38</ele>
        <time>2018-06-30T12:56:52Z</time>
      </trkpt>
      <trkpt lat="43.7385" lon="3.53057">
        <ele>356.31</ele>
        <time>2018-06-30T12:57:08Z</time>
      </trkpt>
      <trkpt lat="43.73849" lon="3.53056">
        <ele>356.31</ele>
        <time>2018-06-30T12:57:10Z</time>
      </trkpt>
      <trkpt lat="43.73847" lon="3.53053">
        <ele>357.27</ele>
        <time>2018-06-30T12:57:12Z</time>
      </trkpt>
      <trkpt lat="43.73833" lon="3.5304">
        <ele>358.23</ele>
        <time>2018-06-30T12:57:27Z</time>
      </trkpt>
      <trkpt lat="43.7383" lon="3.53033">
        <ele>358.71</ele>
        <time>2018-06-30T12:57:37Z</time>
      </trkpt>
      <trkpt lat="43.73827" lon="3.53027">
        <ele>358.71</ele>
        <time>2018-06-30T12:57:58Z</time>
      </trkpt>
      <trkpt lat="43.73822" lon="3.53021">
        <ele>358.71</ele>
        <time>2018-06-30T12:58:17Z</time>
      </trkpt>
      <trkpt lat="43.73817" lon="3.5301">
        <ele>359.67</ele>
        <time>2018-06-30T12:58:44Z</time>
      </trkpt>
      <trkpt lat="43.73816" lon="3.52998">
        <ele>356.79</ele>
        <time>2018-06-30T12:59:02Z</time>
      </trkpt>
      <trkpt lat="43.73817" lon="3.52994">
        <ele>353.9</ele>
        <time>2018-06-30T12:59:10Z</time>
      </trkpt>
      <trkpt lat="43.73819" lon="3.52986">
        <ele>353.42</ele>
        <time>2018-06-30T12:59:33Z</time>
      </trkpt>
      <trkpt lat="43.7382" lon="3.52982">
        <ele>352.46</ele>
        <time>2018-06-30T12:59:53Z</time>
      </trkpt>
      <trkpt lat="43.73821" lon="3.52987">
        <ele>353.42</ele>
        <time>2018-06-30T13:00:01Z</time>
      </trkpt>
      <trkpt lat="43.73823" lon="3.52987">
        <ele>351.98</ele>
        <time>2018-06-30T13:00:07Z</time>
      </trkpt>
      <trkpt lat="43.73822" lon="3.52983">
        <ele>351.5</ele>
        <time>2018-06-30T13:00:27Z</time>
      </trkpt>
      <trkpt lat="43.73809" lon="3.52964">
        <ele>351.98</ele>
        <time>2018-06-30T13:00:54Z</time>
      </trkpt>
      <trkpt lat="43.73797" lon="3.52963">
        <ele>351.98</ele>
        <time>2018-06-30T13:01:20Z</time>
      </trkpt>
      <trkpt lat="43.73792" lon="3.52956">
        <ele>351.98</ele>
        <time>2018-06-30T13:01:46Z</time>
      </trkpt>
      <trkpt lat="43.73791" lon="3.52961">
        <ele>351.98</ele>
        <time>2018-06-30T13:02:12Z</time>
      </trkpt>
      <trkpt lat="43.73794" lon="3.52971">
        <ele>351.02</ele>
        <time>2018-06-30T13:02:23Z</time>
      </trkpt>
      <trkpt lat="43.73797" lon="3.52965">
        <ele>348.13</ele>
        <time>2018-06-30T13:02:36Z</time>
      </trkpt>
      <trkpt lat="43.73797" lon="3.52964">
        <ele>348.13</ele>
        <time>2018-06-30T13:02:38Z</time>
      </trkpt>
      <trkpt lat="43.73799" lon="3.52966">
        <ele>347.65</ele>
        <time>2018-06-30T13:02:42Z</time>
      </trkpt>
      <trkpt lat="43.73797" lon="3.5297">
        <ele>347.65</ele>
        <time>2018-06-30T13:02:54Z</time>
      </trkpt>
      <trkpt lat="43.73796" lon="3.5297">
        <ele>349.58</ele>
        <time>2018-06-30T13:03:03Z</time>
      </trkpt>
      <trkpt lat="43.73789" lon="3.5297">
        <ele>351.02</ele>
        <time>2018-06-30T13:03:15Z</time>
      </trkpt>
      <trkpt lat="43.73787" lon="3.52975">
        <ele>349.58</ele>
        <time>2018-06-30T13:03:22Z</time>
      </trkpt>
      <trkpt lat="43.73778" lon="3.52968">
        <ele>347.17</ele>
        <time>2018-06-30T13:03:37Z</time>
      </trkpt>
      <trkpt lat="43.73771" lon="3.52964">
        <ele>345.25</ele>
        <time>2018-06-30T13:03:50Z</time>
      </trkpt>
      <trkpt lat="43.73775" lon="3.52963">
        <ele>344.29</ele>
        <time>2018-06-30T13:04:05Z</time>
      </trkpt>
      <trkpt lat="43.7378" lon="3.52969">
        <ele>342.37</ele>
        <time>2018-06-30T13:04:20Z</time>
      </trkpt>
      <trkpt lat="43.73784" lon="3.52984">
        <ele>339.96</ele>
        <time>2018-06-30T13:04:35Z</time>
      </trkpt>
      <trkpt lat="43.73788" lon="3.52981">
        <ele>337.56</ele>
        <time>2018-06-30T13:04:52Z</time>
      </trkpt>
      <trkpt lat="43.73803" lon="3.52975">
        <ele>336.12</ele>
        <time>2018-06-30T13:05:13Z</time>
      </trkpt>
      <trkpt lat="43.73807" lon="3.52972">
        <ele>334.68</ele>
        <time>2018-06-30T13:05:25Z</time>
      </trkpt>
      <trkpt lat="43.73814" lon="3.52979">
        <ele>332.75</ele>
        <time>2018-06-30T13:05:37Z</time>
      </trkpt>
      <trkpt lat="43.73811" lon="3.52989">
        <ele>330.83</ele>
        <time>2018-06-30T13:05:48Z</time>
      </trkpt>
      <trkpt lat="43.738" lon="3.52992">
        <ele>327.95</ele>
        <time>2018-06-30T13:06:02Z</time>
      </trkpt>
      <trkpt lat="43.73806" lon="3.52991">
        <ele>325.54</ele>
        <time>2018-06-30T13:06:12Z</time>
      </trkpt>
      <trkpt lat="43.73809" lon="3.52999">
        <ele>322.66</ele>
        <time>2018-06-30T13:06:23Z</time>
      </trkpt>
      <trkpt lat="43.73814" lon="3.53009">
        <ele>320.26</ele>
        <time>2018-06-30T13:06:36Z</time>
      </trkpt>
      <trkpt lat="43.7381" lon="3.53004">
        <ele>317.85</ele>
        <time>2018-06-30T13:06:48Z</time>
      </trkpt>
      <trkpt lat="43.73807" lon="3.52999">
        <ele>317.37</ele>
        <time>2018-06-30T13:07:02Z</time>
      </trkpt>
      <trkpt lat="43.73803" lon="3.52998">
        <ele>315.93</ele>
        <time>2018-06-30T13:07:17Z</time>
      </trkpt>
      <trkpt lat="43.73799" lon="3.52997">
        <ele>314.97</ele>
        <time>2018-06-30T13:07:22Z</time>
      </trkpt>
      <trkpt lat="43.73783" lon="3.53001">
        <ele>312.09</ele>
        <time>2018-06-30T13:07:35Z</time>
      </trkpt>
      <trkpt lat="43.73775" lon="3.5301">
        <ele>308.72</ele>
        <time>2018-06-30T13:07:48Z</time>
      </trkpt>
      <trkpt lat="43.73768" lon="3.53021">
        <ele>305.36</ele>
        <time>2018-06-30T13:08:02Z</time>
      </trkpt>
      <trkpt lat="43.7376" lon="3.53033">
        <ele>302.47</ele>
        <time>2018-06-30T13:08:16Z</time>
      </trkpt>
      <trkpt lat="43.7375" lon="3.53038">
        <ele>300.07</ele>
        <time>2018-06-30T13:08:27Z</time>
      </trkpt>
      <trkpt lat="43.73734" lon="3.53045">
        <ele>298.15</ele>
        <time>2018-06-30T13:08:44Z</time>
      </trkpt>
      <trkpt lat="43.73729" lon="3.53049">
        <ele>298.15</ele>
        <time>2018-06-30T13:08:49Z</time>
      </trkpt>
      <trkpt lat="43.73719" lon="3.53066">
        <ele>298.15</ele>
        <time>2018-06-30T13:09:03Z</time>
      </trkpt>
      <trkpt lat="43.7371" lon="3.53074">
        <ele>299.59</ele>
        <time>2018-06-30T13:09:13Z</time>
      </trkpt>
      <trkpt lat="43.73703" lon="3.53076">
        <ele>299.59</ele>
        <time>2018-06-30T13:09:26Z</time>
      </trkpt>
      <trkpt lat="43.737" lon="3.53078">
        <ele>298.15</ele>
        <time>2018-06-30T13:09:33Z</time>
      </trkpt>
      <trkpt lat="43.73698" lon="3.53082">
        <ele>297.67</ele>
        <time>2018-06-30T13:09:37Z</time>
      </trkpt>
      <trkpt lat="43.73687" lon="3.53099">
        <ele>294.78</ele>
        <time>2018-06-30T13:09:54Z</time>
      </trkpt>
      <trkpt lat="43.73684" lon="3.5311">
        <ele>292.86</ele>
        <time>2018-06-30T13:10:08Z</time>
      </trkpt>
      <trkpt lat="43.73673" lon="3.53122">
        <ele>290.46</ele>
        <time>2018-06-30T13:10:23Z</time>
      </trkpt>
      <trkpt lat="43.73672" lon="3.53123">
        <ele>290.46</ele>
        <time>2018-06-30T13:10:24Z</time>
      </trkpt>
      <trkpt lat="43.73663" lon="3.53147">
        <ele>289.49</ele>
        <time>2018-06-30T13:10:42Z</time>
      </trkpt>
      <trkpt lat="43.7366" lon="3.53151">
        <ele>289.49</ele>
        <time>2018-06-30T13:10:47Z</time>
      </trkpt>
      <trkpt lat="43.73657" lon="3.53162">
        <ele>289.01</ele>
        <time>2018-06-30T13:10:54Z</time>
      </trkpt>
      <trkpt lat="43.73652" lon="3.53185">
        <ele>288.05</ele>
        <time>2018-06-30T13:11:11Z</time>
      </trkpt>
      <trkpt lat="43.73649" lon="3.53204">
        <ele>287.09</ele>
        <time>2018-06-30T13:11:25Z</time>
      </trkpt>
      <trkpt lat="43.73647" lon="3.53224">
        <ele>284.69</ele>
        <time>2018-06-30T13:11:40Z</time>
      </trkpt>
      <trkpt lat="43.73646" lon="3.53228">
        <ele>284.21</ele>
        <time>2018-06-30T13:11:43Z</time>
      </trkpt>
      <trkpt lat="43.73644" lon="3.53233">
        <ele>283.73</ele>
        <time>2018-06-30T13:11:47Z</time>
      </trkpt>
      <trkpt lat="43.73643" lon="3.53244">
        <ele>283.25</ele>
        <time>2018-06-30T13:11:54Z</time>
      </trkpt>
      <trkpt lat="43.7364" lon="3.53253">
        <ele>281.8</ele>
        <time>2018-06-30T13:12:01Z</time>
      </trkpt>
      <trkpt lat="43.7364" lon="3.5326">
        <ele>281.32</ele>
        <time>2018-06-30T13:12:06Z</time>
      </trkpt>
      <trkpt lat="43.73635" lon="3.53285">
        <ele>278.44</ele>
        <time>2018-06-30T13:12:24Z</time>
      </trkpt>
      <trkpt lat="43.73629" lon="3.53305">
        <ele>276.52</ele>
        <time>2018-06-30T13:12:38Z</time>
      </trkpt>
      <trkpt lat="43.73627" lon="3.53311">
        <ele>276.52</ele>
        <time>2018-06-30T13:12:43Z</time>
      </trkpt>
      <trkpt lat="43.73626" lon="3.53314">
        <ele>276.04</ele>
        <time>2018-06-30T13:12:45Z</time>
      </trkpt>
      <trkpt lat="43.73616" lon="3.5334">
        <ele>273.63</ele>
        <time>2018-06-30T13:13:03Z</time>
      </trkpt>
      <trkpt lat="43.73614" lon="3.53357">
        <ele>272.19</ele>
        <time>2018-06-30T13:13:16Z</time>
      </trkpt>
      <trkpt lat="43.73612" lon="3.53366">
        <ele>270.75</ele>
        <time>2018-06-30T13:13:23Z</time>
      </trkpt>
      <trkpt lat="43.73598" lon="3.53389">
        <ele>270.27</ele>
        <time>2018-06-30T13:13:40Z</time>
      </trkpt>
      <trkpt lat="43.73597" lon="3.53391">
        <ele>270.27</ele>
        <time>2018-06-30T13:13:41Z</time>
      </trkpt>
      <trkpt lat="43.73597" lon="3.53394">
        <ele>270.27</ele>
        <time>2018-06-30T13:13:43Z</time>
      </trkpt>
      <trkpt lat="43.73597" lon="3.53398">
        <ele>269.79</ele>
        <time>2018-06-30T13:13:45Z</time>
      </trkpt>
      <trkpt lat="43.73598" lon="3.53405">
        <ele>269.79</ele>
        <time>2018-06-30T13:13:50Z</time>
      </trkpt>
      <trkpt lat="43.73598" lon="3.5341">
        <ele>269.79</ele>
        <time>2018-06-30T13:13:54Z</time>
      </trkpt>
      <trkpt lat="43.73598" lon="3.53415">
        <ele>269.79</ele>
        <time>2018-06-30T13:13:57Z</time>
      </trkpt>
      <trkpt lat="43.73598" lon="3.53419">
        <ele>269.79</ele>
        <time>2018-06-30T13:13:59Z</time>
      </trkpt>
      <trkpt lat="43.73597" lon="3.53433">
        <ele>269.31</ele>
        <time>2018-06-30T13:14:08Z</time>
      </trkpt>
      <trkpt lat="43.73601" lon="3.53445">
        <ele>269.31</ele>
        <time>2018-06-30T13:14:21Z</time>
      </trkpt>
      <trkpt lat="43.73599" lon="3.53443">
        <ele>269.31</ele>
        <time>2018-06-30T13:14:43Z</time>
      </trkpt>
      <trkpt lat="43.73595" lon="3.53458">
        <ele>269.31</ele>
        <time>2018-06-30T13:15:01Z</time>
      </trkpt>
      <trkpt lat="43.736" lon="3.53461">
        <ele>270.27</ele>
        <time>2018-06-30T13:15:25Z</time>
      </trkpt>
      <trkpt lat="43.73599" lon="3.53465">
        <ele>270.27</ele>
        <time>2018-06-30T13:15:31Z</time>
      </trkpt>
      <trkpt lat="43.73598" lon="3.53472">
        <ele>270.75</ele>
        <time>2018-06-30T13:15:38Z</time>
      </trkpt>
      <trkpt lat="43.73599" lon="3.53487">
        <ele>270.75</ele>
        <time>2018-06-30T13:15:47Z</time>
      </trkpt>
      <trkpt lat="43.73598" lon="3.53504">
        <ele>268.83</ele>
        <time>2018-06-30T13:15:59Z</time>
      </trkpt>
      <trkpt lat="43.73593" lon="3.5353">
        <ele>266.42</ele>
        <time>2018-06-30T13:16:18Z</time>
      </trkpt>
      <trkpt lat="43.73593" lon="3.53538">
        <ele>265.46</ele>
        <time>2018-06-30T13:16:23Z</time>
      </trkpt>
      <trkpt lat="43.73592" lon="3.53543">
        <ele>265.46</ele>
        <time>2018-06-30T13:16:26Z</time>
      </trkpt>
      <trkpt lat="43.73591" lon="3.5356">
        <ele>264.98</ele>
        <time>2018-06-30T13:16:39Z</time>
      </trkpt>
      <trkpt lat="43.73591" lon="3.53573">
        <ele>264.5</ele>
        <time>2018-06-30T13:16:50Z</time>
      </trkpt>
      <trkpt lat="43.73598" lon="3.53586">
        <ele>264.02</ele>
        <time>2018-06-30T13:17:02Z</time>
      </trkpt>
      <trkpt lat="43.73597" lon="3.53591">
        <ele>263.54</ele>
        <time>2018-06-30T13:17:06Z</time>
      </trkpt>
      <trkpt lat="43.73595" lon="3.53602">
        <ele>263.54</ele>
        <time>2018-06-30T13:17:16Z</time>
      </trkpt>
      <trkpt lat="43.73598" lon="3.53624">
        <ele>262.1</ele>
        <time>2018-06-30T13:17:31Z</time>
      </trkpt>
      <trkpt lat="43.73601" lon="3.53647">
        <ele>259.69</ele>
        <time>2018-06-30T13:17:46Z</time>
      </trkpt>
      <trkpt lat="43.736" lon="3.53664">
        <ele>258.25</ele>
        <time>2018-06-30T13:17:59Z</time>
      </trkpt>
      <trkpt lat="43.73603" lon="3.5367">
        <ele>258.25</ele>
        <time>2018-06-30T13:18:02Z</time>
      </trkpt>
      <trkpt lat="43.73607" lon="3.53689">
        <ele>256.33</ele>
        <time>2018-06-30T13:18:16Z</time>
      </trkpt>
      <trkpt lat="43.73607" lon="3.53692">
        <ele>255.37</ele>
        <time>2018-06-30T13:18:18Z</time>
      </trkpt>
      <trkpt lat="43.73607" lon="3.53709">
        <ele>254.89</ele>
        <time>2018-06-30T13:18:29Z</time>
      </trkpt>
      <trkpt lat="43.73608" lon="3.53717">
        <ele>253.44</ele>
        <time>2018-06-30T13:18:34Z</time>
      </trkpt>
      <trkpt lat="43.73611" lon="3.5374">
        <ele>251.52</ele>
        <time>2018-06-30T13:18:51Z</time>
      </trkpt>
      <trkpt lat="43.73616" lon="3.53757">
        <ele>250.08</ele>
        <time>2018-06-30T13:19:05Z</time>
      </trkpt>
      <trkpt lat="43.73619" lon="3.53777">
        <ele>248.16</ele>
        <time>2018-06-30T13:19:19Z</time>
      </trkpt>
      <trkpt lat="43.73621" lon="3.53798">
        <ele>246.23</ele>
        <time>2018-06-30T13:19:34Z</time>
      </trkpt>
      <trkpt lat="43.73623" lon="3.53806">
        <ele>245.27</ele>
        <time>2018-06-30T13:19:41Z</time>
      </trkpt>
      <trkpt lat="43.73626" lon="3.53818">
        <ele>244.79</ele>
        <time>2018-06-30T13:19:50Z</time>
      </trkpt>
      <trkpt lat="43.73625" lon="3.53822">
        <ele>244.79</ele>
        <time>2018-06-30T13:19:53Z</time>
      </trkpt>
      <trkpt lat="43.73626" lon="3.53826">
        <ele>243.83</ele>
        <time>2018-06-30T13:19:56Z</time>
      </trkpt>
      <trkpt lat="43.73629" lon="3.5384">
        <ele>244.31</ele>
        <time>2018-06-30T13:20:06Z</time>
      </trkpt>
      <trkpt lat="43.73627" lon="3.5385">
        <ele>243.83</ele>
        <time>2018-06-30T13:20:13Z</time>
      </trkpt>
      <trkpt lat="43.73624" lon="3.53863">
        <ele>243.35</ele>
        <time>2018-06-30T13:20:22Z</time>
      </trkpt>
      <trkpt lat="43.73622" lon="3.5387">
        <ele>243.35</ele>
        <time>2018-06-30T13:20:27Z</time>
      </trkpt>
      <trkpt lat="43.73618" lon="3.53881">
        <ele>244.31</ele>
        <time>2018-06-30T13:20:35Z</time>
      </trkpt>
      <trkpt lat="43.73616" lon="3.53893">
        <ele>242.87</ele>
        <time>2018-06-30T13:20:44Z</time>
      </trkpt>
      <trkpt lat="43.73608" lon="3.53913">
        <ele>241.43</ele>
        <time>2018-06-30T13:20:59Z</time>
      </trkpt>
      <trkpt lat="43.736" lon="3.53929">
        <ele>240.47</ele>
        <time>2018-06-30T13:21:13Z</time>
      </trkpt>
      <trkpt lat="43.73596" lon="3.53941">
        <ele>239.99</ele>
        <time>2018-06-30T13:21:23Z</time>
      </trkpt>
      <trkpt lat="43.73592" lon="3.53949">
        <ele>239.51</ele>
        <time>2018-06-30T13:21:30Z</time>
      </trkpt>
      <trkpt lat="43.73581" lon="3.53968">
        <ele>238.06</ele>
        <time>2018-06-30T13:21:45Z</time>
      </trkpt>
      <trkpt lat="43.73577" lon="3.53969">
        <ele>238.06</ele>
        <time>2018-06-30T13:21:59Z</time>
      </trkpt>
      <trkpt lat="43.73572" lon="3.53974">
        <ele>237.58</ele>
        <time>2018-06-30T13:22:25Z</time>
      </trkpt>
      <trkpt lat="43.73571" lon="3.53976">
        <ele>238.06</ele>
        <time>2018-06-30T13:22:35Z</time>
      </trkpt>
      <trkpt lat="43.73563" lon="3.53983">
        <ele>238.06</ele>
        <time>2018-06-30T13:22:48Z</time>
      </trkpt>
      <trkpt lat="43.73553" lon="3.53987">
        <ele>237.58</ele>
        <time>2018-06-30T13:22:59Z</time>
      </trkpt>
      <trkpt lat="43.73538" lon="3.5399">
        <ele>236.14</ele>
        <time>2018-06-30T13:23:16Z</time>
      </trkpt>
      <trkpt lat="43.73525" lon="3.53992">
        <ele>234.7</ele>
        <time>2018-06-30T13:23:29Z</time>
      </trkpt>
      <trkpt lat="43.73518" lon="3.53994">
        <ele>234.7</ele>
        <time>2018-06-30T13:23:34Z</time>
      </trkpt>
      <trkpt lat="43.73508" lon="3.53994">
        <ele>234.22</ele>
        <time>2018-06-30T13:23:42Z</time>
      </trkpt>
      <trkpt lat="43.73507" lon="3.53998">
        <ele>233.74</ele>
        <time>2018-06-30T13:23:45Z</time>
      </trkpt>
      <trkpt lat="43.7351" lon="3.54004">
        <ele>232.3</ele>
        <time>2018-06-30T13:23:50Z</time>
      </trkpt>
      <trkpt lat="43.73514" lon="3.5402">
        <ele>229.41</ele>
        <time>2018-06-30T13:24:04Z</time>
      </trkpt>
      <trkpt lat="43.73522" lon="3.54031">
        <ele>227.49</ele>
        <time>2018-06-30T13:24:17Z</time>
      </trkpt>
      <trkpt lat="43.73525" lon="3.54043">
        <ele>226.05</ele>
        <time>2018-06-30T13:24:26Z</time>
      </trkpt>
      <trkpt lat="43.73526" lon="3.54048">
        <ele>226.05</ele>
        <time>2018-06-30T13:24:30Z</time>
      </trkpt>
      <trkpt lat="43.73531" lon="3.54067">
        <ele>224.61</ele>
        <time>2018-06-30T13:24:45Z</time>
      </trkpt>
      <trkpt lat="43.73535" lon="3.54081">
        <ele>224.12</ele>
        <time>2018-06-30T13:24:56Z</time>
      </trkpt>
      <trkpt lat="43.73535" lon="3.54102">
        <ele>224.12</ele>
        <time>2018-06-30T13:25:11Z</time>
      </trkpt>
      <trkpt lat="43.73539" lon="3.5412">
        <ele>222.2</ele>
        <time>2018-06-30T13:25:28Z</time>
      </trkpt>
      <trkpt lat="43.73542" lon="3.54125">
        <ele>221.24</ele>
        <time>2018-06-30T13:25:46Z</time>
      </trkpt>
      <trkpt lat="43.73544" lon="3.54122">
        <ele>220.76</ele>
        <time>2018-06-30T13:26:14Z</time>
      </trkpt>
      <trkpt lat="43.73551" lon="3.5413">
        <ele>220.76</ele>
        <time>2018-06-30T13:26:50Z</time>
      </trkpt>
      <trkpt lat="43.73549" lon="3.54134">
        <ele>220.76</ele>
        <time>2018-06-30T13:27:17Z</time>
      </trkpt>
      <trkpt lat="43.73548" lon="3.5413">
        <ele>220.28</ele>
        <time>2018-06-30T13:27:44Z</time>
      </trkpt>
      <trkpt lat="43.73546" lon="3.54129">
        <ele>220.28</ele>
        <time>2018-06-30T13:28:13Z</time>
      </trkpt>
      <trkpt lat="43.73545" lon="3.5413">
        <ele>220.28</ele>
        <time>2018-06-30T13:28:43Z</time>
      </trkpt>
      <trkpt lat="43.73551" lon="3.54127">
        <ele>218.36</ele>
        <time>2018-06-30T13:29:06Z</time>
      </trkpt>
      <trkpt lat="43.73558" lon="3.54139">
        <ele>216.43</ele>
        <time>2018-06-30T13:29:20Z</time>
      </trkpt>
      <trkpt lat="43.73562" lon="3.54148">
        <ele>214.99</ele>
        <time>2018-06-30T13:29:28Z</time>
      </trkpt>
      <trkpt lat="43.73567" lon="3.54167">
        <ele>213.55</ele>
        <time>2018-06-30T13:29:41Z</time>
      </trkpt>
      <trkpt lat="43.73571" lon="3.54173">
        <ele>212.11</ele>
        <time>2018-06-30T13:29:46Z</time>
      </trkpt>
      <trkpt lat="43.73578" lon="3.54189">
        <ele>210.67</ele>
        <time>2018-06-30T13:30:01Z</time>
      </trkpt>
      <trkpt lat="43.73585" lon="3.54209">
        <ele>208.26</ele>
        <time>2018-06-30T13:30:17Z</time>
      </trkpt>
      <trkpt lat="43.73595" lon="3.54232">
        <ele>205.86</ele>
        <time>2018-06-30T13:30:34Z</time>
      </trkpt>
      <trkpt lat="43.73596" lon="3.54243">
        <ele>203.94</ele>
        <time>2018-06-30T13:30:42Z</time>
      </trkpt>
      <trkpt lat="43.73594" lon="3.54253">
        <ele>203.46</ele>
        <time>2018-06-30T13:30:50Z</time>
      </trkpt>
      <trkpt lat="43.73595" lon="3.54261">
        <ele>202.98</ele>
        <time>2018-06-30T13:30:56Z</time>
      </trkpt>
      <trkpt lat="43.736" lon="3.54247">
        <ele>200.57</ele>
        <time>2018-06-30T13:31:11Z</time>
      </trkpt>
      <trkpt lat="43.73602" lon="3.54227">
        <ele>198.65</ele>
        <time>2018-06-30T13:31:26Z</time>
      </trkpt>
      <trkpt lat="43.73602" lon="3.54205">
        <ele>196.25</ele>
        <time>2018-06-30T13:31:43Z</time>
      </trkpt>
      <trkpt lat="43.73606" lon="3.54192">
        <ele>195.28</ele>
        <time>2018-06-30T13:31:53Z</time>
      </trkpt>
      <trkpt lat="43.73609" lon="3.54168">
        <ele>193.84</ele>
        <time>2018-06-30T13:32:09Z</time>
      </trkpt>
      <trkpt lat="43.73609" lon="3.54153">
        <ele>192.4</ele>
        <time>2018-06-30T13:32:20Z</time>
      </trkpt>
      <trkpt lat="43.73615" lon="3.54152">
        <ele>190.48</ele>
        <time>2018-06-30T13:32:33Z</time>
      </trkpt>
      <trkpt lat="43.73622" lon="3.54167">
        <ele>189.04</ele>
        <time>2018-06-30T13:32:48Z</time>
      </trkpt>
      <trkpt lat="43.73629" lon="3.54184">
        <ele>186.63</ele>
        <time>2018-06-30T13:33:04Z</time>
      </trkpt>
      <trkpt lat="43.73636" lon="3.54203">
        <ele>185.19</ele>
        <time>2018-06-30T13:33:18Z</time>
      </trkpt>
      <trkpt lat="43.73639" lon="3.54212">
        <ele>184.23</ele>
        <time>2018-06-30T13:33:25Z</time>
      </trkpt>
      <trkpt lat="43.73642" lon="3.54236">
        <ele>182.31</ele>
        <time>2018-06-30T13:33:41Z</time>
      </trkpt>
      <trkpt lat="43.73642" lon="3.54266">
        <ele>180.38</ele>
        <time>2018-06-30T13:33:59Z</time>
      </trkpt>
      <trkpt lat="43.73639" lon="3.5429">
        <ele>178.46</ele>
        <time>2018-06-30T13:34:15Z</time>
      </trkpt>
      <trkpt lat="43.73639" lon="3.54295">
        <ele>177.98</ele>
        <time>2018-06-30T13:34:31Z</time>
      </trkpt>
      <trkpt lat="43.73634" lon="3.54305">
        <ele>177.5</ele>
        <time>2018-06-30T13:34:47Z</time>
      </trkpt>
      <trkpt lat="43.73629" lon="3.54316">
        <ele>175.58</ele>
        <time>2018-06-30T13:35:00Z</time>
      </trkpt>
      <trkpt lat="43.73628" lon="3.54318">
        <ele>175.1</ele>
        <time>2018-06-30T13:35:02Z</time>
      </trkpt>
      <trkpt lat="43.73624" lon="3.54339">
        <ele>172.69</ele>
        <time>2018-06-30T13:35:21Z</time>
      </trkpt>
      <trkpt lat="43.73621" lon="3.54355">
        <ele>171.25</ele>
        <time>2018-06-30T13:35:35Z</time>
      </trkpt>
      <trkpt lat="43.73622" lon="3.5437">
        <ele>169.33</ele>
        <time>2018-06-30T13:35:47Z</time>
      </trkpt>
      <trkpt lat="43.73623" lon="3.54384">
        <ele>168.85</ele>
        <time>2018-06-30T13:35:55Z</time>
      </trkpt>
      <trkpt lat="43.73625" lon="3.54417">
        <ele>166.45</ele>
        <time>2018-06-30T13:36:13Z</time>
      </trkpt>
      <trkpt lat="43.73625" lon="3.54428">
        <ele>165.96</ele>
        <time>2018-06-30T13:36:23Z</time>
      </trkpt>
      <trkpt lat="43.7362" lon="3.54447">
        <ele>165</ele>
        <time>2018-06-30T13:36:37Z</time>
      </trkpt>
      <trkpt lat="43.73618" lon="3.54464">
        <ele>163.56</ele>
        <time>2018-06-30T13:36:52Z</time>
      </trkpt>
      <trkpt lat="43.73615" lon="3.54481">
        <ele>161.16</ele>
        <time>2018-06-30T13:37:09Z</time>
      </trkpt>
      <trkpt lat="43.7362" lon="3.54473">
        <ele>159.72</ele>
        <time>2018-06-30T13:37:22Z</time>
      </trkpt>
      <trkpt lat="43.73626" lon="3.54459">
        <ele>158.27</ele>
        <time>2018-06-30T13:37:33Z</time>
      </trkpt>
      <trkpt lat="43.73637" lon="3.54429">
        <ele>154.91</ele>
        <time>2018-06-30T13:37:52Z</time>
      </trkpt>
      <trkpt lat="43.73641" lon="3.54414">
        <ele>153.47</ele>
        <time>2018-06-30T13:38:04Z</time>
      </trkpt>
      <trkpt lat="43.73647" lon="3.5442">
        <ele>151.54</ele>
        <time>2018-06-30T13:38:17Z</time>
      </trkpt>
      <trkpt lat="43.73647" lon="3.54442">
        <ele>148.66</ele>
        <time>2018-06-30T13:38:33Z</time>
      </trkpt>
      <trkpt lat="43.73647" lon="3.54443">
        <ele>148.66</ele>
        <time>2018-06-30T13:38:34Z</time>
      </trkpt>
      <trkpt lat="43.73644" lon="3.54464">
        <ele>146.74</ele>
        <time>2018-06-30T13:38:52Z</time>
      </trkpt>
      <trkpt lat="43.73643" lon="3.54479">
        <ele>145.78</ele>
        <time>2018-06-30T13:39:04Z</time>
      </trkpt>
      <trkpt lat="43.73641" lon="3.54507">
        <ele>143.85</ele>
        <time>2018-06-30T13:39:22Z</time>
      </trkpt>
      <trkpt lat="43.73641" lon="3.54525">
        <ele>141.93</ele>
        <time>2018-06-30T13:39:34Z</time>
      </trkpt>
      <trkpt lat="43.73641" lon="3.54539">
        <ele>140.01</ele>
        <time>2018-06-30T13:39:43Z</time>
      </trkpt>
      <trkpt lat="43.7364" lon="3.54556">
        <ele>137.13</ele>
        <time>2018-06-30T13:39:55Z</time>
      </trkpt>
      <trkpt lat="43.73644" lon="3.54575">
        <ele>134.24</ele>
        <time>2018-06-30T13:40:09Z</time>
      </trkpt>
      <trkpt lat="43.73643" lon="3.54591">
        <ele>131.36</ele>
        <time>2018-06-30T13:40:22Z</time>
      </trkpt>
      <trkpt lat="43.73644" lon="3.54594">
        <ele>130.88</ele>
        <time>2018-06-30T13:40:24Z</time>
      </trkpt>
      <trkpt lat="43.73643" lon="3.54612">
        <ele>127.03</ele>
        <time>2018-06-30T13:40:37Z</time>
      </trkpt>
      <trkpt lat="43.73642" lon="3.54619">
        <ele>127.03</ele>
        <time>2018-06-30T13:40:42Z</time>
      </trkpt>
      <trkpt lat="43.73645" lon="3.54641">
        <ele>125.11</ele>
        <time>2018-06-30T13:40:58Z</time>
      </trkpt>
      <trkpt lat="43.73655" lon="3.54654">
        <ele>124.15</ele>
        <time>2018-06-30T13:41:11Z</time>
      </trkpt>
      <trkpt lat="43.73666" lon="3.54664">
        <ele>123.19</ele>
        <time>2018-06-30T13:41:22Z</time>
      </trkpt>
      <trkpt lat="43.73678" lon="3.54652">
        <ele>122.71</ele>
        <time>2018-06-30T13:41:39Z</time>
      </trkpt>
      <trkpt lat="43.7368" lon="3.54664">
        <ele>124.15</ele>
        <time>2018-06-30T13:41:50Z</time>
      </trkpt>
      <trkpt lat="43.73678" lon="3.5467">
        <ele>124.15</ele>
        <time>2018-06-30T13:41:57Z</time>
      </trkpt>
      <trkpt lat="43.73671" lon="3.54698">
        <ele>122.22</ele>
        <time>2018-06-30T13:42:17Z</time>
      </trkpt>
      <trkpt lat="43.73672" lon="3.5472">
        <ele>122.22</ele>
        <time>2018-06-30T13:42:34Z</time>
      </trkpt>
      <trkpt lat="43.73673" lon="3.54733">
        <ele>121.74</ele>
        <time>2018-06-30T13:42:51Z</time>
      </trkpt>
      <trkpt lat="43.7367" lon="3.54758">
        <ele>120.78</ele>
        <time>2018-06-30T13:43:11Z</time>
      </trkpt>
      <trkpt lat="43.73663" lon="3.5477">
        <ele>120.3</ele>
        <time>2018-06-30T13:43:25Z</time>
      </trkpt>
      <trkpt lat="43.7365" lon="3.54783">
        <ele>120.3</ele>
        <time>2018-06-30T13:43:42Z</time>
      </trkpt>
      <trkpt lat="43.73633" lon="3.54787">
        <ele>119.82</ele>
        <time>2018-06-30T13:43:59Z</time>
      </trkpt>
      <trkpt lat="43.73629" lon="3.54788">
        <ele>119.82</ele>
        <time>2018-06-30T13:44:01Z</time>
      </trkpt>
      <trkpt lat="43.73617" lon="3.54793">
        <ele>119.34</ele>
        <time>2018-06-30T13:44:17Z</time>
      </trkpt>
      <trkpt lat="43.73609" lon="3.54793">
        <ele>119.34</ele>
        <time>2018-06-30T13:44:33Z</time>
      </trkpt>
      <trkpt lat="43.73608" lon="3.54791">
        <ele>119.82</ele>
        <time>2018-06-30T13:44:45Z</time>
      </trkpt>
      <trkpt lat="43.73602" lon="3.54777">
        <ele>119.82</ele>
        <time>2018-06-30T13:45:08Z</time>
      </trkpt>
      <trkpt lat="43.73607" lon="3.54778">
        <ele>119.82</ele>
        <time>2018-06-30T13:45:36Z</time>
      </trkpt>
      <trkpt lat="43.73601" lon="3.54781">
        <ele>119.82</ele>
        <time>2018-06-30T13:45:59Z</time>
      </trkpt>
      <trkpt lat="43.73597" lon="3.54783">
        <ele>119.82</ele>
        <time>2018-06-30T13:46:32Z</time>
      </trkpt>
      <trkpt lat="43.73594" lon="3.54792">
        <ele>119.82</ele>
        <time>2018-06-30T13:46:49Z</time>
      </trkpt>
      <trkpt lat="43.73576" lon="3.54793">
        <ele>119.82</ele>
        <time>2018-06-30T13:47:05Z</time>
      </trkpt>
      <trkpt lat="43.73569" lon="3.54794">
        <ele>118.38</ele>
        <time>2018-06-30T13:47:13Z</time>
      </trkpt>
      <trkpt lat="43.73556" lon="3.54791">
        <ele>118.38</ele>
        <time>2018-06-30T13:47:22Z</time>
      </trkpt>
      <trkpt lat="43.73543" lon="3.54802">
        <ele>118.38</ele>
        <time>2018-06-30T13:47:39Z</time>
      </trkpt>
      <trkpt lat="43.73527" lon="3.54807">
        <ele>118.38</ele>
        <time>2018-06-30T13:47:57Z</time>
      </trkpt>
      <trkpt lat="43.73513" lon="3.5481">
        <ele>118.38</ele>
        <time>2018-06-30T13:48:12Z</time>
      </trkpt>
      <trkpt lat="43.73494" lon="3.5481">
        <ele>117.9</ele>
        <time>2018-06-30T13:48:32Z</time>
      </trkpt>
      <trkpt lat="43.73487" lon="3.54811">
        <ele>117.42</ele>
        <time>2018-06-30T13:48:41Z</time>
      </trkpt>
      <trkpt lat="43.73472" lon="3.54817">
        <ele>117.42</ele>
        <time>2018-06-30T13:48:58Z</time>
      </trkpt>
      <trkpt lat="43.73471" lon="3.54818">
        <ele>117.42</ele>
        <time>2018-06-30T13:48:59Z</time>
      </trkpt>
      <trkpt lat="43.73459" lon="3.54829">
        <ele>116.94</ele>
        <time>2018-06-30T13:49:16Z</time>
      </trkpt>
      <trkpt lat="43.73446" lon="3.54836">
        <ele>116.94</ele>
        <time>2018-06-30T13:49:31Z</time>
      </trkpt>
      <trkpt lat="43.73431" lon="3.54855">
        <ele>116.94</ele>
        <time>2018-06-30T13:49:55Z</time>
      </trkpt>
      <trkpt lat="43.73428" lon="3.5486">
        <ele>116.46</ele>
        <time>2018-06-30T13:50:15Z</time>
      </trkpt>
      <trkpt lat="43.73426" lon="3.54865">
        <ele>116.46</ele>
        <time>2018-06-30T13:50:20Z</time>
      </trkpt>
      <trkpt lat="43.73416" lon="3.54871">
        <ele>115.5</ele>
        <time>2018-06-30T13:50:29Z</time>
      </trkpt>
      <trkpt lat="43.73413" lon="3.54875">
        <ele>115.5</ele>
        <time>2018-06-30T13:50:33Z</time>
      </trkpt>
      <trkpt lat="43.73402" lon="3.54868">
        <ele>115.01</ele>
        <time>2018-06-30T13:50:50Z</time>
      </trkpt>
      <trkpt lat="43.73404" lon="3.54865">
        <ele>114.53</ele>
        <time>2018-06-30T13:50:57Z</time>
      </trkpt>
      <trkpt lat="43.73406" lon="3.54862">
        <ele>114.53</ele>
        <time>2018-06-30T13:50:59Z</time>
      </trkpt>
      <trkpt lat="43.73413" lon="3.54856">
        <ele>114.53</ele>
        <time>2018-06-30T13:51:07Z</time>
      </trkpt>
      <trkpt lat="43.73424" lon="3.54851">
        <ele>115.5</ele>
        <time>2018-06-30T13:51:17Z</time>
      </trkpt>
      <trkpt lat="43.73446" lon="3.54873">
        <ele>118.86</ele>
        <time>2018-06-30T13:51:30Z</time>
      </trkpt>
      <trkpt lat="43.73449" lon="3.54894">
        <ele>121.26</ele>
        <time>2018-06-30T13:51:45Z</time>
      </trkpt>
      <trkpt lat="43.73441" lon="3.54916">
        <ele>122.71</ele>
        <time>2018-06-30T13:52:02Z</time>
      </trkpt>
      <trkpt lat="43.73437" lon="3.54921">
        <ele>122.71</ele>
        <time>2018-06-30T13:52:11Z</time>
      </trkpt>
      <trkpt lat="43.73431" lon="3.54929">
        <ele>121.74</ele>
        <time>2018-06-30T13:52:17Z</time>
      </trkpt>
      <trkpt lat="43.73423" lon="3.54931">
        <ele>120.78</ele>
        <time>2018-06-30T13:52:32Z</time>
      </trkpt>
      <trkpt lat="43.73411" lon="3.54935">
        <ele>118.86</ele>
        <time>2018-06-30T13:52:50Z</time>
      </trkpt>
      <trkpt lat="43.73409" lon="3.54949">
        <ele>117.42</ele>
        <time>2018-06-30T13:53:02Z</time>
      </trkpt>
      <trkpt lat="43.73402" lon="3.54968">
        <ele>115.98</ele>
        <time>2018-06-30T13:53:19Z</time>
      </trkpt>
      <trkpt lat="43.73388" lon="3.54981">
        <ele>114.53</ele>
        <time>2018-06-30T13:53:35Z</time>
      </trkpt>
      <trkpt lat="43.73384" lon="3.54985">
        <ele>114.05</ele>
        <time>2018-06-30T13:53:40Z</time>
      </trkpt>
      <trkpt lat="43.7338" lon="3.55006">
        <ele>112.13</ele>
        <time>2018-06-30T13:53:57Z</time>
      </trkpt>
    </trkseg>
  </trk>
</gpx>